[[{"header":{"parameterUnit":"m.s-1","parameterCategory":1,"la1":31.0,"la2":29.5877,"lo1":-88.7671,"lo2":-86.6584,"dy":0.0162,"dx":0.0185,"nx":115,"ny":88,"refTime":"2024-08-13T06:00:00:Z","depth":0,"parameterNumber":2,"parameterNumberName":"U-component_of_WINDS"},"data":[0.0,0.0,0.0,0.0,0.0,0.0,0.0,0.0,0.0,0.0,0.0,0.0,0.0,0.0,0.0,0.0,0.0,0.0,0.0,0.0,0.0,0.0,0.0,0.0,0.0,0.0,0.0,0.0,0.0,0.0,0.0,0.0,0.0,0.0,0.0,0.0,0.0,0.0,0.0,0.0,0.0,0.0,0.0,0.0,0.0,0.0,0.0,0.0,0.0,0.0,0.0,0.0,0.0,0.0,0.0,0.0,0.0,0.0,0.0,0.0,0.0,0.0,0.0,0.0,0.0,0.0,0.0,0.0,0.0,0.0,0.0,0.0,0.0,0.0,0.0,0.0,0.0,0.0,0.0,0.0,0.0,0.0,0.0,0.0,0.0,0.0,0.0,0.0,0.0,0.0,0.0,0.0,0.0,0.0,0.0,0.0,0.0,0.0,0.0,0.0,0.0,0.0,0.0,0.0,0.0,0.0,0.0,0.0,0.0,0.0,0.0,0.0,0.0,0.0,0.0,0.0,0.0,0.0,0.0,0.0,0.0,0.0,0.0,0.0,0.0,0.0,0.0,0.0,0.0,0.0,0.0,0.0,0.0,0.0,0.0,0.0,0.0,0.0,0.0,0.0,0.0,0.0,0.0,0.0,0.0,0.0,0.0,0.0,0.0,0.0,0.0,0.0,0.0,0.0,0.0,0.0,0.0,0.0,0.0,0.0,0.0,0.0,0.0,0.0,0.0,0.0,0.0,0.0,0.0,0.0,0.0,0.0,0.0,0.0,0.0,0.0,0.0,0.0,0.0,0.0,0.0,0.0,0.0,0.0,0.0,0.0,0.0,0.0,0.0,0.0,0.0,0.0,0.0,0.0,0.0,0.0,0.0,0.0,0.0,0.0,0.0,0.0,0.0,0.0,0.0,0.0,0.0,0.0,0.0,0.0,0.0,0.0,0.0,0.0,0.0,0.0,0.0,0.0,0.0,0.0,0.0,0.0,0.0,0.0,0.0,0.0,0.0,0.0,0.0,0.0,0.0,0.0,0.0,0.0,0.0,0.0,0.0,0.0,0.0,0.0,0.0,0.0,0.0,0.0,0.0,0.0,0.0,0.0,0.0,0.0,0.0,0.0,0.0,0.0,0.0,0.0,0.0,0.0,0.0,0.0,0.0,0.0,0.0,0.0,0.0,0.0,0.0,0.0,0.0,0.0,0.0,0.0,0.0,0.0,0.0,0.0,0.0,0.0,0.0,0.0,0.0,0.0,0.0,0.0,0.0,0.0,0.0,0.0,0.0,0.0,0.0,0.0,0.0,0.0,0.0,0.0,0.0,0.0,0.0,0.0,0.0,0.0,0.0,0.0,0.0,0.0,0.0,0.0,0.0,0.0,0.0,0.0,0.0,0.0,0.0,0.0,0.0,0.0,0.0,0.0,0.0,0.0,0.0,0.0,0.0,0.0,0.0,0.0,0.0,0.0,0.0,0.0,0.0,0.0,0.0,0.0,0.0,0.0,0.0,0.0,0.0,0.0,0.0,0.0,0.0,0.0,0.0,0.0,0.0,0.0,0.0,0.0,0.0,0.0,0.0,0.0,0.0,0.0,0.0,0.0,0.0,0.0,0.0,0.0,0.0,0.0,0.0,0.0,0.0,0.0,0.0,0.0,0.0,0.0,0.0,0.0,0.0,0.0,0.0,0.0,0.0,0.0,0.0,0.0,0.0,0.0,0.0,0.0,0.0,0.0,0.0,0.0,0.0,0.0,0.0,0.0,0.0,0.0,0.0,0.0,0.0,0.0,0.0,0.0,0.0,0.0,0.0,0.0,0.0,0.0,0.0,0.0,0.0,0.0,0.0,0.0,0.0,0.0,0.0,0.0,0.0,0.0,0.0,0.0,0.0,0.0,0.0,0.0,0.0,0.0,0.0,0.0,0.0,0.0,0.0,0.0,0.0,0.0,0.0,0.0,0.0,0.0,0.0,0.0,0.0,0.0,0.0,0.0,0.0,0.0,0.0,0.0,0.0,0.0,0.0,0.0,0.0,0.0,0.0,0.0,0.0,0.0,0.0,0.0,0.0,0.0,0.0,0.0,0.0,0.0,0.0,0.0,0.0,0.0,0.0,0.0,0.0,0.0,0.0,0.0,0.0,0.0,0.0,0.0,0.0,0.0,0.0,0.0,0.0,0.0,0.0,0.0,0.0,0.0,0.0,0.0,0.0,0.0,0.0,0.0,0.0,0.0,0.0,0.0,0.0,0.0,0.0,0.0,0.0,0.0,0.0,0.0,0.0,0.0,0.0,0.0,0.0,0.0,0.0,0.0,0.0,0.0,0.0,0.0,0.0,0.0,0.0,0.0,0.0,0.0,0.0,0.0,0.0,0.0,0.0,0.0,0.0,0.0,0.0,0.0,0.0,0.0,0.0,0.0,0.0,0.0,0.0,0.0,0.0,0.0,0.0,0.0,0.0,0.0,0.0,0.0,0.0,0.0,0.0,0.0,0.0,0.0,0.0,0.0,0.0,0.0,0.0,0.0,0.0,0.0,0.0,0.0,0.0,0.0,0.0,0.0,0.0,0.0,0.0,0.0,0.0,0.0,0.0,0.0,0.0,0.0,0.0,0.0,0.0,0.0,0.0,0.0,0.0,0.0,0.0,0.0,0.0,0.0,0.0,0.0,0.0,0.0,0.0,0.0,0.0,0.0,0.0,0.0,0.0,0.0,0.0,0.0,0.0,0.0,0.0,0.0,0.0,0.0,0.0,0.0,0.0,0.0,0.0,0.0,0.0,0.0,0.0,0.0,0.0,0.0,0.0,0.0,0.0,0.0,0.0,0.0,0.0,0.0,0.0,0.0,0.0,0.0,0.0,0.0,0.0,0.0,0.0,0.0,0.0,0.0,0.0,0.0,0.0,0.0,0.0,0.0,0.0,0.0,0.0,0.0,0.0,0.0,0.0,0.0,0.0,0.0,0.0,0.0,0.0,0.0,0.0,0.0,0.0,0.0,0.0,0.0,0.0,0.0,0.0,0.0,0.0,0.0,0.0,0.0,0.0,0.0,0.0,0.0,0.0,0.0,0.0,0.0,0.0,0.0,0.0,0.0,0.0,0.0,0.0,0.0,0.0,0.0,0.0,0.0,0.0,0.0,0.0,0.0,0.0,0.0,0.0,0.0,0.0,0.0,0.0,0.0,0.0,0.0,0.0,0.0,0.0,0.0,0.0,0.0,0.0,0.0,0.0,0.0,0.0,0.0,0.0,0.0,0.0,0.0,0.0,0.0,0.0,0.0,0.0,0.0,0.0,0.0,0.0,0.0,0.0,0.0,0.0,0.0,0.0,0.0,0.0,0.0,0.0,0.0,0.0,0.0,0.0,0.0,0.0,0.0,0.0,0.0,0.0,0.0,0.0,0.0,0.0,0.0,0.0,0.0,0.0,0.0,0.0,0.0,0.0,0.0,0.0,0.0,0.0,0.0,0.0,0.0,0.0,0.0,0.0,0.0,0.0,0.0,0.0,0.0,0.0,0.0,0.0,0.0,0.0,0.0,0.0,0.0,0.0,0.0,0.0,0.0,0.0,0.0,0.0,0.0,0.0,0.0,0.0,0.0,0.0,0.0,0.0,0.0,0.0,0.0,0.0,0.0,0.0,0.0,0.0,0.0,0.0,0.0,0.0,0.0,0.0,0.0,0.0,0.0,0.0,0.0,0.0,0.0,0.0,0.0,0.0,0.0,0.0,0.0,0.0,0.0,0.0,0.0,0.0,0.0,0.0,0.0,0.0,0.0,0.0,0.0,0.0,0.0,0.0,0.0,0.0,0.0,0.0,0.0,0.0,0.0,0.0,0.0,0.0,0.0,0.0,0.0,0.0,0.0,0.0,0.0,0.0,0.0,0.0,0.0,0.0,0.0,0.0,0.0,0.0,0.0,0.0,0.0,0.0,0.0,0.0,0.0,0.0,0.0,0.0,0.0,0.0,0.0,0.0,0.0,0.0,0.0,0.0,0.0,0.0,0.0,0.0,0.0,0.0,0.0,0.0,0.0,0.0,0.0,0.0,0.0,0.0,0.0,0.0,0.0,0.0,0.0,0.0,0.0,0.0,0.0,0.0,0.0,0.0,0.0,0.0,0.0,0.0,0.0,0.0,0.0,0.0,0.0,0.0,0.0,0.0,0.0,0.0,0.0,0.0,0.0,0.0,0.0,0.0,0.0,0.0,0.0,0.0,0.0,0.0,0.0,0.0,0.0,0.0,0.0,0.0,0.0,0.0,0.0,0.0,0.0,0.0,0.0,0.0,0.0,-2.7796,0.0,0.0,0.0,0.0,0.0,0.0,0.0,0.0,0.0,0.0,0.0,0.0,0.0,0.0,0.0,0.0,0.0,0.0,0.0,0.0,0.0,0.0,0.0,0.0,0.0,0.0,0.0,0.0,0.0,0.0,0.0,0.0,0.0,0.0,0.0,0.0,0.0,0.0,0.0,0.0,0.0,0.0,0.0,0.0,0.0,0.0,0.0,0.0,0.0,0.0,0.0,0.0,0.0,0.0,0.0,0.0,0.0,0.0,0.0,0.0,0.0,0.0,0.0,0.0,0.0,0.0,0.0,0.0,0.0,0.0,0.0,0.0,0.0,0.0,0.0,0.0,0.0,0.0,0.0,0.0,0.0,0.0,0.0,0.0,0.0,0.0,0.0,0.0,0.0,0.0,0.0,0.0,0.0,0.0,0.0,0.0,0.0,0.0,0.0,0.0,0.0,0.0,0.0,0.0,0.0,0.0,0.0,0.0,0.0,0.0,-3.0626,-3.0615,-3.0615,-2.9805,-2.8142,0.0,0.0,0.0,0.0,0.0,0.0,0.0,0.0,0.0,0.0,0.0,0.0,0.0,0.0,0.0,0.0,0.0,0.0,0.0,0.0,0.0,0.0,0.0,0.0,0.0,0.0,0.0,0.0,0.0,0.0,0.0,0.0,0.0,0.0,0.0,0.0,0.0,0.0,0.0,0.0,0.0,0.0,0.0,0.0,0.0,0.0,0.0,0.0,0.0,0.0,0.0,0.0,0.0,0.0,0.0,0.0,0.0,0.0,0.0,0.0,0.0,0.0,0.0,0.0,0.0,0.0,0.0,0.0,0.0,0.0,0.0,0.0,0.0,0.0,0.0,0.0,0.0,0.0,0.0,0.0,0.0,0.0,0.0,0.0,0.0,0.0,0.0,0.0,0.0,0.0,0.0,0.0,0.0,0.0,0.0,0.0,0.0,0.0,0.0,0.0,0.0,0.0,0.0,0.0,0.0,0.0,0.0,0.0,0.0,0.0,0.0,0.0,-3.1388,-3.0379,-2.8236,0.0,0.0,0.0,0.0,0.0,0.0,0.0,0.0,0.0,0.0,0.0,0.0,0.0,0.0,0.0,0.0,0.0,0.0,0.0,0.0,0.0,0.0,0.0,0.0,0.0,0.0,0.0,0.0,0.0,0.0,0.0,0.0,0.0,0.0,0.0,0.0,0.0,0.0,0.0,0.0,0.0,0.0,0.0,0.0,0.0,0.0,0.0,0.0,0.0,0.0,0.0,0.0,0.0,0.0,0.0,0.0,0.0,0.0,0.0,0.0,0.0,0.0,0.0,0.0,0.0,0.0,0.0,0.0,0.0,0.0,0.0,0.0,0.0,0.0,0.0,0.0,0.0,0.0,0.0,0.0,0.0,0.0,0.0,0.0,0.0,0.0,0.0,0.0,0.0,0.0,0.0,0.0,0.0,0.0,0.0,0.0,0.0,0.0,0.0,0.0,0.0,0.0,0.0,0.0,0.0,0.0,0.0,0.0,0.0,0.0,-3.2361,-3.3735,-3.3753,0.0,-2.8717,0.0,0.0,0.0,0.0,0.0,0.0,0.0,0.0,0.0,0.0,0.0,0.0,0.0,0.0,0.0,0.0,0.0,0.0,0.0,0.0,0.0,0.0,0.0,0.0,0.0,0.0,0.0,0.0,0.0,0.0,0.0,0.0,0.0,0.0,0.0,0.0,0.0,0.0,0.0,0.0,0.0,0.0,0.0,0.0,0.0,0.0,0.0,0.0,0.0,0.0,0.0,0.0,0.0,0.0,0.0,0.0,0.0,0.0,0.0,0.0,0.0,0.0,0.0,0.0,0.0,0.0,0.0,0.0,0.0,0.0,0.0,0.0,0.0,0.0,0.0,0.0,0.0,0.0,0.0,0.0,0.0,0.0,0.0,0.0,0.0,0.0,0.0,0.0,0.0,0.0,0.0,0.0,0.0,0.0,0.0,0.0,0.0,0.0,0.0,0.0,0.0,0.0,0.0,0.0,0.0,0.0,0.0,0.0,0.0,0.0,-3.2776,-3.3425,-3.2944,-3.1505,0.0,0.0,0.0,0.0,0.0,0.0,0.0,0.0,0.0,0.0,0.0,0.0,0.0,0.0,0.0,0.0,0.0,0.0,0.0,0.0,0.0,0.0,0.0,0.0,0.0,0.0,0.0,0.0,0.0,0.0,0.0,0.0,0.0,0.0,0.0,0.0,0.0,0.0,0.0,0.0,0.0,0.0,0.0,0.0,0.0,0.0,0.0,0.0,0.0,0.0,0.0,0.0,0.0,0.0,0.0,0.0,0.0,0.0,0.0,0.0,0.0,0.0,0.0,0.0,0.0,0.0,0.0,0.0,0.0,0.0,0.0,0.0,0.0,0.0,0.0,0.0,0.0,0.0,0.0,0.0,0.0,0.0,0.0,0.0,0.0,0.0,0.0,0.0,0.0,0.0,0.0,0.0,0.0,0.0,0.0,0.0,0.0,0.0,0.0,0.0,0.0,0.0,0.0,0.0,0.0,0.0,0.0,0.0,0.0,0.0,-3.2093,0.0,-3.3561,-3.3216,-3.1794,-2.914,0.0,0.0,0.0,0.0,0.0,0.0,0.0,0.0,0.0,0.0,0.0,0.0,0.0,0.0,0.0,0.0,0.0,0.0,0.0,0.0,0.0,0.0,0.0,0.0,0.0,0.0,0.0,0.0,0.0,0.0,0.0,0.0,0.0,0.0,0.0,0.0,0.0,0.0,0.0,0.0,0.0,0.0,0.0,0.0,0.0,0.0,0.0,0.0,0.0,0.0,0.0,0.0,0.0,0.0,0.0,0.0,0.0,0.0,0.0,0.0,0.0,0.0,0.0,0.0,0.0,0.0,0.0,0.0,0.0,0.0,0.0,0.0,0.0,0.0,0.0,0.0,0.0,0.0,0.0,0.0,0.0,0.0,0.0,0.0,0.0,0.0,0.0,0.0,0.0,0.0,0.0,0.0,0.0,0.0,0.0,0.0,0.0,0.0,0.0,0.0,0.0,0.0,0.0,0.0,0.0,0.0,0.0,0.0,0.0,-3.3161,-3.3611,-3.5056,-3.5863,-3.382,0.0,0.0,0.0,0.0,0.0,0.0,0.0,0.0,0.0,0.0,0.0,0.0,0.0,0.0,0.0,0.0,0.0,0.0,0.0,0.0,0.0,0.0,0.0,0.0,0.0,0.0,0.0,0.0,0.0,0.0,0.0,0.0,0.0,0.0,0.0,0.0,0.0,0.0,0.0,0.0,0.0,0.0,0.0,0.0,0.0,0.0,0.0,0.0,0.0,0.0,0.0,0.0,0.0,0.0,0.0,0.0,0.0,0.0,0.0,0.0,0.0,0.0,0.0,0.0,0.0,0.0,0.0,0.0,0.0,0.0,0.0,0.0,0.0,0.0,0.0,0.0,0.0,0.0,0.0,0.0,0.0,0.0,0.0,0.0,0.0,0.0,0.0,0.0,0.0,0.0,0.0,0.0,0.0,0.0,0.0,0.0,0.0,0.0,0.0,0.0,0.0,0.0,0.0,0.0,0.0,0.0,0.0,0.0,0.0,-3.1721,-3.297,-3.462,-3.6643,-3.5048,-3.2912,0.0,0.0,0.0,0.0,0.0,0.0,0.0,0.0,0.0,0.0,0.0,0.0,0.0,0.0,0.0,0.0,0.0,0.0,0.0,0.0,0.0,0.0,0.0,0.0,0.0,0.0,0.0,0.0,0.0,0.0,0.0,0.0,0.0,0.0,0.0,0.0,0.0,0.0,0.0,0.0,0.0,0.0,0.0,0.0,0.0,0.0,0.0,0.0,0.0,0.0,0.0,0.0,0.0,0.0,0.0,0.0,0.0,0.0,0.0,0.0,0.0,0.0,0.0,0.0,0.0,0.0,0.0,0.0,0.0,0.0,0.0,0.0,0.0,0.0,0.0,0.0,0.0,0.0,0.0,0.0,0.0,0.0,0.0,0.0,0.0,0.0,0.0,0.0,0.0,0.0,0.0,0.0,0.0,0.0,0.0,0.0,0.0,0.0,0.0,0.0,0.0,0.0,0.0,0.0,0.0,0.0,0.0,0.0,0.0,-3.167,0.0,-3.5712,0.0,-3.4708,-3.2445,0.0,0.0,0.0,0.0,0.0,0.0,0.0,0.0,0.0,0.0,0.0,0.0,0.0,0.0,0.0,0.0,0.0,0.0,0.0,0.0,0.0,0.0,0.0,0.0,0.0,0.0,0.0,0.0,0.0,0.0,0.0,0.0,0.0,0.0,0.0,0.0,0.0,0.0,0.0,0.0,0.0,0.0,0.0,0.0,0.0,0.0,0.0,0.0,0.0,0.0,0.0,0.0,0.0,0.0,0.0,0.0,0.0,0.0,0.0,0.0,0.0,0.0,0.0,0.0,0.0,0.0,0.0,0.0,0.0,0.0,0.0,0.0,0.0,0.0,0.0,0.0,0.0,0.0,0.0,0.0,0.0,0.0,0.0,0.0,0.0,0.0,0.0,0.0,0.0,0.0,0.0,0.0,0.0,0.0,0.0,0.0,0.0,0.0,0.0,0.0,0.0,0.0,0.0,0.0,0.0,0.0,0.0,0.0,-3.0898,-3.3789,-3.6233,-3.6767,-3.523,-3.5151,-3.2687,0.0,0.0,0.0,0.0,0.0,0.0,0.0,0.0,0.0,0.0,0.0,0.0,0.0,0.0,0.0,0.0,0.0,0.0,0.0,0.0,0.0,0.0,0.0,0.0,0.0,0.0,0.0,0.0,0.0,0.0,0.0,0.0,0.0,0.0,0.0,0.0,0.0,0.0,0.0,0.0,0.0,0.0,0.0,0.0,0.0,0.0,0.0,0.0,0.0,0.0,0.0,0.0,0.0,0.0,0.0,0.0,0.0,0.0,0.0,0.0,0.0,0.0,0.0,0.0,0.0,0.0,0.0,0.0,0.0,0.0,0.0,0.0,0.0,0.0,0.0,0.0,0.0,0.0,0.0,0.0,0.0,0.0,0.0,0.0,0.0,0.0,0.0,0.0,0.0,0.0,0.0,0.0,0.0,0.0,0.0,0.0,0.0,0.0,0.0,0.0,0.0,0.0,0.0,0.0,0.0,0.0,0.0,0.0,0.0,-3.3834,-3.5721,-3.6974,-3.7489,-3.5395,-3.3468,0.0,0.0,0.0,0.0,0.0,0.0,0.0,0.0,0.0,0.0,0.0,0.0,0.0,0.0,0.0,0.0,0.0,0.0,0.0,0.0,0.0,0.0,0.0,0.0,0.0,0.0,0.0,0.0,0.0,0.0,0.0,0.0,0.0,0.0,0.0,0.0,0.0,0.0,0.0,0.0,0.0,0.0,0.0,0.0,0.0,0.0,0.0,0.0,0.0,0.0,0.0,0.0,0.0,0.0,0.0,0.0,0.0,0.0,0.0,0.0,0.0,0.0,0.0,0.0,0.0,0.0,0.0,0.0,0.0,0.0,0.0,0.0,0.0,0.0,0.0,0.0,0.0,0.0,0.0,0.0,0.0,0.0,0.0,0.0,0.0,0.0,0.0,0.0,0.0,0.0,0.0,0.0,0.0,0.0,0.0,0.0,0.0,0.0,0.0,0.0,0.0,0.0,0.0,0.0,0.0,0.0,0.0,0.0,0.0,-3.5202,-3.678,-3.7973,-3.8689,-3.6119,-3.4055,-3.2616,0.0,0.0,0.0,0.0,0.0,0.0,0.0,0.0,0.0,0.0,0.0,0.0,0.0,0.0,0.0,0.0,0.0,0.0,0.0,0.0,0.0,0.0,0.0,0.0,0.0,0.0,0.0,0.0,0.0,0.0,0.0,0.0,0.0,0.0,0.0,0.0,0.0,0.0,0.0,0.0,0.0,0.0,0.0,0.0,0.0,0.0,0.0,0.0,0.0,0.0,0.0,0.0,0.0,0.0,0.0,0.0,0.0,0.0,0.0,0.0,0.0,0.0,0.0,0.0,0.0,0.0,0.0,0.0,0.0,0.0,0.0,0.0,0.0,0.0,0.0,0.0,0.0,0.0,0.0,0.0,0.0,0.0,0.0,0.0,0.0,0.0,0.0,0.0,0.0,0.0,0.0,0.0,0.0,0.0,0.0,0.0,0.0,0.0,0.0,0.0,0.0,0.0,0.0,0.0,0.0,0.0,0.0,0.0,-3.7474,-3.9163,-3.9643,-3.8872,-3.7221,-3.4641,0.0,0.0,0.0,0.0,0.0,0.0,0.0,0.0,0.0,0.0,0.0,0.0,0.0,0.0,0.0,0.0,0.0,0.0,0.0,0.0,0.0,0.0,0.0,0.0,0.0,0.0,0.0,0.0,0.0,0.0,0.0,0.0,0.0,0.0,0.0,0.0,0.0,0.0,0.0,0.0,0.0,0.0,0.0,0.0,0.0,0.0,0.0,0.0,0.0,0.0,0.0,0.0,0.0,0.0,0.0,0.0,0.0,0.0,0.0,0.0,0.0,0.0,0.0,0.0,0.0,0.0,0.0,0.0,0.0,0.0,0.0,0.0,0.0,0.0,0.0,0.0,0.0,0.0,0.0,0.0,0.0,0.0,0.0,0.0,0.0,0.0,0.0,0.0,0.0,0.0,0.0,0.0,0.0,0.0,0.0,0.0,0.0,0.0,0.0,0.0,0.0,0.0,0.0,0.0,0.0,0.0,0.0,0.0,0.0,-3.7547,-4.023,-4.1295,-4.0453,-3.834,-3.6303,0.0,0.0,0.0,0.0,0.0,0.0,0.0,0.0,0.0,0.0,0.0,0.0,0.0,0.0,0.0,0.0,0.0,0.0,0.0,0.0,0.0,0.0,0.0,0.0,0.0,0.0,0.0,0.0,0.0,0.0,0.0,0.0,0.0,0.0,0.0,0.0,0.0,0.0,0.0,0.0,0.0,0.0,0.0,0.0,0.0,0.0,0.0,0.0,0.0,0.0,0.0,0.0,0.0,0.0,0.0,0.0,0.0,0.0,0.0,0.0,0.0,0.0,0.0,0.0,0.0,0.0,0.0,0.0,0.0,0.0,0.0,0.0,0.0,0.0,0.0,0.0,0.0,0.0,0.0,0.0,0.0,0.0,0.0,0.0,0.0,0.0,0.0,0.0,0.0,0.0,0.0,0.0,0.0,0.0,0.0,0.0,0.0,0.0,0.0,0.0,0.0,0.0,0.0,0.0,0.0,0.0,0.0,0.0,-3.6911,-3.8342,-4.0191,-4.1088,-4.0979,-3.9392,-3.7421,0.0,0.0,0.0,0.0,0.0,0.0,0.0,0.0,0.0,0.0,0.0,0.0,0.0,0.0,0.0,0.0,0.0,0.0,0.0,0.0,0.0,0.0,0.0,0.0,0.0,0.0,0.0,0.0,0.0,0.0,0.0,0.0,0.0,0.0,0.0,0.0,0.0,0.0,0.0,0.0,0.0,0.0,0.0,0.0,0.0,0.0,0.0,0.0,0.0,0.0,0.0,0.0,0.0,0.0,0.0,0.0,0.0,0.0,0.0,0.0,0.0,0.0,0.0,0.0,0.0,0.0,0.0,0.0,0.0,0.0,0.0,0.0,0.0,0.0,0.0,0.0,0.0,0.0,0.0,0.0,0.0,0.0,0.0,0.0,0.0,0.0,0.0,0.0,0.0,0.0,0.0,0.0,0.0,0.0,0.0,0.0,0.0,0.0,0.0,0.0,0.0,0.0,0.0,0.0,0.0,0.0,0.0,0.0,-3.7179,-3.9294,-3.9604,-4.0024,-4.0625,-4.0063,-3.8004,0.0,0.0,0.0,0.0,0.0,0.0,0.0,0.0,0.0,0.0,0.0,0.0,0.0,0.0,0.0,0.0,0.0,0.0,0.0,0.0,0.0,0.0,0.0,0.0,0.0,0.0,0.0,0.0,0.0,0.0,0.0,0.0,0.0,0.0,0.0,0.0,0.0,0.0,0.0,0.0,0.0,0.0,0.0,0.0,0.0,0.0,0.0,0.0,0.0,0.0,0.0,0.0,0.0,0.0,0.0,0.0,0.0,0.0,0.0,0.0,0.0,0.0,0.0,0.0,0.0,0.0,0.0,0.0,0.0,0.0,0.0,0.0,0.0,0.0,0.0,0.0,0.0,0.0,0.0,0.0,0.0,0.0,0.0,0.0,0.0,0.0,0.0,0.0,0.0,0.0,0.0,0.0,0.0,0.0,0.0,0.0,0.0,0.0,0.0,0.0,0.0,0.0,0.0,0.0,0.0,0.0,0.0,0.0,-3.7197,-3.7726,-3.9566,-4.0332,-3.9859,-3.9124,-3.7482,0.0,0.0,0.0,0.0,0.0,0.0,0.0,0.0,0.0,0.0,0.0,0.0,0.0,0.0,0.0,0.0,0.0,0.0,0.0,0.0,0.0,0.0,0.0,0.0,0.0,0.0,0.0,0.0,0.0,0.0,0.0,0.0,0.0,0.0,0.0,0.0,0.0,0.0,0.0,0.0,0.0,0.0,0.0,0.0,0.0,0.0,0.0,0.0,-3.2965,0.0,0.0,0.0,0.0,0.0,0.0,0.0,0.0,0.0,0.0,0.0,0.0,0.0,0.0,0.0,0.0,0.0,0.0,0.0,0.0,0.0,0.0,0.0,0.0,0.0,0.0,0.0,0.0,0.0,0.0,0.0,0.0,0.0,0.0,0.0,0.0,0.0,0.0,0.0,0.0,0.0,0.0,0.0,0.0,0.0,0.0,0.0,0.0,0.0,0.0,0.0,0.0,0.0,0.0,0.0,0.0,0.0,0.0,0.0,-3.7469,-3.8216,-3.9105,-3.9455,-3.9138,-3.8071,-3.6694,0.0,0.0,0.0,0.0,0.0,0.0,0.0,0.0,0.0,0.0,0.0,0.0,0.0,0.0,0.0,0.0,0.0,0.0,0.0,0.0,0.0,0.0,0.0,0.0,0.0,0.0,0.0,0.0,0.0,0.0,0.0,0.0,0.0,0.0,0.0,0.0,0.0,0.0,0.0,0.0,0.0,0.0,0.0,0.0,0.0,0.0,0.0,0.0,0.0,0.0,0.0,0.0,0.0,0.0,0.0,0.0,0.0,0.0,0.0,0.0,0.0,0.0,0.0,0.0,0.0,0.0,0.0,0.0,0.0,0.0,0.0,0.0,0.0,0.0,0.0,0.0,0.0,0.0,0.0,0.0,0.0,0.0,0.0,0.0,0.0,0.0,0.0,0.0,0.0,0.0,0.0,0.0,0.0,0.0,0.0,0.0,0.0,0.0,0.0,0.0,0.0,0.0,0.0,0.0,0.0,0.0,0.0,-3.5872,-3.7594,-3.9097,-3.8536,-3.8256,-3.8327,-3.7005,-3.5794,-3.4712,0.0,0.0,0.0,0.0,0.0,0.0,0.0,0.0,0.0,0.0,0.0,0.0,0.0,0.0,0.0,0.0,0.0,0.0,0.0,0.0,0.0,0.0,0.0,0.0,0.0,0.0,0.0,0.0,0.0,0.0,0.0,0.0,0.0,0.0,0.0,0.0,0.0,0.0,-3.1801,-3.3821,0.0,0.0,0.0,0.0,0.0,0.0,0.0,0.0,-3.4217,0.0,0.0,0.0,0.0,0.0,0.0,0.0,0.0,0.0,0.0,0.0,0.0,0.0,0.0,0.0,0.0,0.0,0.0,0.0,0.0,0.0,0.0,0.0,0.0,0.0,0.0,0.0,0.0,0.0,0.0,0.0,0.0,0.0,0.0,0.0,0.0,0.0,0.0,0.0,0.0,0.0,0.0,0.0,0.0,0.0,0.0,0.0,0.0,0.0,0.0,0.0,0.0,0.0,0.0,0.0,0.0,-3.6343,-3.6146,-3.6761,-3.8354,-3.8281,-3.775,-3.6791,-3.6199,-3.5072,-3.3303,0.0,0.0,0.0,0.0,0.0,0.0,0.0,0.0,0.0,0.0,0.0,0.0,0.0,0.0,0.0,0.0,0.0,0.0,0.0,0.0,0.0,0.0,0.0,0.0,0.0,0.0,0.0,0.0,0.0,0.0,0.0,0.0,0.0,0.0,0.0,0.0,0.0,0.0,0.0,-3.5428,-3.6635,0.0,0.0,0.0,0.0,0.0,0.0,0.0,0.0,-3.4023,0.0,0.0,0.0,0.0,0.0,0.0,0.0,0.0,0.0,0.0,0.0,0.0,0.0,0.0,0.0,0.0,0.0,0.0,0.0,0.0,0.0,0.0,0.0,0.0,0.0,0.0,0.0,0.0,0.0,0.0,0.0,0.0,0.0,0.0,0.0,0.0,0.0,0.0,0.0,0.0,0.0,0.0,0.0,0.0,0.0,0.0,0.0,0.0,0.0,0.0,0.0,0.0,0.0,0.0,0.0,-3.562,-3.6182,-3.6814,-3.7557,-3.7575,-3.6908,-3.5527,-3.4534,-3.3573,0.0,0.0,0.0,0.0,0.0,0.0,0.0,0.0,0.0,0.0,0.0,0.0,0.0,0.0,0.0,0.0,0.0,0.0,0.0,0.0,0.0,0.0,0.0,0.0,0.0,0.0,0.0,0.0,0.0,0.0,0.0,0.0,0.0,0.0,0.0,0.0,0.0,0.0,0.0,0.0,-3.5941,-3.6775,-3.7153,0.0,0.0,0.0,0.0,0.0,0.0,-3.4725,-3.3935,0.0,0.0,0.0,0.0,0.0,0.0,0.0,0.0,0.0,0.0,0.0,0.0,0.0,0.0,0.0,0.0,0.0,0.0,0.0,0.0,0.0,0.0,0.0,0.0,0.0,0.0,0.0,0.0,0.0,0.0,0.0,0.0,0.0,0.0,0.0,0.0,0.0,0.0,0.0,0.0,0.0,0.0,0.0,0.0,0.0,0.0,0.0,0.0,0.0,0.0,0.0,0.0,0.0,0.0,0.0,-3.432,-3.5783,-3.6596,-3.6759,-3.6759,-3.5997,-3.4426,-3.3231,-3.2385,0.0,0.0,0.0,0.0,0.0,0.0,0.0,0.0,0.0,0.0,0.0,0.0,0.0,0.0,0.0,0.0,0.0,0.0,0.0,0.0,0.0,0.0,0.0,0.0,0.0,0.0,0.0,0.0,0.0,0.0,0.0,0.0,0.0,0.0,0.0,0.0,0.0,0.0,0.0,0.0,0.0,-3.7264,-3.8145,-3.7807,0.0,0.0,0.0,0.0,-3.6272,-3.5279,0.0,0.0,0.0,0.0,0.0,0.0,0.0,0.0,0.0,0.0,0.0,0.0,0.0,0.0,0.0,0.0,0.0,0.0,0.0,0.0,0.0,0.0,0.0,0.0,0.0,0.0,0.0,0.0,0.0,0.0,0.0,0.0,0.0,0.0,0.0,0.0,0.0,0.0,0.0,0.0,0.0,0.0,0.0,0.0,0.0,0.0,0.0,0.0,0.0,0.0,0.0,0.0,0.0,0.0,0.0,0.0,-3.3502,-3.4425,-3.5222,-3.5894,-3.5965,-3.519,-3.3688,-3.3459,-3.242,0.0,0.0,0.0,0.0,0.0,0.0,0.0,0.0,0.0,0.0,0.0,0.0,0.0,0.0,0.0,0.0,0.0,0.0,0.0,0.0,0.0,0.0,0.0,0.0,0.0,0.0,0.0,0.0,0.0,0.0,0.0,0.0,0.0,0.0,0.0,0.0,0.0,0.0,0.0,0.0,0.0,-3.9688,-3.8389,-3.8734,-3.888,0.0,0.0,-3.7252,-3.6733,-3.6629,0.0,0.0,0.0,0.0,0.0,0.0,0.0,0.0,0.0,0.0,0.0,0.0,0.0,0.0,0.0,0.0,0.0,0.0,0.0,0.0,0.0,0.0,0.0,0.0,0.0,0.0,0.0,0.0,0.0,0.0,0.0,0.0,0.0,0.0,0.0,0.0,0.0,0.0,0.0,0.0,0.0,0.0,0.0,0.0,0.0,0.0,0.0,0.0,0.0,0.0,0.0,0.0,0.0,0.0,0.0,-3.1329,-3.3339,-3.419,-3.4754,-3.5098,-3.5116,-3.4383,-3.2844,-3.2422,-3.1533,0.0,0.0,0.0,0.0,0.0,0.0,0.0,0.0,0.0,0.0,0.0,0.0,0.0,0.0,0.0,0.0,0.0,0.0,0.0,0.0,0.0,0.0,0.0,0.0,0.0,0.0,0.0,0.0,0.0,0.0,0.0,0.0,0.0,0.0,0.0,0.0,0.0,0.0,0.0,0.0,0.0,0.0,-3.9423,-3.9441,0.0,0.0,0.0,-3.7326,-3.7775,0.0,0.0,0.0,0.0,0.0,0.0,0.0,0.0,0.0,0.0,0.0,0.0,0.0,0.0,0.0,0.0,0.0,0.0,0.0,0.0,0.0,0.0,0.0,0.0,0.0,0.0,0.0,0.0,0.0,0.0,0.0,0.0,0.0,0.0,0.0,0.0,0.0,0.0,0.0,0.0,0.0,0.0,0.0,0.0,0.0,0.0,0.0,0.0,0.0,0.0,0.0,0.0,0.0,0.0,0.0,0.0,0.0,-3.2759,-3.3791,-3.4298,-3.4301,-3.4298,-3.3647,-3.2352,-3.1755,0.0,0.0,0.0,0.0,0.0,0.0,0.0,0.0,0.0,0.0,0.0,0.0,0.0,0.0,0.0,0.0,0.0,0.0,0.0,0.0,0.0,0.0,0.0,0.0,0.0,0.0,0.0,-2.5202,0.0,0.0,0.0,0.0,0.0,0.0,0.0,0.0,0.0,0.0,0.0,0.0,0.0,0.0,-3.8552,-4.0203,-3.9968,-4.0023,0.0,0.0,-3.7488,-3.8465,-3.6659,-3.4901,0.0,0.0,0.0,0.0,0.0,0.0,0.0,0.0,0.0,0.0,0.0,0.0,0.0,0.0,0.0,0.0,0.0,0.0,0.0,0.0,0.0,0.0,0.0,0.0,0.0,0.0,0.0,0.0,0.0,0.0,0.0,0.0,0.0,0.0,0.0,0.0,0.0,0.0,0.0,0.0,0.0,0.0,0.0,0.0,0.0,0.0,0.0,0.0,0.0,0.0,0.0,0.0,0.0,0.0,0.0,-3.1179,-3.2687,-3.3484,-3.3484,-3.3484,-3.3109,-3.2334,-3.2265,-3.1237,0.0,0.0,0.0,0.0,0.0,0.0,0.0,0.0,0.0,0.0,0.0,0.0,0.0,0.0,0.0,0.0,0.0,0.0,0.0,0.0,0.0,0.0,0.0,0.0,0.0,0.0,0.0,0.0,0.0,0.0,0.0,0.0,0.0,0.0,0.0,0.0,0.0,0.0,0.0,0.0,0.0,-4.0257,-4.0237,-4.0237,-4.0469,0.0,0.0,-3.8327,-3.8396,-3.7568,-3.6233,-3.4161,0.0,0.0,0.0,0.0,0.0,0.0,0.0,0.0,0.0,0.0,0.0,0.0,0.0,0.0,0.0,0.0,0.0,0.0,0.0,0.0,0.0,0.0,0.0,0.0,0.0,0.0,0.0,0.0,0.0,0.0,0.0,0.0,0.0,0.0,0.0,0.0,0.0,0.0,0.0,0.0,0.0,0.0,0.0,0.0,0.0,0.0,0.0,0.0,0.0,0.0,0.0,0.0,0.0,-3.0201,-3.0998,-3.2578,-3.3393,-3.3393,-3.3393,-3.3052,-3.2385,-3.2317,-3.129,0.0,0.0,0.0,0.0,0.0,0.0,0.0,0.0,0.0,0.0,0.0,0.0,0.0,0.0,0.0,0.0,0.0,0.0,0.0,0.0,0.0,0.0,0.0,0.0,0.0,0.0,0.0,0.0,-2.9533,-3.0323,-3.1993,0.0,0.0,0.0,0.0,0.0,0.0,0.0,0.0,0.0,0.0,-4.0292,-4.0273,-4.0142,0.0,0.0,-3.8931,-3.7707,-3.8527,-3.6401,-3.4401,-3.3554,-3.2517,0.0,0.0,0.0,0.0,0.0,0.0,0.0,0.0,0.0,0.0,0.0,0.0,0.0,0.0,0.0,0.0,0.0,0.0,0.0,0.0,0.0,0.0,0.0,0.0,0.0,0.0,0.0,0.0,0.0,0.0,0.0,0.0,0.0,0.0,0.0,0.0,0.0,0.0,0.0,0.0,0.0,0.0,0.0,0.0,0.0,0.0,0.0,0.0,0.0,0.0,0.0,0.0,-2.9952,-3.1003,-3.2578,-3.3331,-3.3223,-3.3241,-3.2894,-3.2283,-3.2196,-3.122,0.0,0.0,0.0,0.0,0.0,0.0,0.0,0.0,0.0,0.0,0.0,0.0,0.0,0.0,0.0,0.0,0.0,0.0,0.0,0.0,0.0,0.0,0.0,0.0,0.0,0.0,0.0,0.0,-3.1063,-3.1853,-3.2854,0.0,0.0,0.0,0.0,0.0,0.0,0.0,0.0,0.0,0.0,-4.0199,-4.0104,-3.9755,-3.9684,-4.0279,-3.8383,-3.7268,-3.8411,-3.6002,-3.3931,-3.3732,0.0,0.0,0.0,0.0,0.0,0.0,0.0,0.0,0.0,0.0,0.0,0.0,0.0,0.0,0.0,0.0,0.0,0.0,0.0,0.0,0.0,0.0,0.0,0.0,0.0,0.0,0.0,0.0,0.0,0.0,0.0,0.0,0.0,0.0,0.0,0.0,0.0,0.0,0.0,0.0,0.0,0.0,0.0,0.0,0.0,0.0,0.0,0.0,0.0,0.0,0.0,0.0,0.0,-2.9432,-3.0998,-3.2578,-3.3208,-3.2844,-3.2811,-3.2518,-3.1948,-3.1912,-3.1059,-2.9245,0.0,0.0,0.0,0.0,0.0,0.0,0.0,0.0,0.0,0.0,0.0,0.0,0.0,0.0,0.0,0.0,0.0,0.0,0.0,0.0,0.0,0.0,0.0,0.0,0.0,0.0,-3.1156,-3.2491,-3.3313,0.0,0.0,0.0,0.0,0.0,0.0,0.0,0.0,0.0,0.0,-3.9265,-4.0123,-3.9662,-3.9,-3.8722,-3.9238,-3.7985,-3.7231,-3.798,-3.6778,-3.5617,0.0,0.0,0.0,0.0,0.0,0.0,0.0,0.0,0.0,0.0,0.0,0.0,0.0,0.0,0.0,0.0,0.0,0.0,0.0,0.0,0.0,0.0,0.0,0.0,0.0,0.0,0.0,-3.0705,-3.0155,0.0,0.0,0.0,0.0,0.0,0.0,0.0,0.0,0.0,0.0,0.0,-3.1906,-3.2437,0.0,0.0,0.0,0.0,0.0,0.0,0.0,0.0,0.0,0.0,0.0,0.0,-3.0459,-3.1039,-3.2578,-3.3208,-3.2811,-3.2795,-3.2519,-3.1912,-3.1894,-3.1076,-2.9314,0.0,0.0,0.0,0.0,0.0,0.0,0.0,0.0,0.0,0.0,0.0,0.0,0.0,0.0,0.0,0.0,0.0,0.0,0.0,0.0,0.0,0.0,0.0,0.0,0.0,-3.1548,0.0,0.0,0.0,0.0,0.0,0.0,0.0,0.0,0.0,0.0,0.0,-3.8313,-3.8251,-3.9621,-4.0204,-3.9036,-3.831,-3.7972,0.0,0.0,0.0,0.0,0.0,0.0,0.0,0.0,0.0,0.0,0.0,0.0,0.0,0.0,-3.2457,-3.1496,-3.1067,-3.0939,-3.1176,0.0,0.0,0.0,0.0,0.0,0.0,0.0,0.0,0.0,0.0,0.0,0.0,0.0,0.0,-3.1531,0.0,-3.0173,0.0,0.0,0.0,0.0,0.0,0.0,0.0,0.0,-3.2564,-3.2862,-3.277,-3.3269,-3.3194,0.0,-3.2089,-3.1546,0.0,0.0,0.0,0.0,0.0,0.0,0.0,0.0,-3.0672,-3.0872,-3.2382,-3.2975,-3.2502,-3.2485,-3.2266,-3.1803,-3.1597,-3.0956,-2.9814,-2.8081,-2.7274,0.0,0.0,0.0,0.0,0.0,0.0,0.0,0.0,0.0,0.0,0.0,0.0,0.0,0.0,0.0,0.0,0.0,0.0,0.0,0.0,0.0,0.0,0.0,-3.2334,0.0,0.0,0.0,0.0,0.0,0.0,0.0,0.0,0.0,-3.5971,-3.7863,-3.9091,-3.8854,-3.9602,-3.9696,-3.8385,0.0,0.0,0.0,0.0,0.0,0.0,0.0,-3.3943,-3.3831,-3.3364,-3.2955,-3.2854,-3.3081,-3.3293,-3.3293,0.0,0.0,-3.2108,-3.1744,-3.165,-3.1877,-3.176,-3.1523,-3.1327,-3.1016,-3.0555,0.0,0.0,0.0,0.0,0.0,0.0,0.0,0.0,-3.2968,-3.2601,0.0,-3.1678,0.0,0.0,0.0,0.0,0.0,0.0,0.0,0.0,-3.3341,-3.3671,-3.3587,-3.3534,-3.3448,-3.3393,-3.3357,-3.3357,-3.3158,-2.9481,0.0,0.0,0.0,0.0,0.0,0.0,-3.0093,-3.0603,-3.2045,-3.2502,-3.193,-3.1912,-3.182,-3.16,-3.1039,-3.0731,-3.0696,-2.9937,-2.9196,-2.8506,-2.773,0.0,0.0,0.0,0.0,0.0,0.0,0.0,0.0,0.0,0.0,0.0,0.0,0.0,0.0,0.0,0.0,0.0,0.0,0.0,0.0,-3.1028,0.0,0.0,0.0,0.0,0.0,0.0,0.0,0.0,0.0,0.0,-3.781,-3.8796,-3.9534,-3.9572,0.0,0.0,0.0,0.0,-3.5902,-3.5902,-3.5868,-3.5759,-3.552,-3.5174,-3.484,-3.4609,0.0,0.0,-3.3346,-3.3293,-3.3293,-3.3293,-3.3293,-3.3293,-3.3261,-3.275,-3.2529,-3.3087,-3.275,-3.2592,-3.3056,-3.254,-3.1899,-3.507,0.0,0.0,0.0,0.0,-3.3093,-3.3145,-3.3788,-3.3568,-3.3115,-3.2546,-3.1751,0.0,0.0,0.0,0.0,0.0,0.0,-3.2944,-3.2656,-3.3413,-3.3694,-3.3605,-3.3577,-3.3524,-3.3411,-3.3393,-3.3422,-3.3394,-3.1738,-3.0295,-2.9156,0.0,0.0,0.0,0.0,-3.1445,-3.135,-3.2295,-3.2502,-3.1912,-3.1894,-3.1785,-3.1617,-3.1447,-3.1399,-3.1472,-3.0748,-3.0248,-3.0024,-2.8782,0.0,0.0,0.0,0.0,0.0,0.0,0.0,0.0,0.0,0.0,0.0,0.0,0.0,0.0,0.0,0.0,0.0,0.0,0.0,-3.1186,-3.1903,-3.258,0.0,0.0,0.0,0.0,0.0,0.0,0.0,0.0,0.0,-3.8912,-3.9373,-3.9562,0.0,0.0,-3.8262,-3.7681,-3.6425,-3.5543,-3.5543,0.0,0.0,0.0,-3.4658,-3.4333,-3.4259,-3.3771,-3.3372,-3.3309,-3.3293,-3.3293,-3.3293,-3.3293,-3.3293,-3.3293,-3.3151,-3.3072,-3.3245,-3.3135,-3.3072,-3.3198,-3.2583,-3.1862,-3.6123,-3.5126,-3.4284,-3.3969,-3.3943,-3.3456,-3.3453,-3.3807,-3.3807,-3.3532,-3.3041,-3.2577,-3.1898,-3.1152,-3.1146,0.0,0.0,0.0,-3.355,-3.3091,-3.356,-3.3726,-3.3629,-3.3601,-3.3581,-3.3495,-3.3452,-3.3481,-3.3534,-3.2986,-3.2083,-3.0879,0.0,0.0,-2.9735,-3.1388,-3.2087,-3.178,-3.2389,-3.2504,-3.2038,-3.1912,-3.1819,-3.1673,-3.1673,-3.1727,-3.18,-3.1386,-3.0851,-3.0231,-2.9334,-2.8506,0.0,0.0,0.0,0.0,0.0,0.0,0.0,0.0,0.0,0.0,0.0,-2.6073,-2.4575,0.0,0.0,0.0,-2.935,-3.1201,-3.2778,-3.3213,0.0,0.0,0.0,0.0,0.0,0.0,0.0,-3.7458,-3.7759,-3.8147,-3.8967,-3.9314,-3.9581,-3.9823,-3.8792,-3.791,-3.7677,0.0,-3.5646,-3.5646,-3.561,-3.5449,-3.5071,-3.4607,-3.4237,-3.3845,-3.3529,-3.3309,-3.3293,-3.3293,-3.3293,-3.3293,-3.3293,-3.3293,-3.3293,-3.3293,-3.3293,-3.3293,-3.3293,-3.3203,-3.2924,-3.2123,-3.1388,-3.6718,-3.663,-3.5762,-3.4864,-3.4029,-3.3947,-3.3868,-3.382,-3.382,-3.3807,-3.3807,-3.3807,-3.3385,-3.2693,-3.2693,0.0,0.0,-3.3458,-3.3807,-3.3788,-3.3739,-3.3698,-3.3698,-3.3629,-3.3605,-3.3605,-3.3534,-3.3534,-3.3605,-3.3477,-3.3114,-3.252,-3.1785,-3.1365,-3.1334,-3.2074,-3.2323,-3.2005,-3.2428,-3.2488,-3.2197,-3.193,-3.18,-3.18,-3.1748,-3.1714,-3.1714,-3.1645,-3.0955,-2.961,-2.9437,-2.911,-2.8403,0.0,0.0,0.0,0.0,0.0,0.0,0.0,0.0,0.0,0.0,0.0,0.0,0.0,0.0,0.0,-3.0108,0.0,-3.3862,-3.4726,0.0,0.0,0.0,-3.5784,-3.6926,-3.6865,-3.6959,-3.7593,0.0,0.0,0.0,0.0,-3.9447,-4.0135,-3.8759,-3.7629,-3.761,-3.6593,-3.5902,-3.5786,-3.6131,-3.6055,-3.5159,-3.479,-3.4356,-3.3499,-3.334,-3.3388,-3.3309,-3.3198,-3.3214,-3.3293,-3.323,-3.3135,-3.3198,-3.3119,-3.3135,-3.3072,-3.3151,-3.2966,-3.2175,-3.1401,-3.0657,-3.6718,-3.6625,-3.5813,-3.4927,-3.4092,-3.4061,-3.3985,-3.3868,-3.3868,-3.3842,-3.3807,-3.3807,-3.3697,-3.3513,-3.3513,-3.3513,-3.3532,-3.3715,-3.3807,-3.3788,-3.3793,-3.3753,-3.3698,-3.3684,-3.3661,-3.3605,-3.3591,-3.3619,-3.3671,-3.3661,-3.3579,-3.346,-3.329,-3.2815,-3.216,-3.2857,-3.3096,-3.2826,-3.2929,-3.2718,-3.2214,-3.1947,-3.18,-3.18,-3.1266,-3.0955,-3.0938,-3.0368,-2.9886,-2.9506,-2.8972,-2.8575,-2.8385,-2.6419,0.0,0.0,0.0,0.0,0.0,0.0,0.0,0.0,0.0,-2.764,-2.4979,0.0,-2.9937,0.0,-3.2087,-3.3884,-3.426,-3.5299,0.0,0.0,-3.7045,-3.7772,-3.9161,-3.8873,-3.8732,-3.9126,-3.9294,-3.9259,-3.9067,-3.8709,-3.8539,-3.8687,-3.7852,-3.7161,-3.6865,-3.5716,-3.4857,-3.4882,-3.4864,-3.4614,-3.4464,-3.4571,-3.4378,-3.3446,-3.3704,-3.3893,-3.3388,-3.2861,-3.2703,-3.3103,-3.2367,-3.2013,-3.2434,-3.2092,-3.176,-3.1719,-3.2139,-3.2288,-3.1435,-3.0644,-3.0005,-3.7034,-3.6643,-3.5844,-3.4965,-3.4148,-3.4111,-3.4018,-3.3947,-3.3908,-3.3868,-3.3842,-3.382,-3.3807,-3.3807,-3.3807,-3.3807,-3.3807,-3.3807,-3.3807,-3.3807,-3.3807,-3.3793,-3.3753,-3.3753,-3.3726,-3.3684,-3.3657,-3.3671,-3.3739,-3.3684,-3.3698,-3.3788,-3.3739,-3.3479,-3.3058,-3.3424,-3.3541,-3.3426,-3.3108,-3.2651,-3.2055,-3.1874,-3.1645,-3.1317,-3.1231,-3.0851,-3.0196,-3.0075,-2.973,-2.9041,-2.861,-2.8541,-2.8851,-2.7385,-2.6647,0.0,0.0,0.0,0.0,0.0,0.0,0.0,0.0,0.0,0.0,0.0,-3.1421,0.0,-3.3952,0.0,-3.6118,-3.6925,-3.7746,-3.8393,-3.8717,-3.9214,-4.0027,-3.9681,-3.9362,-3.9243,-3.8975,-3.8676,-3.8361,-3.798,-3.7582,-3.7268,-3.687,-3.653,-3.6326,-3.5522,-3.4988,-3.4988,-3.4906,-3.4677,-3.4284,-3.4117,-3.3911,-3.3462,-3.3593,-3.3719,-3.3356,-3.3008,-3.2861,-3.3139,-3.2422,-3.1609,-3.1527,-3.1378,-3.1103,-3.0875,-3.109,-3.1135,-3.0665,-3.0206,-2.9779,-3.7336,-3.6643,-3.5844,-3.4996,-3.4179,-3.4136,-3.4074,-3.4011,-3.3934,-3.3895,-3.3881,-3.3815,-3.3807,-3.3807,-3.3807,-3.3807,-3.3807,-3.3807,-3.3807,-3.3807,-3.3807,-3.3807,-3.3807,-3.3807,-3.3807,-3.3807,-3.3721,-3.3739,-3.3788,-3.3666,-3.3703,-3.3775,-3.3689,-3.3689,-3.3788,-3.3807,-3.3807,-3.3788,-3.3181,-3.2551,-3.193,-3.1893,-3.1544,-3.0904,-3.1283,-3.0886,-2.9592,-3.0075,-2.9782,-2.8506,-2.8506,-2.8834,-2.9437,-2.8799,-2.8353,0.0,-2.7532,0.0,0.0,0.0,0.0,0.0,0.0,0.0,0.0,-3.1633,-3.3301,-3.5015,-3.5516,-3.6452,-3.8197,-3.8731,-3.9208,-3.974,-3.991,-3.9926,-3.9817,-3.9572,-3.9184,-3.8497,-3.8218,-3.7788,-3.7268,-3.7036,-3.6704,-3.6191,-3.5959,-3.5827,-3.5819,-3.5531,-3.5298,-3.5413,-3.5437,-3.4883,-3.4238,-3.3762,-3.3451,-3.3356,-3.3451,-3.3388,-3.3324,-3.3087,-3.3055,-3.3166,-3.2412,-3.1498,-3.0616,-3.0746,-3.0677,-3.0148,-3.0093,-3.0053,-2.9878,-2.9806,-2.9562,-3.6835,-3.6643,-3.5826,-3.5008,-3.4216,-3.4185,-3.4136,-3.4055,-3.4011,-3.3921,-3.3815,-3.3807,-3.3807,-3.3807,-3.3807,-3.3807,-3.3807,-3.3807,-3.3807,-3.3807,-3.3807,-3.3807,-3.3807,-3.3807,-3.3807,-3.3807,-3.3775,-3.3793,-3.3807,-3.378,-3.378,-3.3807,-3.378,-3.378,0.0,0.0,0.0,0.0,-3.3408,-3.3016,-3.2619,-3.2335,-3.2003,-3.1577,-3.0524,0.0,-2.9523,-2.9092,-2.8696,-2.8437,-2.8972,0.0,0.0,0.0,0.0,0.0,0.0,0.0,0.0,0.0,0.0,0.0,-3.1551,-3.1072,-3.0258,-3.2544,-3.4481,-3.5423,-3.6158,-3.6971,-3.7899,-3.8597,-3.8802,-3.8396,-3.8853,-3.8946,-3.825,-3.8019,-3.7811,-3.7578,-3.7402,-3.7268,-3.7052,-3.6589,-3.6158,-3.5959,-3.5479,-3.5131,-3.5131,-3.4759,-3.4428,-3.4361,-3.4162,-3.3779,-3.3514,-3.3814,-3.3799,-3.353,-3.3783,-3.3846,-3.3356,-3.2345,-3.2105,-3.2905,-3.1348,-2.999,-3.033,-2.9983,-2.954,-2.9335,-2.9319,-2.9234,-2.9077,-2.9029,-2.8927,-3.7442,0.0,-3.6272,-3.5367,0.0,-3.4216,-3.4185,-3.4148,-3.4049,-3.3939,-3.3807,-3.3807,-3.3807,-3.3807,-3.3807,-3.3807,-3.3807,-3.3807,-3.3807,-3.3807,-3.3807,-3.3807,-3.3807,-3.3807,-3.3807,-3.3807,-3.3807,-3.3807,-3.3807,-3.3807,-3.3807,-3.3807,-3.3807,-3.3807,-3.3807,-3.3807,-3.3721,-3.355,-3.3214,-3.2874,-3.2553,-3.2231,-3.181,-3.1266,0.0,0.0,0.0,0.0,0.0,0.0,0.0,0.0,0.0,0.0,0.0,-2.9936,-2.9539,-2.957,-3.0179,-3.0172,-3.0758,-3.2175,-3.297,-3.3051,-3.2324,-3.3981,-3.5368,-3.6129,-3.6575,-3.71,-3.7838,-3.8261,-3.8311,-3.7973,-3.8179,-3.8156,-3.778,-3.7509,-3.7235,-3.6795,-3.6638,-3.6439,-3.6059,-3.5727,-3.5479,-3.5446,-3.5148,-3.4899,-3.4875,-3.4546,-3.4226,-3.3949,-3.371,-3.345,-3.3335,-3.3546,-3.3719,-3.3435,-3.3593,-3.364,-3.3356,-3.244,-3.1833,-3.1842,-3.0615,-2.9761,-2.9706,-2.939,-2.9114,-2.9114,-2.9114,-2.9045,-2.8905,-2.892,-2.8897,-3.8247,-3.6922,-3.6742,-3.5844,-3.442,-3.4284,-3.4185,-3.4161,0.0,0.0,0.0,-3.3807,-3.3807,-3.3807,-3.3807,-3.3807,-3.3807,-3.3807,-3.3807,-3.3807,-3.3807,-3.3807,-3.3807,-3.3807,-3.3807,-3.3807,-3.3807,-3.3807,-3.3807,-3.3807,-3.3807,-3.3807,-3.3807,-3.3807,-3.3807,-3.3807,-3.3638,-3.3306,-3.3093,-3.2829,-3.247,-3.2161,-3.1653,-3.0993,-3.137,-3.1007,-2.9782,-3.0334,-3.0386,-2.9765,-2.9834,-3.0196,-3.0834,-3.0904,-3.1108,-3.1584,-3.1557,-3.1462,-3.1351,-3.1407,-3.1785,-3.2632,-3.3816,-3.4556,-3.4675,-3.5245,-3.5943,-3.6745,-3.6677,-3.6891,-3.7635,-3.7702,-3.7652,-3.7533,-3.7499,-3.7461,-3.7278,-3.7075,-3.6611,-3.6087,-3.5867,-3.5595,-3.5065,-3.4949,-3.4899,-3.4899,-3.4916,-3.4899,-3.4875,-3.4667,-3.43,-3.3822,-3.3668,-3.3591,-3.3372,-3.3324,-3.3293,-3.3309,-3.3309,-3.3261,-3.3072,-3.2576,-3.1735,-3.0824,-3.025,-2.9746,-2.9256,-2.913,-2.9114,-2.9114,-2.9114,-2.9075,-2.8967,-2.9013,-2.9021,-3.8562,-3.7684,-3.6983,-3.6179,-3.525,-3.4525,-3.4117,-3.4036,-3.4011,-3.3939,-3.3807,-3.3807,-3.3807,-3.3807,-3.3807,-3.3807,-3.3807,-3.3807,-3.3807,0.0,-3.3807,-3.3807,-3.3807,-3.3807,-3.3807,-3.3807,-3.3807,-3.3807,-3.3807,-3.3807,-3.3807,-3.3807,-3.3807,-3.3807,-3.3807,-3.3807,-3.3638,-3.3321,-3.3555,-3.3476,-3.3172,-3.2844,-3.2466,-3.2056,-3.1254,-3.0783,-3.0541,-3.0627,-3.0662,-3.0541,-3.1127,-3.1524,-3.1627,-3.1627,-3.1696,-3.1764,-3.1653,-3.1559,-3.1498,-3.1995,-3.2866,-3.4053,-3.4392,-3.4759,-3.538,-3.5532,-3.5943,-3.6694,-3.6197,-3.6096,-3.6823,-3.6948,-3.6688,-3.6124,-3.642,-3.6478,-3.5823,-3.5582,-3.5414,-3.5179,-3.5072,-3.5065,-3.4949,-3.4899,-3.4899,-3.4899,-3.4899,-3.4899,-3.4875,-3.4683,-3.43,-3.3848,-3.3694,-3.3581,-3.3372,-3.3293,-3.3293,-3.3293,-3.3219,-3.2982,-3.2592,-3.1871,-3.1176,-3.0608,-2.9872,-2.9319,-2.9114,-2.9114,-2.9114,-2.9114,-2.9114,-2.9114,-2.9052,-2.9075,-2.9029,-3.8857,-3.8041,-3.7098,-3.6253,-3.5436,-3.4562,-3.4148,-3.4061,-3.4049,-3.3959,-3.382,-3.3807,-3.3807,-3.3807,-3.3807,-3.3807,-3.3807,-3.3807,-3.3807,-3.3807,-3.3807,-3.3807,-3.3807,-3.3807,-3.3807,-3.3807,-3.3807,-3.3807,-3.3807,-3.3807,-3.3807,-3.3807,-3.3807,-3.3807,-3.3807,-3.3807,-3.3721,-3.3564,-3.3361,-3.3108,-3.2749,-3.2437,-3.2179,-3.2037,-3.1528,-3.1301,-3.1282,-3.1318,-3.13,-3.1318,-3.161,-3.18,-3.18,-3.18,-3.18,-3.18,-3.169,-3.1578,-3.1481,-3.206,-3.2656,-3.3275,-3.4049,-3.4624,-3.4979,-3.5363,-3.5735,-3.6113,-3.5785,-3.5735,-3.6113,-3.6146,-3.6011,-3.5633,-3.5846,-3.5799,-3.5398,-3.5175,-3.5041,-3.4923,-3.4899,-3.4899,-3.4899,-3.4899,-3.4899,-3.4899,-3.4899,-3.4899,-3.4899,-3.4804,-3.4521,-3.4034,-3.3924,-3.3736,-3.3372,-3.3293,-3.3293,-3.3293,-3.2651,-3.2289,-3.2114,-3.1453,-3.0678,-3.0339,-2.9666,-2.9193,-2.9114,-2.9114,-2.9114,-2.9114,-2.9114,-2.9114,-2.9114,-2.9114,-2.9068,-3.9138,-3.8476,-3.7224,-3.6123,-3.5175,-3.4476,-3.4161,-3.4099,-3.4099,-3.3998,-3.3855,-3.3834,-3.3815,-3.3807,-3.3807,-3.3807,-3.3807,-3.3807,-3.3807,-3.3807,-3.3807,-3.3807,-3.3807,-3.3807,-3.3807,-3.3807,-3.3807,-3.3807,-3.3807,-3.3807,-3.3807,-3.3807,-3.3807,-3.3807,-3.3807,-3.3807,-3.378,-3.3666,-3.3166,-3.2797,-3.252,-3.2109,-3.1911,-3.1911,-3.1838,-3.18,-3.18,-3.18,-3.18,-3.18,-3.18,-3.18,-3.18,-3.18,-3.18,-3.1781,-3.1671,-3.1559,-3.1496,-3.1834,-3.2124,-3.231,-3.3359,-3.4066,-3.4269,-3.4776,-3.5278,-3.5532,-3.5616,-3.5616,-3.565,-3.5633,-3.5616,-3.56,-3.552,-3.5417,-3.5291,-3.5158,-3.5018,-3.4923,-3.4899,-3.4899,-3.4899,-3.4899,-3.4899,-3.4899,-3.4899,-3.4899,-3.4899,-3.4899,-3.4707,-3.4349,-3.4151,-3.3873,-3.3398,-3.3293,-3.323,-3.3119,-3.2086,-3.1583,-3.1536,-3.0837,-3.0188,-2.9951,-2.9493,-2.9161,-2.9114,-2.9114,-2.9114,-2.9114,-2.9114,-2.9114,-2.9114,-2.9114,-2.9114,-3.9458,-3.9108,-3.7479,-3.5757,-3.442,-3.4253,-3.4161,-3.4111,-3.4099,-3.4061,-3.3972,-3.3939,-3.3855,-3.3807,-3.3807,-3.3807,-3.3807,-3.3807,-3.3807,-3.3807,-3.3807,-3.3807,-3.3807,-3.3807,-3.3807,-3.3807,-3.3807,-3.3807,-3.3807,-3.3807,-3.3807,-3.3807,-3.3807,-3.3807,-3.3807,-3.3807,-3.3652,-3.3364,-3.3291,-3.3247,-3.3169,-3.2569,-3.2249,-3.2249,-3.1965,-3.18,-3.18,-3.18,-3.18,-3.18,-3.18,-3.18,-3.18,-3.18,-3.18,-3.18,-3.1671,-3.1523,-3.1334,-3.132,-3.1599,-3.2226,-3.2446,-3.2831,-3.344,-3.3592,-3.418,-3.5177,-3.5566,-3.5549,-3.5616,-3.5616,-3.5616,-3.56,-3.5458,-3.5308,-3.5291,-3.5081,-3.4923,-3.4923,-3.4899,-3.4899,-3.4899,-3.4899,-3.4899,-3.4899,-3.4899,-3.4899,-3.4899,-3.4899,-3.4804,-3.4497,-3.4275,-3.3882,-3.3435,-3.3293,-3.3072,-3.2519,-3.1724,-3.1077,-3.0644,-3.041,-3.003,-2.9501,-2.924,-2.913,-2.9114,-2.9114,-2.9114,-2.9114,-2.9114,-2.9114,-2.9114,-2.9114,-2.9114,-3.9824,-3.9566,-3.8208,-3.6609,-3.5027,-3.4439,-3.4185,-3.4161,-3.4161,-3.4124,-3.4061,-3.4036,-3.3959,-3.3855,-3.3855,-3.3829,-3.3807,-3.3807,-3.3807,-3.3807,-3.3807,-3.3807,-3.3807,-3.3807,-3.3807,-3.3807,-3.3807,-3.3807,-3.3807,-3.3807,-3.3807,-3.3807,-3.3807,-3.3807,-3.3807,-3.3807,-3.3739,-3.3597,-3.3408,-3.3288,-3.3214,-3.2653,-3.2197,-3.2002,-3.1856,-3.18,-3.18,-3.18,-3.18,-3.18,-3.18,-3.18,-3.18,-3.18,-3.1764,-3.169,-3.1523,-3.1408,-3.1315,-3.1232,-3.1326,-3.1633,-3.2073,-3.2446,-3.275,-3.3136,-3.3711,-3.4197,-3.4687,-3.5115,-3.5498,-3.56,-3.5616,-3.56,-3.5509,-3.5435,-3.5314,-3.5198,-3.5088,-3.4947,-3.4899,-3.4899,-3.4899,-3.4899,-3.4899,-3.4899,-3.4899,-3.4899,-3.4899,-3.4899,-3.4763,-3.448,-3.4056,-3.3721,-3.3515,-3.3372,-3.3013,-3.2272,-3.0986,-2.9875,-3.0163,-2.9753,-2.9422,-2.913,-2.913,-2.9114,-2.9114,-2.9114,-2.9114,-2.9114,-2.9114,-2.9114,-2.9114,-2.9114,-2.9114,-4.0081,-3.9747,-3.8754,-3.7224,-3.5473,-3.4841,-3.442,-3.4216,-3.4216,-3.4173,-3.4136,-3.4124,-3.4061,-3.3959,-3.3934,-3.3881,-3.3829,-3.3815,-3.3802,-3.3807,-3.3807,-3.3807,-3.3807,-3.3807,-3.3807,-3.3807,-3.3807,-3.3807,-3.3807,-3.3807,-3.3807,-3.3807,-3.3807,-3.3807,-3.3807,-3.3807,-3.3807,-3.3793,-3.3569,-3.3394,-3.3262,-3.283,-3.2369,-3.1983,-3.1855,-3.18,-3.18,-3.18,-3.18,-3.18,-3.18,-3.18,-3.18,-3.1781,-3.169,-3.1523,-3.1389,-3.1295,-3.1274,-3.1213,-3.119,-3.1224,-3.1735,-3.2022,-3.209,-3.2476,-3.2865,-3.3152,-3.3592,-3.4218,-3.5143,-3.5295,-3.5363,-3.5532,-3.5577,-3.552,-3.5331,-3.5268,-3.5152,-3.4947,-3.4899,-3.4899,-3.4899,-3.4899,-3.4899,-3.4899,-3.4899,-3.4899,-3.4899,-3.4883,-3.4761,-3.4379,-3.3775,-3.3469,-3.3471,-3.3064,-3.2657,-3.1729,-3.0244,-2.9408,-2.9801,-2.9328,-2.9114,-2.913,-2.9114,-2.9114,-2.9114,-2.9114,-2.9114,-2.9114,-2.9114,-2.9114,-2.9114,-2.9114,-2.9114,-4.0196,-4.0005,-3.8833,-3.7236,-3.551,-3.5448,-3.4934,-3.4216,-3.4216,-3.4197,-3.4185,-3.4185,-3.4161,-3.4086,-3.4036,-3.3959,-3.3913,-3.3895,-3.3855,-3.382,-3.382,-3.3807,-3.3807,-3.3807,-3.3807,-3.3807,-3.3807,-3.3807,-3.3807,-3.3807,-3.3807,-3.3807,-3.3807,-3.3807,-3.3807,-3.3807,-3.3807,-3.3807,-3.378,-3.3625,-3.335,-3.3276,-3.2908,-3.2335,-3.1966,-3.1838,-3.1818,-3.1818,-3.18,-3.18,-3.18,-3.18,-3.18,-3.169,-3.1523,-3.1353,-3.1315,-3.1274,-3.121,-3.121,-3.119,-3.119,-3.1275,-3.1275,-3.1343,-3.1444,-3.1749,-3.2293,-3.2429,-3.3038,-3.4235,-3.459,-3.4895,-3.543,-3.5549,-3.5452,-3.5331,-3.5198,-3.5065,-3.4947,-3.4899,-3.4899,-3.4899,-3.4899,-3.4899,-3.4899,-3.4899,-3.4899,-3.4883,-3.4883,-3.4551,-3.4001,-3.3557,-3.3288,-3.3,-3.2472,-3.1662,-3.0887,-3.0092,-2.9123,-2.9116,-2.9114,-2.9114,-2.9114,-2.9114,-2.9114,-2.9114,-2.9114,-2.9114,-2.9114,-2.9114,-2.9114,-2.9114,-2.9114,-2.9114,-4.0321,-4.0091,-3.8957,-3.7695,-3.6461,-3.5925,-3.514,-3.4246,-3.4216,-3.4216,-3.4216,-3.4216,-3.4185,-3.4142,-3.4136,-3.4074,-3.3972,-3.3959,-3.3921,-3.3868,-3.3855,-3.3847,-3.3807,-3.3807,-3.3807,-3.3807,-3.3807,-3.3807,-3.3807,-3.3807,-3.3807,-3.3807,-3.3807,-3.3807,-3.3807,-3.3807,-3.3807,-3.3807,-3.3807,-3.3716,-3.3592,-3.3422,-3.3169,-3.2939,-3.2619,-3.2335,-3.2126,-3.2109,-3.202,-3.1818,-3.18,-3.18,-3.1781,-3.1632,-3.15,-3.1426,-3.131,-3.1213,-3.121,-3.119,-3.119,-3.119,-3.119,-3.119,-3.119,-3.119,-3.1309,-3.1529,-3.1599,-3.207,-3.2987,-3.3918,-3.459,-3.4878,-3.529,-3.5447,-3.5337,-3.5245,-3.5135,-3.497,-3.4899,-3.4899,-3.4923,-3.4923,-3.4899,-3.4899,-3.4899,-3.4849,-3.4783,-3.4518,-3.4054,-3.3707,-3.2904,-3.2204,-3.2153,-3.1692,-3.1086,-3.0513,-2.9848,-2.9336,-2.9123,-2.916,-2.9167,-2.9167,-2.916,-2.9137,-2.9137,-2.9114,-2.9114,-2.9114,-2.9114,-2.9114,-2.9114,-2.9137,-2.9137,-4.0319,-3.9986,-3.9294,-3.8327,-3.7241,-3.6424,-3.5544,-3.4618,-3.4327,-3.4216,-3.4216,-3.4216,-3.4216,-3.4216,-3.4216,-3.4161,-3.4074,-3.4049,-3.3979,-3.3934,-3.3952,-3.3895,-3.3829,-3.3829,-3.3815,-3.382,-3.3807,-3.3807,-3.3807,-3.3807,-3.3807,-3.3807,-3.3807,-3.3807,-3.3807,-3.3807,-3.3807,-3.3807,-3.3807,-3.3807,-3.378,-3.3597,-3.3484,-3.3437,-3.3243,-3.2842,-3.2318,-3.2214,-3.2037,-3.1837,-3.18,-3.1781,-3.1727,-3.1614,-3.15,-3.1426,-3.1327,-3.123,-3.119,-3.119,-3.119,-3.119,-3.119,-3.119,-3.119,-3.119,-3.119,-3.119,-3.1207,-3.1464,-3.2022,-3.3034,-3.3863,-3.4167,-3.481,-3.5138,-3.5002,-3.5157,-3.5131,-3.4958,-3.4913,-3.4913,-3.4854,-3.4665,-3.4558,-3.4535,-3.4369,-3.4187,-3.4087,-3.3806,-3.3309,-3.3077,-3.2293,-3.1643,-3.1358,-3.0988,-3.0681,-3.0163,-2.9959,-2.9489,-2.9247,-2.9252,-2.9243,-2.922,-2.9213,-2.9167,-2.9144,-2.9137,-2.9114,-2.9137,-2.9114,-2.9114,-2.916,-2.919,-2.9236,-4.0239,-3.9882,-3.98,-3.9048,-3.7859,-3.7032,-3.6217,-3.5361,-3.4544,-3.4216,-3.4216,-3.4216,-3.4216,-3.4216,-3.4216,-3.4197,-3.4173,-3.4124,-3.4061,-3.4011,-3.3998,-3.3978,-3.3895,-3.3881,-3.386,-3.3807,-3.3807,-3.3807,-3.3807,-3.3807,-3.3807,-3.3807,-3.3807,-3.3807,-3.3807,-3.3807,-3.3807,-3.3807,-3.3807,-3.3807,-3.3807,-3.378,-3.3766,-3.3762,-3.3707,-3.3258,-3.2352,-3.2055,-3.1911,-3.1838,-3.1818,-3.1727,-3.1635,-3.1596,-3.1523,-3.137,-3.1312,-3.1254,-3.121,-3.119,-3.119,-3.119,-3.119,-3.119,-3.119,-3.119,-3.119,-3.119,-3.119,-3.1241,-3.1379,-3.2039,-3.2801,-3.3355,-3.4134,-3.4396,-3.4454,-3.4816,-3.5168,-3.4858,-3.4735,-3.4844,-3.4688,-3.4187,-3.3829,-3.3713,-3.3348,-3.3,-3.3017,-3.2845,-3.2398,-3.1929,-3.1565,-3.1217,-3.0752,-3.0349,-3.0136,-2.9902,-2.9863,-2.9649,-2.9531,-2.9522,-2.9522,-2.9515,-2.938,-2.9335,-2.9335,-2.9305,-2.9259,-2.9236,-2.919,-2.9213,-2.9305,-2.9403,-2.9448,-4.0414,-4.0274,-4.0294,-3.9557,-3.8335,-3.7513,-3.6573,-3.5448,-3.4569,-3.4216,-3.4216,-3.4216,-3.4216,-3.4216,-3.4216,-3.4216,-3.4216,-3.4154,-3.4117,-3.4074,-3.4023,-3.3959,-3.3895,-3.3842,-3.3815,-3.382,-3.3807,-3.3807,-3.3807,-3.3807,-3.3807,-3.3807,-3.3807,-3.3807,-3.3807,-3.3807,-3.3807,-3.3807,-3.3807,-3.3807,-3.3807,-3.3807,-3.3807,-3.3793,-3.3564,-3.3169,-3.2684,-3.2553,-3.2386,-3.2144,-3.1929,-3.1781,-3.1726,-3.1614,-3.15,-3.1443,-3.1308,-3.1213,-3.121,-3.119,-3.119,-3.119,-3.119,-3.119,-3.119,-3.119,-3.119,-3.119,-3.119,-3.119,-3.1309,-3.187,-3.2564,-3.3339,-3.3609,-3.3912,-3.4046,-3.384,-3.3744,-3.3997,-3.3703,-3.3421,-3.3383,-3.31,-3.3066,-3.305,-3.2785,-3.2602,-3.2602,-3.2166,-3.1951,-3.1631,-3.125,-3.0886,-3.0613,-3.0422,-3.0279,-3.0092,-3.0006,-2.9897,-2.9793,-2.9793,-2.981,-2.9722,-2.9627,-2.9538,-2.9499,-2.9477,-2.9425,-2.9477,-2.9544,-2.9566,-2.9589,-2.9633,-2.9716,-4.0457,-4.04,-4.04,-3.9889,-3.8976,-3.8209,-3.7165,-3.6029,-3.5165,-3.4565,-3.4277,-3.4216,-3.4216,-3.4216,-3.4216,-3.4216,-3.4216,-3.4216,-3.4185,-3.4136,-3.4099,-3.4023,-3.3934,-3.3847,-3.3807,-3.3807,-3.3807,-3.3807,-3.3807,-3.3807,-3.3807,-3.3807,-3.3807,-3.3807,-3.3807,-3.3807,-3.3807,-3.3807,-3.3807,-3.3807,-3.3807,-3.3807,-3.3807,-3.378,-3.3592,-3.3317,-3.2999,-3.2874,-3.2586,-3.2179,-3.1911,-3.18,-3.1727,-3.1596,-3.15,-3.1406,-3.131,-3.123,-3.121,-3.119,-3.119,-3.119,-3.119,-3.119,-3.119,-3.119,-3.119,-3.119,-3.119,-3.119,-3.1258,-3.1582,-3.2205,-3.2916,-3.3271,-3.3486,-3.3678,-3.3212,-3.2846,-3.3062,-3.2884,-3.2636,-3.247,-3.2315,-3.2299,-3.2282,-3.205,-3.1885,-3.1802,-3.1449,-3.1317,-3.1168,-3.0886,-3.0638,-3.0539,-3.0468,-3.0426,-3.0321,-3.0215,-3.0092,-3.0006,-3.0092,-3.0135,-2.9957,-2.9826,-2.97,-2.9655,-2.9633,-2.9611,-2.9728,-2.9837,-2.975,-2.9705,-2.9892,-2.9957,-4.0381,-4.0233,-4.0223,-4.0072,-3.969,-3.8912,-3.7934,-3.6942,-3.6103,-3.5203,-3.4428,-3.4269,-3.4245,-3.4233,-3.4221,-3.4216,-3.4216,-3.4216,-3.4216,-3.4197,-3.4173,-3.4105,-3.3985,-3.3868,-3.3847,-3.3847,-3.3834,-3.382,-3.3815,-3.3807,-3.3807,-3.3807,-3.3807,-3.3807,-3.3807,-3.3807,-3.3807,-3.3807,-3.3807,-3.3807,-3.3807,-3.3807,-3.3807,-3.3807,-3.378,-3.3592,-3.3258,-3.2923,-3.2436,-3.1893,-3.18,-3.1744,-3.1617,-3.1579,-3.1485,-3.1315,-3.1312,-3.1252,-3.121,-3.119,-3.119,-3.119,-3.119,-3.119,-3.119,-3.119,-3.119,-3.119,-3.119,-3.119,-3.1207,-3.1413,-3.1732,-3.2276,-3.284,-3.3123,-3.3053,-3.28,-3.2425,-3.2165,-3.2326,-3.2387,-3.1883,-3.1658,-3.1548,-3.1449,-3.1068,-3.087,-3.077,-3.0754,-3.0572,-3.0522,-3.0555,-3.0539,-3.0489,-3.0489,-3.0447,-3.0426,-3.0342,-3.0279,-3.0215,-3.0284,-3.0347,-3.0194,-3.0022,-2.9897,-2.9837,-2.9875,-2.9897,-2.9984,-2.9968,-2.9859,-2.9789,-2.9863,-2.9763,-4.0473,-4.0433,-4.0425,-4.0285,-3.9986,-3.9233,-3.827,-3.7196,-3.6383,-3.5565,-3.4793,-3.4561,-3.4473,-3.4473,-3.4269,-3.4216,-3.4216,-3.4216,-3.4216,-3.4216,-3.4216,-3.4105,-3.4023,-3.3959,-3.3947,-3.3934,-3.3881,-3.3868,-3.3868,-3.3834,-3.382,-3.3807,-3.3807,-3.3807,-3.3807,-3.3807,-3.3807,-3.3807,-3.3807,-3.3807,-3.3807,-3.3807,-3.3807,-3.3807,-3.3807,-3.3606,-3.3276,-3.275,-3.2249,-3.1856,-3.1709,-3.1635,-3.1598,-3.1485,-3.1372,-3.1295,-3.1235,-3.1213,-3.119,-3.119,-3.119,-3.119,-3.119,-3.119,-3.119,-3.119,-3.119,-3.119,-3.119,-3.119,-3.1275,-3.165,-3.2056,-3.2239,-3.2373,-3.2383,-3.2194,-3.1608,-3.1243,-3.1586,-3.1388,-3.116,-3.1044,-3.0924,-3.0853,-3.0803,-3.0671,-3.0489,-3.0489,-3.0489,-3.0489,-3.0489,-3.0506,-3.0506,-3.0489,-3.0489,-3.0489,-3.0489,-3.0447,-3.0426,-3.0384,-3.0426,-3.0447,-3.0401,-3.0215,-3.007,-3.0172,-3.0215,-3.0236,-3.0199,-3.022,-3.0149,-2.9687,-2.951,-2.923,-4.0496,-4.0496,-4.0496,-4.0422,-4.0292,-3.9821,-3.8798,-3.7547,-3.6881,-3.5921,-3.4939,-3.452,-3.4439,-3.4416,-3.4269,-3.4216,-3.4216,-3.4216,-3.4216,-3.4216,-3.4216,-3.4136,-3.4061,-3.4023,-3.3998,-3.3998,-3.3941,-3.3934,-3.3915,-3.3868,-3.386,-3.3829,-3.382,-3.3807,-3.3807,-3.3807,-3.3807,-3.3807,-3.3807,-3.3807,-3.3807,-3.3807,-3.3807,-3.378,-3.368,-3.3394,-3.291,-3.2352,-3.2037,-3.1966,-3.182,-3.1653,-3.1559,-3.1447,-3.1349,-3.1291,-3.123,-3.119,-3.119,-3.119,-3.119,-3.119,-3.119,-3.119,-3.119,-3.119,-3.119,-3.119,-3.119,-3.119,-3.1241,-3.1599,-3.1819,-3.1799,-3.1692,-3.1607,-3.1586,-3.1115,-3.0945,-3.1087,-3.0929,-3.0572,-3.0551,-3.0547,-3.0489,-3.0506,-3.0555,-3.0489,-3.0489,-3.0489,-3.0489,-3.0489,-3.0489,-3.0489,-3.0489,-3.0489,-3.0489,-3.0489,-3.0489,-3.0489,-3.0489,-3.0489,-3.0489,-3.0464,-3.038,-3.0338,-3.038,-3.0422,-3.0401,-3.0405,-3.0468,-3.0174,-2.9612,-2.9065,-2.8787,-4.0496,-4.0496,-4.0496,-4.0496,-4.0489,-4.045,-3.9372,-3.7908,-3.7508,-3.6406,-3.5006,-3.4446,-3.4424,-3.4262,-3.434,-3.4245,-3.4197,-3.4216,-3.4216,-3.4216,-3.4216,-3.4161,-3.4111,-3.4074,-3.403,-3.4036,-3.4023,-3.4011,-3.3998,-3.3947,-3.3908,-3.3895,-3.386,-3.3802,-3.382,-3.382,-3.3807,-3.3807,-3.3807,-3.3807,-3.3807,-3.3807,-3.3807,-3.378,-3.3597,-3.3247,-3.2716,-3.2231,-3.2073,-3.2335,-3.1984,-3.1707,-3.1519,-3.1498,-3.1402,-3.1266,-3.121,-3.119,-3.119,-3.119,-3.119,-3.119,-3.119,-3.119,-3.119,-3.119,-3.119,-3.119,-3.119,-3.119,-3.119,-3.1241,-3.1275,-3.1326,-3.1176,-3.1069,-3.1015,-3.0995,-3.0955,-3.0912,-3.079,-3.0733,-3.0692,-3.0609,-3.0526,-3.0568,-3.0531,-3.0489,-3.0489,-3.0489,-3.0489,-3.0489,-3.0489,-3.0489,-3.0489,-3.0489,-3.0489,-3.0489,-3.0489,-3.0489,-3.0489,-3.0489,-3.0489,-3.0447,-3.0405,-3.0405,-3.0447,-3.0468,-3.0418,-3.0257,-3.0092,-2.9711,-2.9284,-2.8754,-2.8373,-4.0496,-4.0496,-4.0496,-4.0496,-4.0496,-4.0477,-3.9512,-3.7947,-3.7878,-3.684,-3.5517,-3.5062,-3.486,-3.4713,-3.4583,-3.4397,-3.4233,-3.4228,-3.4216,-3.4216,-3.4216,-3.4216,-3.4173,-3.4148,-3.4148,-3.4148,-3.4099,-3.4086,-3.4061,-3.4011,-3.3972,-3.3972,-3.3908,-3.3868,-3.3887,-3.3834,-3.3807,-3.3807,-3.3807,-3.3807,-3.3807,-3.3807,-3.3775,-3.3734,-3.3666,-3.3611,-3.339,-3.2908,-3.2651,-3.2519,-3.2056,-3.1632,-3.1519,-3.1426,-3.1329,-3.1249,-3.121,-3.121,-3.119,-3.121,-3.119,-3.119,-3.119,-3.119,-3.119,-3.119,-3.119,-3.119,-3.119,-3.119,-3.119,-3.119,-3.119,-3.119,-3.1171,-3.1151,-3.1131,-3.1015,-3.0952,-3.0912,-3.0892,-3.0871,-3.0851,-3.0733,-3.0671,-3.0651,-3.0589,-3.051,-3.0489,-3.0489,-3.0489,-3.0489,-3.0489,-3.0489,-3.0489,-3.0489,-3.0489,-3.0489,-3.0489,-3.0489,-3.0489,-3.0357,-3.0307,-3.0373,-3.0468,-3.0439,-3.0257,-3.0224,-3.0108,-2.9893,-2.9582,-2.9052,-2.8555,-2.821,-2.7827,-4.0496,-4.0496,-4.0496,-4.0496,-4.0496,-4.0477,-3.9554,-3.8185,-3.7894,-3.6922,-3.5573,-3.516,-3.501,-3.4908,-3.4791,-3.4626,-3.4404,-3.4264,-3.4216,-3.4216,-3.4216,-3.4216,-3.4216,-3.4216,-3.4216,-3.4179,-3.4154,-3.4148,-3.4136,-3.4086,-3.4049,-3.4049,-3.3972,-3.3921,-3.3908,-3.3855,-3.3847,-3.382,-3.3807,-3.3807,-3.3807,-3.3807,-3.3578,-3.339,-3.3317,-3.3211,-3.2779,-3.2519,-3.2352,-3.2231,-3.1948,-3.1653,-3.1559,-3.1485,-3.1389,-3.1346,-3.1271,-3.1252,-3.1235,-3.1213,-3.119,-3.119,-3.119,-3.119,-3.119,-3.119,-3.119,-3.119,-3.119,-3.119,-3.119,-3.119,-3.119,-3.119,-3.119,-3.119,-3.1171,-3.1092,-3.1032,-3.1032,-3.0992,-3.0955,-3.0895,-3.0834,-3.0753,-3.0712,-3.0671,-3.0593,-3.0489,-3.0489,-3.0489,-3.0489,-3.0489,-3.0489,-3.0489,-3.0489,-3.0489,-3.0489,-3.0489,-3.0489,-3.0489,-3.029,-3.0059,-3.0158,-3.0224,-2.9959,-2.981,-2.9777,-2.9582,-2.9185,-2.8738,-2.8243,-2.7862,-2.7663,-2.723,-4.0496,-4.0496,-4.0496,-4.0496,-4.0496,-4.0477,-3.9534,-3.8108,-3.7819,-3.6875,-3.5428,-3.5037,-3.4963,-3.4898,-3.485,-3.473,-3.4498,-3.4316,-3.4216,-3.4216,-3.4216,-3.4216,-3.4216,-3.4216,-3.4216,-3.4216,-3.4197,-3.4197,-3.4185,-3.4148,-3.4124,-3.4111,-3.4018,-3.3972,-3.3921,-3.3881,-3.386,-3.382,-3.3807,-3.3807,-3.3807,-3.3807,-3.3536,-3.324,-3.3121,-3.2952,-3.2568,-3.2266,-3.2038,-3.1948,-3.1856,-3.1746,-3.1654,-3.1598,-3.1559,-3.1462,-3.1349,-3.1293,-3.1254,-3.1232,-3.119,-3.119,-3.119,-3.119,-3.119,-3.119,-3.119,-3.119,-3.119,-3.119,-3.119,-3.119,-3.119,-3.119,-3.119,-3.119,-3.119,-3.119,-3.1171,-3.1171,-3.1112,-3.1055,-3.1015,-3.0955,-3.0855,-3.0773,-3.0733,-3.0675,-3.0593,-3.051,-3.0531,-3.051,-3.051,-3.0489,-3.0489,-3.0489,-3.0489,-3.0357,-3.0373,-3.0241,-3.0174,-2.9748,-2.9483,-2.9794,-2.981,-2.9479,-2.9201,-2.9069,-2.8807,-2.8392,-2.8078,-2.7713,-2.7431,-2.7166,-2.6717,-4.0496,-4.0496,-4.0496,-4.0496,-4.0496,-4.0496,-3.9546,-3.8161,-3.7951,-3.699,-3.5552,-3.5242,-3.5044,-3.4908,-3.4739,-3.4528,-3.4374,-3.4245,-3.4216,-3.4216,-3.4197,-3.4197,-3.4067,-3.4179,-3.4179,-3.4216,-3.4216,-3.4216,-3.4216,-3.4204,-3.4173,-3.4161,-3.4074,-3.3998,-3.3947,-3.39,-3.3829,-3.382,-3.3807,-3.3807,-3.3807,-3.3793,-3.3703,-3.3476,-3.3419,-3.3332,-3.3211,-3.2858,-3.2635,-3.2586,-3.2109,-3.1838,-3.1727,-3.1671,-3.1542,-3.1408,-3.1351,-3.1312,-3.1252,-3.121,-3.119,-3.119,-3.119,-3.119,-3.119,-3.119,-3.119,-3.119,-3.119,-3.119,-3.119,-3.119,-3.119,-3.119,-3.119,-3.119,-3.119,-3.119,-3.119,-3.119,-3.1171,-3.1151,-3.1112,-3.1035,-3.0975,-3.0895,-3.0855,-3.0834,-3.0773,-3.0712,-3.0671,-3.063,-3.0568,-3.0531,-3.0489,-3.0489,-3.0456,-3.0174,-3.0026,-2.9661,-2.9466,-2.8936,-2.8837,-2.9036,-2.9003,-2.8691,-2.8475,-2.8326,-2.8011,-2.7597,-2.7398,-2.7249,-2.695,-2.6667,-2.6551,-4.0552,-4.0496,-4.0496,-4.0496,-4.0496,-4.0496,-3.9554,-3.8142,-3.7969,-3.7065,-3.5844,-3.5383,-3.5297,-3.5166,-3.4991,-3.4732,-3.4443,-3.4245,-3.4228,-3.4216,-3.4197,-3.3918,-3.3788,-3.3974,-3.3863,-3.3819,-3.3949,-3.4216,-3.4216,-3.4216,-3.4216,-3.4185,-3.4136,-3.4074,-3.4011,-3.3947,-3.3855,-3.3834,-3.3807,-3.3807,-3.3807,-3.3807,-3.3734,-3.355,-3.3361,-3.3196,-3.2937,-3.2568,-3.2283,-3.2197,-3.1948,-3.1819,-3.1781,-3.1744,-3.1617,-3.1485,-3.1426,-3.1368,-3.1271,-3.1213,-3.119,-3.119,-3.119,-3.119,-3.119,-3.119,-3.119,-3.119,-3.119,-3.119,-3.119,-3.119,-3.119,-3.119,-3.119,-3.119,-3.119,-3.119,-3.119,-3.119,-3.119,-3.1171,-3.119,-3.1131,-3.1092,-3.1032,-3.0992,-3.0952,-3.0932,-3.0871,-3.0794,-3.0733,-3.0671,-3.063,-3.0522,-3.0419,-3.0303,-3.0033,-2.9569,-2.9188,-2.8774,-2.8279,-2.8063,-2.8078,-2.7945,-2.7867,-2.763,-2.7464,-2.7133,-2.6884,-2.6785,-2.6669,-2.6402,-2.6185,-2.6185,-4.0648,-4.0542,-4.0512,-4.0496,-4.0477,-4.0304,-3.9392,-3.818,-3.7777,-3.6865,-3.5608,-3.5446,-3.5417,-3.5369,-3.5193,-3.4917,-3.4594,-3.4363,-3.4281,-3.4216,-3.4197,-3.3826,-3.3621,-3.3714,-3.3937,-3.3677,-3.3912,-3.4216,-3.4216,-3.4216,-3.4216,-3.4185,-3.4185,-3.4136,-3.4036,-3.3954,-3.3908,-3.3842,-3.3807,-3.3807,-3.3807,-3.3793,-3.3694,-3.3408,-3.3075,-3.2811,-3.2684,-3.2249,-3.2055,-3.2001,-3.1892,-3.18,-3.18,-3.18,-3.1744,-3.1634,-3.154,-3.1464,-3.1368,-3.1254,-3.1232,-3.1232,-3.121,-3.119,-3.119,-3.119,-3.119,-3.119,-3.119,-3.119,-3.119,-3.119,-3.119,-3.119,-3.119,-3.119,-3.119,-3.119,-3.119,-3.119,-3.119,-3.119,-3.119,-3.119,-3.1131,-3.1131,-3.1072,-3.1072,-3.1032,-3.0955,-3.0895,-3.0855,-3.0794,-3.0753,-3.0595,-3.0338,-3.0102,-2.9786,-2.9121,-2.8522,-2.8087,-2.7638,-2.7487,-2.7321,-2.7258,-2.716,-2.6889,-2.672,-2.6638,-2.6489,-2.6305,-2.6203,-2.6203,-2.6185,-2.6185,-4.0687,-4.0643,-4.053,-4.0496,-4.0323,-3.9727,-3.89,-3.793,-3.7212,-3.6365,-3.5493,-3.535,-3.5266,-3.5218,-3.5063,-3.4812,-3.4658,-3.4572,-3.4443,-3.4316,-3.4269,-3.4078,-3.3961,-3.4123,-3.3974,-3.3714,-3.3993,-3.4197,-3.4216,-3.4216,-3.4216,-3.4197,-3.4148,-3.4099,-3.4055,-3.3979,-3.3908,-3.3868,-3.3834,-3.3807,-3.3807,-3.3807,-3.378,-3.3652,-3.3361,-3.3108,-3.2908,-3.2453,-3.2161,-3.2126,-3.1929,-3.1818,-3.18,-3.18,-3.1744,-3.1653,-3.1579,-3.1559,-3.1462,-3.1368,-3.1274,-3.1274,-3.1232,-3.121,-3.119,-3.119,-3.119,-3.119,-3.119,-3.119,-3.119,-3.119,-3.119,-3.119,-3.119,-3.119,-3.119,-3.119,-3.119,-3.119,-3.119,-3.119,-3.119,-3.119,-3.119,-3.119,-3.1188,-3.1151,-3.1114,-3.1035,-3.0995,-3.0972,-3.0845,-3.0788,-3.0603,-3.0346,-2.9752,-2.9451,-2.8767,-2.7966,-2.7498,-2.7131,-2.6814,-2.6664,-2.6666,-2.6566,-2.6313,-2.6229,-2.6228,-2.6277,-2.6276,-2.6239,-2.622,-2.6203,-2.6222,-3.931,-3.9204,-3.9641,-3.9527,-3.9065,-3.8681,-3.8065,-3.7296,-3.6873,-3.625,-3.5608,-3.5417,-3.5316,-3.5209,-3.5098,-3.4945,-3.4792,-3.4761,-3.4711,-3.4553,-3.439,-3.3941,-3.334,-3.3704,-3.3918,-3.3361,-3.3714,-3.4197,-3.4216,-3.4216,-3.4216,-3.4216,-3.4191,-3.4136,-3.4037,-3.403,-3.3954,-3.3908,-3.3829,-3.3807,-3.3807,-3.3807,-3.3807,-3.3793,-3.3302,-3.3093,-3.289,-3.2386,-3.2055,-3.1984,-3.1855,-3.18,-3.18,-3.18,-3.1781,-3.1727,-3.1709,-3.1651,-3.15,-3.1443,-3.137,-3.1315,-3.1274,-3.1235,-3.1193,-3.119,-3.119,-3.119,-3.119,-3.119,-3.119,-3.119,-3.119,-3.119,-3.121,-3.119,-3.119,-3.119,-3.119,-3.119,-3.119,-3.119,-3.119,-3.119,-3.119,-3.119,-3.119,-3.1171,-3.1171,-3.1151,-3.1112,-3.1092,-3.0948,-3.0787,-3.0555,-3.0286,-2.9336,-2.8898,-2.8496,-2.7707,-2.707,-2.6652,-2.6484,-2.6434,-2.6551,-2.63,-2.5881,-2.5998,-2.628,-2.6313,-2.6312,-2.6346,-2.6364,-2.6415,-2.6399,-3.7821,-3.752,-3.8554,-3.8609,-3.7988,-3.7796,-3.7334,-3.6731,-3.6462,-3.6058,-3.5635,-3.5493,-3.541,-3.5273,-3.5209,-3.5072,-3.4879,-3.4841,-3.4831,-3.4761,-3.4496,-3.3883,-3.3585,-3.3817,-3.3633,-3.2388,-3.3707,-3.416,-3.4216,-3.4216,-3.4216,-3.4216,-3.4216,-3.4006,-3.3895,-3.3975,-3.4036,-3.3913,-3.3847,-3.382,-3.3807,-3.3807,-3.3807,-3.362,-3.327,-3.2921,-3.2827,-3.23,-3.1983,-3.1965,-3.1838,-3.18,-3.18,-3.18,-3.18,-3.1764,-3.1781,-3.1726,-3.1614,-3.1538,-3.1464,-3.137,-3.1295,-3.1274,-3.1252,-3.123,-3.123,-3.1232,-3.1232,-3.1213,-3.123,-3.1249,-3.1249,-3.123,-3.123,-3.1193,-3.1193,-3.119,-3.119,-3.119,-3.119,-3.119,-3.119,-3.119,-3.119,-3.119,-3.119,-3.119,-3.1123,-3.1055,-3.085,-3.0729,-3.0338,-3.0145,-2.9996,-2.9642,-2.8844,-2.832,-2.7934,-2.7531,-2.6908,-2.6639,-2.6555,-2.6521,-2.6504,-2.6369,-2.6134,-2.6233,-2.6315,-2.6166,-2.61,-2.6437,-2.6555,-2.6589,-2.6657,-3.6646,-3.5986,-3.752,-3.8067,-3.7849,-3.7135,-3.6757,-3.6526,-3.5904,-3.5615,-3.55,-3.55,-3.5493,-3.5451,-3.53,-3.5143,-3.4927,-3.471,-3.472,-3.4626,-3.4348,-3.4207,-3.402,-3.3989,-3.4079,-3.38,-3.4116,-3.4179,-3.4216,-3.4216,-3.4216,-3.4216,-3.4216,-3.3714,-3.3616,-3.3883,-3.4018,-3.3939,-3.386,-3.382,-3.3807,-3.3807,-3.3807,-3.3721,-3.348,-3.3243,-3.3214,-3.2553,-3.2161,-3.2144,-3.1929,-3.18,-3.18,-3.18,-3.18,-3.18,-3.1645,-3.1591,-3.1537,-3.1582,-3.1559,-3.1464,-3.1387,-3.1315,-3.1329,-3.1293,-3.1312,-3.1312,-3.1293,-3.1293,-3.1312,-3.1368,-3.1327,-3.1288,-3.1232,-3.1232,-3.1213,-3.119,-3.119,-3.119,-3.119,-3.119,-3.119,-3.119,-3.119,-3.119,-3.1157,-3.1157,-3.0835,-3.0683,-3.0345,-3.0057,-2.9533,-2.9279,-2.9093,-2.872,-2.8484,-2.7924,-2.74,-2.713,-2.6776,-2.664,-2.6607,-2.6539,-2.6505,-2.6455,-2.6421,-2.6471,-2.6368,-2.5966,-2.595,-2.6404,-2.6691,-2.6758,-2.6906,-3.6186,-3.5887,-3.6517,-3.6673,-3.6507,-3.6164,-3.6003,-3.5926,-3.5637,-3.5489,-3.5488,-3.55,-3.55,-3.5479,-3.5458,-3.5354,-3.5242,-3.5063,-3.4982,-3.4841,-3.4662,-3.4231,-3.4075,-3.4027,-3.3956,-3.3733,-3.3918,-3.4216,-3.4216,-3.4216,-3.4216,-3.4216,-3.4216,-3.4067,-3.3962,-3.3858,-3.3956,-3.3972,-3.3895,-3.3842,-3.3807,-3.3807,-3.3807,-3.378,-3.348,-3.3199,-3.2954,-3.2554,-3.2231,-3.202,-3.1892,-3.1837,-3.18,-3.18,-3.18,-3.1714,-3.1472,-3.1214,-3.1282,-3.147,-3.1671,-3.1578,-3.1483,-3.1406,-3.1406,-3.1406,-3.1423,-3.1406,-3.1334,-3.1334,-3.1426,-3.1387,-3.1329,-3.131,-3.1291,-3.1271,-3.1198,-3.1142,-3.1038,-3.097,-3.1089,-3.119,-3.119,-3.119,-3.119,-3.119,-3.1157,-3.1038,-3.0666,-3.014,-2.9753,-2.9364,-2.8891,-2.8484,-2.8298,-2.825,-2.8218,-2.7606,-2.6928,-2.6826,-2.6708,-2.6708,-2.664,-2.657,-2.6512,-2.6495,-2.6523,-2.6624,-2.6511,-2.6227,-2.6285,-2.6539,-2.6758,-2.6987,-2.7162,-3.5974,-3.5919,-3.5929,-3.5794,-3.5633,-3.5621,-3.5596,-3.5525,-3.5544,-3.554,-3.5515,-3.5514,-3.5494,-3.5488,-3.5424,-3.5403,-3.5308,-3.5166,-3.5149,-3.4991,-3.4706,-3.4273,-3.4046,-3.3949,-3.3974,-3.3566,-3.3807,-3.4216,-3.4216,-3.4216,-3.4216,-3.4216,-3.4179,-3.4067,-3.3739,-3.3759,-3.3808,-3.3943,-3.3908,-3.3855,-3.3807,-3.3807,-3.3712,-3.3652,-3.3394,-3.3154,-3.2844,-3.2504,-3.2249,-3.2037,-3.1893,-3.1818,-3.18,-3.18,-3.18,-3.1558,-3.1179,-3.0731,-3.0817,-3.1039,-3.14,-3.1259,-3.1492,-3.1487,-3.1521,-3.1502,-3.1538,-3.1519,-3.1447,-3.1428,-3.1519,-3.1483,-3.137,-3.1332,-3.1312,-3.1257,-3.108,-3.0954,-3.0818,-3.0717,-3.0683,-3.0362,-3.0328,-3.0277,-3.0717,-3.0598,-3.0294,-3.0294,-3.0277,-2.9683,-2.8973,-2.8619,-2.823,-2.7892,-2.757,-2.7555,-2.7504,-2.7318,-2.681,-2.6776,-2.6708,-2.6725,-2.6437,-2.6047,-2.6086,-2.6415,-2.6502,-2.6432,-2.6503,-2.6574,-2.6766,-2.7036,-2.735,-2.7589,-2.7547,-3.5996,-3.5996,-3.5945,-3.5825,-3.5717,-3.57,-3.5671,-3.5607,-3.5587,-3.5607,-3.5579,-3.5521,-3.5489,-3.5463,-3.5364,-3.5312,-3.5269,-3.5081,-3.5046,-3.5081,-3.4841,-3.4695,-3.4555,-3.4394,-3.4164,-3.4191,-3.4216,-3.4216,-3.4216,-3.4216,-3.4216,-3.4216,-3.416,-3.3937,-3.3145,-3.2945,-3.3272,-3.3874,-3.3868,-3.3847,-3.3807,-3.3807,-3.3666,-3.3526,-3.3422,-3.3229,-3.2923,-3.2668,-3.2453,-3.2283,-3.2091,-3.2002,-3.1983,-3.1911,-3.1893,-3.1877,-3.1078,-3.0663,-3.0611,-3.0556,-3.0557,-3.0678,-3.0914,-3.1152,-3.1426,-3.1512,-3.1478,-3.1358,-3.1492,-3.1562,-3.1615,-3.1509,-3.1346,-3.1204,-3.1134,-3.0872,-3.0628,-3.0453,-3.0268,-3.0165,-2.9568,-2.9094,-2.9094,-2.9264,-2.9939,-2.9991,-2.9551,-2.9448,-2.9583,-2.9176,-2.8398,-2.7926,-2.7588,-2.7402,-2.7114,-2.6911,-2.6809,-2.6708,-2.6775,-2.6859,-2.6875,-2.6923,-2.6465,-2.574,-2.6023,-2.6702,-2.6473,-2.6146,-2.6697,-2.7297,-2.7417,-2.7646,-2.7964,-2.7982,-2.7695,-3.6016,-3.5996,-3.5975,-3.5951,-3.5879,-3.5807,-3.5756,-3.5714,-3.5644,-3.5609,-3.561,-3.5566,-3.5534,-3.5483,-3.5449,-3.5379,-3.5354,-3.5201,-3.5166,-3.5149,-3.4927,-3.4771,-3.4678,-3.4556,-3.4356,-3.4245,-3.4209,-3.4233,-3.4216,-3.4257,-3.4221,-3.4216,-3.4257,-3.4067,-3.3881,-3.3728,-3.3914,-3.3974,-3.3947,-3.3913,-3.382,-3.3807,-3.3734,-3.3611,-3.3583,-3.339,-3.3108,-3.2876,-3.2765,-3.2619,-3.2403,-3.2403,-3.2352,-3.2266,-3.2231,-3.2019,-3.1247,-2.9798,-2.9406,-2.9148,-2.9554,-2.9834,-3.0161,-3.0349,-3.0247,-3.078,-3.0918,-3.1089,-3.1258,-3.1414,-3.1726,-3.1103,-3.0788,-3.0617,-3.0409,-2.998,-2.9703,-2.9634,-2.9496,-2.9458,-2.9099,-2.8877,-2.8826,-2.8436,-2.8894,-2.9248,-2.8894,-2.862,-2.8618,-2.8382,-2.7841,-2.7317,-2.6962,-2.6843,-2.6708,-2.6824,-2.6955,-2.7037,-2.7104,-2.7171,-2.7185,-2.7181,-2.698,-2.6524,-2.6763,-2.6971,-2.6988,-2.7133,-2.766,-2.8098,-2.7872,-2.7808,-2.7968,-2.7725,-2.7239,-3.5954,-3.5974,-3.5976,-3.6016,-3.5996,-3.5899,-3.5871,-3.5816,-3.5717,-3.5664,-3.5623,-3.5604,-3.5577,-3.5534,-3.5515,-3.5495,-3.5474,-3.5369,-3.5297,-3.5273,-3.5079,-3.4982,-3.487,-3.4663,-3.4609,-3.4458,-3.4424,-3.4458,-3.4491,-3.4458,-3.4469,-3.4487,-3.4374,-3.4356,-3.426,-3.4189,-3.4087,-3.4049,-3.3998,-3.3934,-3.3855,-3.3815,-3.3762,-3.362,-3.3536,-3.3419,-3.3196,-3.3075,-3.3047,-3.2874,-3.2827,-3.2811,-3.2715,-3.2668,-3.2586,-3.2243,-3.1085,-2.9429,-2.8423,-2.81,-2.8447,-2.866,-2.9127,-2.9489,-2.9558,-3.0023,-3.0196,-3.0402,-3.0762,-3.0918,-3.0953,-3.0314,-3.0141,-2.9969,-2.9727,-2.9298,-2.916,-2.9091,-2.88,-2.8764,-2.8525,-2.8456,-2.8404,-2.8014,-2.7844,-2.8082,-2.8234,-2.7995,-2.7808,-2.7622,-2.7487,-2.7114,-2.694,-2.7037,-2.7067,-2.7079,-2.7206,-2.7353,-2.7405,-2.7426,-2.7467,-2.7441,-2.7376,-2.7313,-2.7313,-2.7437,-2.7865,-2.8174,-2.8148,-2.7998,-2.7751,-2.7768,-2.7947,-2.7695,-2.7319,-3.5893,-3.5917,-3.5974,-3.5976,-3.5976,-3.5976,-3.5951,-3.589,-3.5841,-3.5739,-3.5693,-3.5641,-3.5607,-3.5584,-3.5528,-3.5411,-3.5308,-3.5294,-3.5172,-3.5105,-3.4718,-3.4773,-3.474,-3.468,-3.4318,-3.4546,-3.4658,-3.4462,-3.4755,-3.4641,-3.467,-3.4722,-3.4509,-3.4473,-3.4381,-3.4257,-3.4124,-3.4086,-3.403,-3.3972,-3.3908,-3.3913,-3.3762,-3.362,-3.3476,-3.3346,-3.3184,-3.3063,-3.3016,-3.2954,-3.2905,-3.2874,-3.2827,-3.2795,-3.2813,-3.2167,-3.0743,-2.9209,-2.7921,-2.7701,-2.7577,-2.7946,-2.8609,-2.9178,-2.9334,-2.9317,-2.9558,-2.9679,-2.9937,-2.9851,-2.973,-2.9575,-2.9403,-2.9265,-2.9127,-2.8921,-2.8836,-2.8596,-2.822,-2.793,-2.7555,-2.7418,-2.7453,-2.7197,-2.7317,-2.7368,-2.7624,-2.7623,-2.742,-2.7317,-2.7197,-2.7178,-2.7133,-2.7446,-2.7426,-2.7189,-2.7346,-2.7428,-2.7561,-2.7596,-2.7647,-2.7692,-2.7617,-2.7572,-2.7606,-2.7809,-2.8166,-2.8188,-2.802,-2.7869,-2.7883,-2.8,-2.8268,-2.8169,-2.7926,-3.5834,-3.5838,-3.5916,-3.5925,-3.5948,-3.5975,-3.5953,-3.5914,-3.5878,-3.5848,-3.5762,-3.5704,-3.5645,-3.5607,-3.5527,-3.5123,-3.4789,-3.4468,-3.4064,-3.3922,-3.3843,-3.3486,-3.3511,-3.374,-3.3411,-3.3448,-3.3693,-3.4226,-3.3866,-3.4053,-3.4446,-3.4344,-3.4431,-3.4393,-3.4279,-3.4203,-3.4117,-3.4074,-3.4012,-3.4036,-3.3985,-3.3991,-3.3842,-3.373,-3.3675,-3.3564,-3.3494,-3.3451,-3.3451,-3.348,-3.3494,-3.3451,-3.3154,-3.2867,-3.2497,-3.0861,-2.9867,-2.8997,-2.807,-2.7686,-2.7585,-2.7524,-2.7957,-2.7815,-2.804,-2.8471,-2.8937,-2.9058,-2.9196,-2.9196,-2.9196,-2.9076,-2.8818,-2.8612,-2.8424,-2.8218,-2.8115,-2.8012,-2.7669,-2.7534,-2.7141,-2.7125,-2.7057,-2.7075,-2.7178,-2.7042,-2.7026,-2.7129,-2.718,-2.7108,-2.7168,-2.7164,-2.7288,-2.7595,-2.7289,-2.7018,-2.7303,-2.7504,-2.7694,-2.7845,-2.7933,-2.7974,-2.7854,-2.7881,-2.7994,-2.8156,-2.8401,-2.8335,-2.8206,-2.8331,-2.837,-2.8453,-2.851,-2.8375,-2.8304,-3.5772,-3.5762,-3.5836,-3.5882,-3.5899,-3.5975,-3.5975,-3.5949,-3.5929,-3.5893,-3.5829,-3.5781,-3.5745,-3.56,-3.522,-3.4729,-3.4287,-3.3821,-3.343,-3.3218,-3.2814,-3.2894,-3.2928,-3.2956,-3.2953,-3.2893,-3.321,-3.3931,-3.354,-3.3923,-3.4397,-3.4524,-3.4431,-3.4127,-3.3915,-3.3777,-3.3722,-3.3788,-3.3895,-3.4043,-3.4061,-3.4036,-3.3998,-3.3947,-3.3921,-3.3887,-3.3847,-3.3834,-3.3807,-3.3807,-3.3807,-3.3739,-3.3385,-3.2998,-3.2161,-3.0728,-2.9905,-2.9096,-2.8257,-2.794,-2.7869,-2.7797,-2.7672,-2.7652,-2.7625,-2.7894,-2.8158,-2.8351,-2.8523,-2.8627,-2.8644,-2.861,-2.8282,-2.7954,-2.7678,-2.7385,-2.7351,-2.7351,-2.7284,-2.7235,-2.7186,-2.7154,-2.7138,-2.7122,-2.7122,-2.7121,-2.7087,-2.7073,-2.719,-2.7235,-2.7353,-2.7472,-2.756,-2.771,-2.7348,-2.7255,-2.7634,-2.7954,-2.8073,-2.8214,-2.8268,-2.8281,-2.8214,-2.8303,-2.8422,-2.8523,-2.8536,-2.8562,-2.8505,-2.86,-2.86,-2.8574,-2.8549,-2.8453,-2.8453,-3.5709,-3.5717,-3.5775,-3.5834,-3.5893,-3.5972,-3.5976,-3.5996,-3.5976,-3.5973,-3.5916,-3.5896,-3.5797,-3.5424,-3.4835,-3.423,-3.3641,-3.3091,-3.2646,-3.2686,-3.2333,-3.2237,-3.2275,-3.2654,-3.2294,-3.2761,-3.3219,-3.342,-3.3757,-3.3904,-3.4086,-3.4737,-3.4502,-3.4078,-3.359,-3.3515,-3.3395,-3.3119,-3.35,-3.3778,-3.4018,-3.4062,-3.4,-3.3998,-3.3947,-3.3895,-3.3887,-3.3847,-3.3807,-3.3807,-3.3807,-3.3793,-3.3447,-3.2675,-3.1724,-3.0812,-2.9767,-2.8866,-2.8177,-2.7858,-2.7897,-2.7908,-2.8006,-2.7757,-2.7581,-2.7587,-2.7836,-2.7987,-2.8178,-2.8213,-2.823,-2.8023,-2.7729,-2.7608,-2.7453,-2.7315,-2.7315,-2.7315,-2.7299,-2.725,-2.725,-2.7235,-2.7235,-2.7235,-2.7202,-2.7234,-2.7217,-2.7119,-2.7182,-2.731,-2.7476,-2.7663,-2.7736,-2.7855,-2.7964,-2.795,-2.8224,-2.8443,-2.8422,-2.8492,-2.8487,-2.8543,-2.8618,-2.86,-2.8556,-2.8574,-2.8587,-2.86,-2.86,-2.86,-2.86,-2.86,-2.8562,-2.8505,-2.8518,-3.5707,-3.5718,-3.5713,-3.5772,-3.5834,-3.5893,-3.5924,-3.5926,-3.5976,-3.5976,-3.5971,-3.5875,-3.552,-3.4927,-3.4515,-3.3805,-3.2609,-3.227,-3.167,-3.1355,-3.1197,-3.1321,-3.1078,-3.1596,-3.1398,-3.1283,-3.1762,-3.2759,-3.2897,-3.3024,-3.328,-3.3828,-3.3865,-3.3686,-3.327,-3.3261,-3.3109,-3.2503,-3.2512,-3.3237,-3.3861,-3.3597,-3.3401,-3.3777,-3.3972,-3.3908,-3.3887,-3.382,-3.3807,-3.3807,-3.3807,-3.3666,-3.34,-3.1895,-3.0897,-3.013,-2.9198,-2.8422,-2.8014,-2.78,-2.78,-2.7657,-2.7615,-2.7496,-2.7452,-2.7539,-2.7646,-2.7771,-2.7815,-2.7816,-2.7764,-2.7505,-2.7315,-2.7315,-2.7315,-2.7315,-2.7315,-2.7315,-2.7315,-2.7315,-2.7315,-2.7315,-2.7315,-2.7315,-2.7315,-2.7299,-2.7282,-2.7264,-2.7327,-2.7436,-2.7567,-2.7725,-2.7811,-2.7954,-2.8201,-2.8391,-2.8533,-2.8469,-2.8352,-2.8487,-2.8687,-2.8687,-2.8675,-2.8662,-2.8632,-2.865,-2.8625,-2.86,-2.86,-2.8612,-2.86,-2.86,-2.86,-2.8562,-2.8574,-3.5382,-3.5096,-3.5514,-3.5512,-3.5331,-3.5678,-3.588,-3.5916,-3.5929,-3.5956,-3.5995,-3.5891,-3.5452,-3.4563,-3.4143,-3.3274,-3.1918,-3.1441,-3.1112,-3.0651,-3.0436,-3.048,-3.0578,-3.0746,-3.0669,-3.0577,-3.1309,-3.199,-3.215,-3.2371,-3.2721,-3.3052,-3.3222,-3.3222,-3.2805,-3.273,-3.2635,-3.1784,-3.1498,-3.2071,-3.3224,-3.3153,-3.3366,-3.3864,-3.3979,-3.3897,-3.3887,-3.3834,-3.3834,-3.3847,-3.386,-3.3167,-3.2624,-3.1628,-3.0822,-3.0089,-2.9232,-2.8281,-2.8106,-2.8,-2.7971,-2.7933,-2.8045,-2.8246,-2.7922,-2.7993,-2.778,-2.7831,-2.7569,-2.7539,-2.754,-2.7351,-2.7332,-2.7315,-2.7315,-2.7315,-2.7315,-2.7315,-2.7315,-2.7315,-2.7315,-2.7315,-2.7315,-2.7315,-2.7362,-2.7529,-2.7481,-2.7539,-2.7602,-2.7617,-2.773,-2.7826,-2.7954,-2.812,-2.836,-2.8507,-2.8596,-2.8495,-2.8378,-2.8538,-2.8761,-2.8749,-2.8737,-2.8737,-2.8724,-2.8712,-2.8687,-2.865,-2.865,-2.8644,-2.8637,-2.86,-2.86,-2.86,-2.86,-3.4578,-3.4185,-3.4938,-3.5018,-3.4613,-3.5256,-3.5699,-3.5832,-3.589,-3.5947,-3.5917,-3.584,-3.5312,-3.4467,-3.3573,-3.2677,-3.1846,-3.1147,-3.0691,-3.0583,-3.0509,-3.0453,-3.0422,-3.045,-3.0386,-3.0522,-3.1037,-3.1482,-3.1795,-3.1844,-3.192,-3.2298,-3.2489,-3.2603,-3.1779,-3.1648,-3.181,-3.1033,-3.0724,-3.0872,-3.1713,-3.2608,-3.3034,-3.3449,-3.3753,-3.3677,-3.3594,-3.3556,-3.3537,-3.3477,-3.3318,-3.2747,-3.2072,-3.1323,-3.0882,-3.0143,-2.9381,-2.8882,-2.8767,-2.8664,-2.8719,-2.8839,-2.901,-2.8815,-2.8401,-2.8164,-2.7957,-2.7727,-2.7438,-2.7378,-2.7395,-2.7333,-2.7332,-2.7315,-2.7315,-2.7315,-2.7315,-2.7315,-2.7315,-2.7315,-2.7315,-2.7315,-2.7315,-2.7315,-2.7423,-2.7617,-2.776,-2.7872,-2.7957,-2.794,-2.7996,-2.8093,-2.8188,-2.8378,-2.857,-2.8663,-2.8737,-2.8767,-2.8688,-2.8755,-2.881,-2.8822,-2.8822,-2.881,-2.8798,-2.8773,-2.8761,-2.8737,-2.8724,-2.8706,-2.8657,-2.8619,-2.8625,-2.8625,-2.86,-3.2641,-3.3083,-3.3282,-3.3641,-3.4128,-3.4458,-3.4984,-3.5609,-3.578,-3.5899,-3.5633,-3.5097,-3.4453,-3.3594,-3.2732,-3.1923,-3.1256,-3.0737,-3.0678,-3.0594,-3.0548,-3.0513,-3.0482,-3.0456,-3.0408,-3.0495,-3.0611,-3.0669,-3.1111,-3.1012,-3.1155,-3.1787,-3.1718,-3.1726,-3.1558,-3.1416,-3.1165,-3.0489,-3.0268,-3.041,-3.0753,-3.138,-3.1582,-3.1898,-3.2124,-3.2095,-3.2065,-3.2023,-3.2023,-3.2035,-3.2109,-3.1899,-3.1456,-3.0946,-3.0549,-3.0055,-2.9304,-2.8936,-2.8749,-2.8713,-2.8707,-2.8658,-2.8627,-2.8502,-2.8192,-2.8017,-2.7821,-2.765,-2.7483,-2.7542,-2.7526,-2.7378,-2.7315,-2.7315,-2.7315,-2.7315,-2.7315,-2.7315,-2.7315,-2.7315,-2.7315,-2.7315,-2.7315,-2.733,-2.736,-2.7542,-2.7716,-2.7844,-2.8069,-2.8161,-2.8277,-2.836,-2.8443,-2.8639,-2.8851,-2.8839,-2.8917,-2.894,-2.8952,-2.8917,-2.8893,-2.8875,-2.8893,-2.89,-2.8864,-2.8828,-2.8816,-2.8798,-2.8792,-2.8761,-2.8706,-2.8682,-2.8657,-2.8662,-2.865]},{"header":{"parameterUnit":"m.s-1","parameterCategory":1,"la1":31.0,"la2":29.5877,"lo1":-88.7671,"lo2":-86.6584,"dy":0.0162,"dx":0.0185,"nx":115,"ny":88,"refTime":"2024-08-13T06:00:00:Z","depth":0,"parameterNumber":3,"parameterNumberName":"V-component_of_WINDS"},"data":[0.0,0.0,0.0,0.0,0.0,0.0,0.0,0.0,0.0,0.0,0.0,0.0,0.0,0.0,0.0,0.0,0.0,0.0,0.0,0.0,0.0,0.0,0.0,0.0,0.0,0.0,0.0,0.0,0.0,0.0,0.0,0.0,0.0,0.0,0.0,0.0,0.0,0.0,0.0,0.0,0.0,0.0,0.0,0.0,0.0,0.0,0.0,0.0,0.0,0.0,0.0,0.0,0.0,0.0,0.0,0.0,0.0,0.0,0.0,0.0,0.0,0.0,0.0,0.0,0.0,0.0,0.0,0.0,0.0,0.0,0.0,0.0,0.0,0.0,0.0,0.0,0.0,0.0,0.0,0.0,0.0,0.0,0.0,0.0,0.0,0.0,0.0,0.0,0.0,0.0,0.0,0.0,0.0,0.0,0.0,0.0,0.0,0.0,0.0,0.0,0.0,0.0,0.0,0.0,0.0,0.0,0.0,0.0,0.0,0.0,0.0,0.0,0.0,0.0,0.0,0.0,0.0,0.0,0.0,0.0,0.0,0.0,0.0,0.0,0.0,0.0,0.0,0.0,0.0,0.0,0.0,0.0,0.0,0.0,0.0,0.0,0.0,0.0,0.0,0.0,0.0,0.0,0.0,0.0,0.0,0.0,0.0,0.0,0.0,0.0,0.0,0.0,0.0,0.0,0.0,0.0,0.0,0.0,0.0,0.0,0.0,0.0,0.0,0.0,0.0,0.0,0.0,0.0,0.0,0.0,0.0,0.0,0.0,0.0,0.0,0.0,0.0,0.0,0.0,0.0,0.0,0.0,0.0,0.0,0.0,0.0,0.0,0.0,0.0,0.0,0.0,0.0,0.0,0.0,0.0,0.0,0.0,0.0,0.0,0.0,0.0,0.0,0.0,0.0,0.0,0.0,0.0,0.0,0.0,0.0,0.0,0.0,0.0,0.0,0.0,0.0,0.0,0.0,0.0,0.0,0.0,0.0,0.0,0.0,0.0,0.0,0.0,0.0,0.0,0.0,0.0,0.0,0.0,0.0,0.0,0.0,0.0,0.0,0.0,0.0,0.0,0.0,0.0,0.0,0.0,0.0,0.0,0.0,0.0,0.0,0.0,0.0,0.0,0.0,0.0,0.0,0.0,0.0,0.0,0.0,0.0,0.0,0.0,0.0,0.0,0.0,0.0,0.0,0.0,0.0,0.0,0.0,0.0,0.0,0.0,0.0,0.0,0.0,0.0,0.0,0.0,0.0,0.0,0.0,0.0,0.0,0.0,0.0,0.0,0.0,0.0,0.0,0.0,0.0,0.0,0.0,0.0,0.0,0.0,0.0,0.0,0.0,0.0,0.0,0.0,0.0,0.0,0.0,0.0,0.0,0.0,0.0,0.0,0.0,0.0,0.0,0.0,0.0,0.0,0.0,0.0,0.0,0.0,0.0,0.0,0.0,0.0,0.0,0.0,0.0,0.0,0.0,0.0,0.0,0.0,0.0,0.0,0.0,0.0,0.0,0.0,0.0,0.0,0.0,0.0,0.0,0.0,0.0,0.0,0.0,0.0,0.0,0.0,0.0,0.0,0.0,0.0,0.0,0.0,0.0,0.0,0.0,0.0,0.0,0.0,0.0,0.0,0.0,0.0,0.0,0.0,0.0,0.0,0.0,0.0,0.0,0.0,0.0,0.0,0.0,0.0,0.0,0.0,0.0,0.0,0.0,0.0,0.0,0.0,0.0,0.0,0.0,0.0,0.0,0.0,0.0,0.0,0.0,0.0,0.0,0.0,0.0,0.0,0.0,0.0,0.0,0.0,0.0,0.0,0.0,0.0,0.0,0.0,0.0,0.0,0.0,0.0,0.0,0.0,0.0,0.0,0.0,0.0,0.0,0.0,0.0,0.0,0.0,0.0,0.0,0.0,0.0,0.0,0.0,0.0,0.0,0.0,0.0,0.0,0.0,0.0,0.0,0.0,0.0,0.0,0.0,0.0,0.0,0.0,0.0,0.0,0.0,0.0,0.0,0.0,0.0,0.0,0.0,0.0,0.0,0.0,0.0,0.0,0.0,0.0,0.0,0.0,0.0,0.0,0.0,0.0,0.0,0.0,0.0,0.0,0.0,0.0,0.0,0.0,0.0,0.0,0.0,0.0,0.0,0.0,0.0,0.0,0.0,0.0,0.0,0.0,0.0,0.0,0.0,0.0,0.0,0.0,0.0,0.0,0.0,0.0,0.0,0.0,0.0,0.0,0.0,0.0,0.0,0.0,0.0,0.0,0.0,0.0,0.0,0.0,0.0,0.0,0.0,0.0,0.0,0.0,0.0,0.0,0.0,0.0,0.0,0.0,0.0,0.0,0.0,0.0,0.0,0.0,0.0,0.0,0.0,0.0,0.0,0.0,0.0,0.0,0.0,0.0,0.0,0.0,0.0,0.0,0.0,0.0,0.0,0.0,0.0,0.0,0.0,0.0,0.0,0.0,0.0,0.0,0.0,0.0,0.0,0.0,0.0,0.0,0.0,0.0,0.0,0.0,0.0,0.0,0.0,0.0,0.0,0.0,0.0,0.0,0.0,0.0,0.0,0.0,0.0,0.0,0.0,0.0,0.0,0.0,0.0,0.0,0.0,0.0,0.0,0.0,0.0,0.0,0.0,0.0,0.0,0.0,0.0,0.0,0.0,0.0,0.0,0.0,0.0,0.0,0.0,0.0,0.0,0.0,0.0,0.0,0.0,0.0,0.0,0.0,0.0,0.0,0.0,0.0,0.0,0.0,0.0,0.0,0.0,0.0,0.0,0.0,0.0,0.0,0.0,0.0,0.0,0.0,0.0,0.0,0.0,0.0,0.0,0.0,0.0,0.0,0.0,0.0,0.0,0.0,0.0,0.0,0.0,0.0,0.0,0.0,0.0,0.0,0.0,0.0,0.0,0.0,0.0,0.0,0.0,0.0,0.0,0.0,0.0,0.0,0.0,0.0,0.0,0.0,0.0,0.0,0.0,0.0,0.0,0.0,0.0,0.0,0.0,0.0,0.0,0.0,0.0,0.0,0.0,0.0,0.0,0.0,0.0,0.0,0.0,0.0,0.0,0.0,0.0,0.0,0.0,0.0,0.0,0.0,0.0,0.0,0.0,0.0,0.0,0.0,0.0,0.0,0.0,0.0,0.0,0.0,0.0,0.0,0.0,0.0,0.0,0.0,0.0,0.0,0.0,0.0,0.0,0.0,0.0,0.0,0.0,0.0,0.0,0.0,0.0,0.0,0.0,0.0,0.0,0.0,0.0,0.0,0.0,0.0,0.0,0.0,0.0,0.0,0.0,0.0,0.0,0.0,0.0,0.0,0.0,0.0,0.0,0.0,0.0,0.0,0.0,0.0,0.0,0.0,0.0,0.0,0.0,0.0,0.0,0.0,0.0,0.0,0.0,0.0,0.0,0.0,0.0,0.0,0.0,0.0,0.0,0.0,0.0,0.0,0.0,0.0,0.0,0.0,0.0,0.0,0.0,0.0,0.0,0.0,0.0,0.0,0.0,0.0,0.0,0.0,0.0,0.0,0.0,0.0,0.0,0.0,0.0,0.0,0.0,0.0,0.0,0.0,0.0,0.0,0.0,0.0,0.0,0.0,0.0,0.0,0.0,0.0,0.0,0.0,0.0,0.0,0.0,0.0,0.0,0.0,0.0,0.0,0.0,0.0,0.0,0.0,0.0,0.0,0.0,0.0,0.0,0.0,0.0,0.0,0.0,0.0,0.0,0.0,0.0,0.0,0.0,0.0,0.0,0.0,0.0,0.0,0.0,0.0,0.0,0.0,0.0,0.0,0.0,0.0,0.0,0.0,0.0,0.0,0.0,0.0,0.0,0.0,0.0,0.0,0.0,0.0,0.0,0.0,0.0,0.0,0.0,0.0,0.0,0.0,0.0,0.0,0.0,0.0,0.0,0.0,0.0,0.0,0.0,0.0,0.0,0.0,0.0,0.0,0.0,0.0,0.0,0.0,0.0,0.0,0.0,0.0,0.0,0.0,0.0,0.0,0.0,0.0,0.0,0.0,0.0,0.0,0.0,0.0,0.0,0.0,0.0,0.0,0.0,0.0,0.0,0.0,0.0,0.0,0.0,0.0,0.0,0.0,0.0,0.0,0.0,0.0,0.0,0.0,0.0,0.0,0.0,0.0,0.0,0.0,0.0,0.0,0.0,0.0,0.0,0.0,0.0,0.0,0.0,0.0,0.0,0.0,0.0,0.0,0.0,0.0,0.0,0.0,0.0,0.0,0.0,0.0,0.0,0.0,0.0,-0.9132,0.0,0.0,0.0,0.0,0.0,0.0,0.0,0.0,0.0,0.0,0.0,0.0,0.0,0.0,0.0,0.0,0.0,0.0,0.0,0.0,0.0,0.0,0.0,0.0,0.0,0.0,0.0,0.0,0.0,0.0,0.0,0.0,0.0,0.0,0.0,0.0,0.0,0.0,0.0,0.0,0.0,0.0,0.0,0.0,0.0,0.0,0.0,0.0,0.0,0.0,0.0,0.0,0.0,0.0,0.0,0.0,0.0,0.0,0.0,0.0,0.0,0.0,0.0,0.0,0.0,0.0,0.0,0.0,0.0,0.0,0.0,0.0,0.0,0.0,0.0,0.0,0.0,0.0,0.0,0.0,0.0,0.0,0.0,0.0,0.0,0.0,0.0,0.0,0.0,0.0,0.0,0.0,0.0,0.0,0.0,0.0,0.0,0.0,0.0,0.0,0.0,0.0,0.0,0.0,0.0,0.0,0.0,0.0,0.0,0.0,-0.984,-0.9874,-0.9874,-0.9648,-0.9144,0.0,0.0,0.0,0.0,0.0,0.0,0.0,0.0,0.0,0.0,0.0,0.0,0.0,0.0,0.0,0.0,0.0,0.0,0.0,0.0,0.0,0.0,0.0,0.0,0.0,0.0,0.0,0.0,0.0,0.0,0.0,0.0,0.0,0.0,0.0,0.0,0.0,0.0,0.0,0.0,0.0,0.0,0.0,0.0,0.0,0.0,0.0,0.0,0.0,0.0,0.0,0.0,0.0,0.0,0.0,0.0,0.0,0.0,0.0,0.0,0.0,0.0,0.0,0.0,0.0,0.0,0.0,0.0,0.0,0.0,0.0,0.0,0.0,0.0,0.0,0.0,0.0,0.0,0.0,0.0,0.0,0.0,0.0,0.0,0.0,0.0,0.0,0.0,0.0,0.0,0.0,0.0,0.0,0.0,0.0,0.0,0.0,0.0,0.0,0.0,0.0,0.0,0.0,0.0,0.0,0.0,0.0,0.0,0.0,0.0,0.0,0.0,-1.0274,-1.0091,-0.9723,0.0,0.0,0.0,0.0,0.0,0.0,0.0,0.0,0.0,0.0,0.0,0.0,0.0,0.0,0.0,0.0,0.0,0.0,0.0,0.0,0.0,0.0,0.0,0.0,0.0,0.0,0.0,0.0,0.0,0.0,0.0,0.0,0.0,0.0,0.0,0.0,0.0,0.0,0.0,0.0,0.0,0.0,0.0,0.0,0.0,0.0,0.0,0.0,0.0,0.0,0.0,0.0,0.0,0.0,0.0,0.0,0.0,0.0,0.0,0.0,0.0,0.0,0.0,0.0,0.0,0.0,0.0,0.0,0.0,0.0,0.0,0.0,0.0,0.0,0.0,0.0,0.0,0.0,0.0,0.0,0.0,0.0,0.0,0.0,0.0,0.0,0.0,0.0,0.0,0.0,0.0,0.0,0.0,0.0,0.0,0.0,0.0,0.0,0.0,0.0,0.0,0.0,0.0,0.0,0.0,0.0,0.0,0.0,0.0,0.0,-1.0632,-1.1328,-1.1335,0.0,-1.1457,0.0,0.0,0.0,0.0,0.0,0.0,0.0,0.0,0.0,0.0,0.0,0.0,0.0,0.0,0.0,0.0,0.0,0.0,0.0,0.0,0.0,0.0,0.0,0.0,0.0,0.0,0.0,0.0,0.0,0.0,0.0,0.0,0.0,0.0,0.0,0.0,0.0,0.0,0.0,0.0,0.0,0.0,0.0,0.0,0.0,0.0,0.0,0.0,0.0,0.0,0.0,0.0,0.0,0.0,0.0,0.0,0.0,0.0,0.0,0.0,0.0,0.0,0.0,0.0,0.0,0.0,0.0,0.0,0.0,0.0,0.0,0.0,0.0,0.0,0.0,0.0,0.0,0.0,0.0,0.0,0.0,0.0,0.0,0.0,0.0,0.0,0.0,0.0,0.0,0.0,0.0,0.0,0.0,0.0,0.0,0.0,0.0,0.0,0.0,0.0,0.0,0.0,0.0,0.0,0.0,0.0,0.0,0.0,0.0,0.0,-1.0808,-1.1022,-1.0983,-1.0848,0.0,0.0,0.0,0.0,0.0,0.0,0.0,0.0,0.0,0.0,0.0,0.0,0.0,0.0,0.0,0.0,0.0,0.0,0.0,0.0,0.0,0.0,0.0,0.0,0.0,0.0,0.0,0.0,0.0,0.0,0.0,0.0,0.0,0.0,0.0,0.0,0.0,0.0,0.0,0.0,0.0,0.0,0.0,0.0,0.0,0.0,0.0,0.0,0.0,0.0,0.0,0.0,0.0,0.0,0.0,0.0,0.0,0.0,0.0,0.0,0.0,0.0,0.0,0.0,0.0,0.0,0.0,0.0,0.0,0.0,0.0,0.0,0.0,0.0,0.0,0.0,0.0,0.0,0.0,0.0,0.0,0.0,0.0,0.0,0.0,0.0,0.0,0.0,0.0,0.0,0.0,0.0,0.0,0.0,0.0,0.0,0.0,0.0,0.0,0.0,0.0,0.0,0.0,0.0,0.0,0.0,0.0,0.0,0.0,0.0,-1.0816,0.0,-1.1107,-1.1154,-1.0909,-1.0391,0.0,0.0,0.0,0.0,0.0,0.0,0.0,0.0,0.0,0.0,0.0,0.0,0.0,0.0,0.0,0.0,0.0,0.0,0.0,0.0,0.0,0.0,0.0,0.0,0.0,0.0,0.0,0.0,0.0,0.0,0.0,0.0,0.0,0.0,0.0,0.0,0.0,0.0,0.0,0.0,0.0,0.0,0.0,0.0,0.0,0.0,0.0,0.0,0.0,0.0,0.0,0.0,0.0,0.0,0.0,0.0,0.0,0.0,0.0,0.0,0.0,0.0,0.0,0.0,0.0,0.0,0.0,0.0,0.0,0.0,0.0,0.0,0.0,0.0,0.0,0.0,0.0,0.0,0.0,0.0,0.0,0.0,0.0,0.0,0.0,0.0,0.0,0.0,0.0,0.0,0.0,0.0,0.0,0.0,0.0,0.0,0.0,0.0,0.0,0.0,0.0,0.0,0.0,0.0,0.0,0.0,0.0,0.0,0.0,-1.1378,-1.145,-1.2113,-1.2349,-1.2268,0.0,0.0,0.0,0.0,0.0,0.0,0.0,0.0,0.0,0.0,0.0,0.0,0.0,0.0,0.0,0.0,0.0,0.0,0.0,0.0,0.0,0.0,0.0,0.0,0.0,0.0,0.0,0.0,0.0,0.0,0.0,0.0,0.0,0.0,0.0,0.0,0.0,0.0,0.0,0.0,0.0,0.0,0.0,0.0,0.0,0.0,0.0,0.0,0.0,0.0,0.0,0.0,0.0,0.0,0.0,0.0,0.0,0.0,0.0,0.0,0.0,0.0,0.0,0.0,0.0,0.0,0.0,0.0,0.0,0.0,0.0,0.0,0.0,0.0,0.0,0.0,0.0,0.0,0.0,0.0,0.0,0.0,0.0,0.0,0.0,0.0,0.0,0.0,0.0,0.0,0.0,0.0,0.0,0.0,0.0,0.0,0.0,0.0,0.0,0.0,0.0,0.0,0.0,0.0,0.0,0.0,0.0,0.0,0.0,-1.0575,-1.1152,-1.1879,-1.2662,-1.2196,-1.1735,0.0,0.0,0.0,0.0,0.0,0.0,0.0,0.0,0.0,0.0,0.0,0.0,0.0,0.0,0.0,0.0,0.0,0.0,0.0,0.0,0.0,0.0,0.0,0.0,0.0,0.0,0.0,0.0,0.0,0.0,0.0,0.0,0.0,0.0,0.0,0.0,0.0,0.0,0.0,0.0,0.0,0.0,0.0,0.0,0.0,0.0,0.0,0.0,0.0,0.0,0.0,0.0,0.0,0.0,0.0,0.0,0.0,0.0,0.0,0.0,0.0,0.0,0.0,0.0,0.0,0.0,0.0,0.0,0.0,0.0,0.0,0.0,0.0,0.0,0.0,0.0,0.0,0.0,0.0,0.0,0.0,0.0,0.0,0.0,0.0,0.0,0.0,0.0,0.0,0.0,0.0,0.0,0.0,0.0,0.0,0.0,0.0,0.0,0.0,0.0,0.0,0.0,0.0,0.0,0.0,0.0,0.0,0.0,0.0,-1.0481,0.0,-1.2427,0.0,-1.2163,-1.1649,0.0,0.0,0.0,0.0,0.0,0.0,0.0,0.0,0.0,0.0,0.0,0.0,0.0,0.0,0.0,0.0,0.0,0.0,0.0,0.0,0.0,0.0,0.0,0.0,0.0,0.0,0.0,0.0,0.0,0.0,0.0,0.0,0.0,0.0,0.0,0.0,0.0,0.0,0.0,0.0,0.0,0.0,0.0,0.0,0.0,0.0,0.0,0.0,0.0,0.0,0.0,0.0,0.0,0.0,0.0,0.0,0.0,0.0,0.0,0.0,0.0,0.0,0.0,0.0,0.0,0.0,0.0,0.0,0.0,0.0,0.0,0.0,0.0,0.0,0.0,0.0,0.0,0.0,0.0,0.0,0.0,0.0,0.0,0.0,0.0,0.0,0.0,0.0,0.0,0.0,0.0,0.0,0.0,0.0,0.0,0.0,0.0,0.0,0.0,0.0,0.0,0.0,0.0,0.0,0.0,0.0,0.0,0.0,-1.0264,-1.2007,-1.2831,-1.302,-1.2562,-1.2491,-1.2181,0.0,0.0,0.0,0.0,0.0,0.0,0.0,0.0,0.0,0.0,0.0,0.0,0.0,0.0,0.0,0.0,0.0,0.0,0.0,0.0,0.0,0.0,0.0,0.0,0.0,0.0,0.0,0.0,0.0,0.0,0.0,0.0,0.0,0.0,0.0,0.0,0.0,0.0,0.0,0.0,0.0,0.0,0.0,0.0,0.0,0.0,0.0,0.0,0.0,0.0,0.0,0.0,0.0,0.0,0.0,0.0,0.0,0.0,0.0,0.0,0.0,0.0,0.0,0.0,0.0,0.0,0.0,0.0,0.0,0.0,0.0,0.0,0.0,0.0,0.0,0.0,0.0,0.0,0.0,0.0,0.0,0.0,0.0,0.0,0.0,0.0,0.0,0.0,0.0,0.0,0.0,0.0,0.0,0.0,0.0,0.0,0.0,0.0,0.0,0.0,0.0,0.0,0.0,0.0,0.0,0.0,0.0,0.0,0.0,-1.2231,-1.2869,-1.3366,-1.3552,-1.2795,-1.2264,0.0,0.0,0.0,0.0,0.0,0.0,0.0,0.0,0.0,0.0,0.0,0.0,0.0,0.0,0.0,0.0,0.0,0.0,0.0,0.0,0.0,0.0,0.0,0.0,0.0,0.0,0.0,0.0,0.0,0.0,0.0,0.0,0.0,0.0,0.0,0.0,0.0,0.0,0.0,0.0,0.0,0.0,0.0,0.0,0.0,0.0,0.0,0.0,0.0,0.0,0.0,0.0,0.0,0.0,0.0,0.0,0.0,0.0,0.0,0.0,0.0,0.0,0.0,0.0,0.0,0.0,0.0,0.0,0.0,0.0,0.0,0.0,0.0,0.0,0.0,0.0,0.0,0.0,0.0,0.0,0.0,0.0,0.0,0.0,0.0,0.0,0.0,0.0,0.0,0.0,0.0,0.0,0.0,0.0,0.0,0.0,0.0,0.0,0.0,0.0,0.0,0.0,0.0,0.0,0.0,0.0,0.0,0.0,0.0,-1.2812,-1.3387,-1.3821,-1.4082,-1.3146,-1.2648,-1.2643,0.0,0.0,0.0,0.0,0.0,0.0,0.0,0.0,0.0,0.0,0.0,0.0,0.0,0.0,0.0,0.0,0.0,0.0,0.0,0.0,0.0,0.0,0.0,0.0,0.0,0.0,0.0,0.0,0.0,0.0,0.0,0.0,0.0,0.0,0.0,0.0,0.0,0.0,0.0,0.0,0.0,0.0,0.0,0.0,0.0,0.0,0.0,0.0,0.0,0.0,0.0,0.0,0.0,0.0,0.0,0.0,0.0,0.0,0.0,0.0,0.0,0.0,0.0,0.0,0.0,0.0,0.0,0.0,0.0,0.0,0.0,0.0,0.0,0.0,0.0,0.0,0.0,0.0,0.0,0.0,0.0,0.0,0.0,0.0,0.0,0.0,0.0,0.0,0.0,0.0,0.0,0.0,0.0,0.0,0.0,0.0,0.0,0.0,0.0,0.0,0.0,0.0,0.0,0.0,0.0,0.0,0.0,0.0,-1.3593,-1.4206,-1.4429,-1.4148,-1.3547,-1.3254,0.0,0.0,0.0,0.0,0.0,0.0,0.0,0.0,0.0,0.0,0.0,0.0,0.0,0.0,0.0,0.0,0.0,0.0,0.0,0.0,0.0,0.0,0.0,0.0,0.0,0.0,0.0,0.0,0.0,0.0,0.0,0.0,0.0,0.0,0.0,0.0,0.0,0.0,0.0,0.0,0.0,0.0,0.0,0.0,0.0,0.0,0.0,0.0,0.0,0.0,0.0,0.0,0.0,0.0,0.0,0.0,0.0,0.0,0.0,0.0,0.0,0.0,0.0,0.0,0.0,0.0,0.0,0.0,0.0,0.0,0.0,0.0,0.0,0.0,0.0,0.0,0.0,0.0,0.0,0.0,0.0,0.0,0.0,0.0,0.0,0.0,0.0,0.0,0.0,0.0,0.0,0.0,0.0,0.0,0.0,0.0,0.0,0.0,0.0,0.0,0.0,0.0,0.0,0.0,0.0,0.0,0.0,0.0,0.0,-1.362,-1.4643,-1.503,-1.4774,-1.3955,-1.3663,0.0,0.0,0.0,0.0,0.0,0.0,0.0,0.0,0.0,0.0,0.0,0.0,0.0,0.0,0.0,0.0,0.0,0.0,0.0,0.0,0.0,0.0,0.0,0.0,0.0,0.0,0.0,0.0,0.0,0.0,0.0,0.0,0.0,0.0,0.0,0.0,0.0,0.0,0.0,0.0,0.0,0.0,0.0,0.0,0.0,0.0,0.0,0.0,0.0,0.0,0.0,0.0,0.0,0.0,0.0,0.0,0.0,0.0,0.0,0.0,0.0,0.0,0.0,0.0,0.0,0.0,0.0,0.0,0.0,0.0,0.0,0.0,0.0,0.0,0.0,0.0,0.0,0.0,0.0,0.0,0.0,0.0,0.0,0.0,0.0,0.0,0.0,0.0,0.0,0.0,0.0,0.0,0.0,0.0,0.0,0.0,0.0,0.0,0.0,0.0,0.0,0.0,0.0,0.0,0.0,0.0,0.0,0.0,-1.3709,-1.4288,-1.4977,-1.5311,-1.5322,-1.4435,-1.4131,0.0,0.0,0.0,0.0,0.0,0.0,0.0,0.0,0.0,0.0,0.0,0.0,0.0,0.0,0.0,0.0,0.0,0.0,0.0,0.0,0.0,0.0,0.0,0.0,0.0,0.0,0.0,0.0,0.0,0.0,0.0,0.0,0.0,0.0,0.0,0.0,0.0,0.0,0.0,0.0,0.0,0.0,0.0,0.0,0.0,0.0,0.0,0.0,0.0,0.0,0.0,0.0,0.0,0.0,0.0,0.0,0.0,0.0,0.0,0.0,0.0,0.0,0.0,0.0,0.0,0.0,0.0,0.0,0.0,0.0,0.0,0.0,0.0,0.0,0.0,0.0,0.0,0.0,0.0,0.0,0.0,0.0,0.0,0.0,0.0,0.0,0.0,0.0,0.0,0.0,0.0,0.0,0.0,0.0,0.0,0.0,0.0,0.0,0.0,0.0,0.0,0.0,0.0,0.0,0.0,0.0,0.0,0.0,-1.4272,-1.5084,-1.5203,-1.5364,-1.5595,-1.4929,-1.4684,0.0,0.0,0.0,0.0,0.0,0.0,0.0,0.0,0.0,0.0,0.0,0.0,0.0,0.0,0.0,0.0,0.0,0.0,0.0,0.0,0.0,0.0,0.0,0.0,0.0,0.0,0.0,0.0,0.0,0.0,0.0,0.0,0.0,0.0,0.0,0.0,0.0,0.0,0.0,0.0,0.0,0.0,0.0,0.0,0.0,0.0,0.0,0.0,0.0,0.0,0.0,0.0,0.0,0.0,0.0,0.0,0.0,0.0,0.0,0.0,0.0,0.0,0.0,0.0,0.0,0.0,0.0,0.0,0.0,0.0,0.0,0.0,0.0,0.0,0.0,0.0,0.0,0.0,0.0,0.0,0.0,0.0,0.0,0.0,0.0,0.0,0.0,0.0,0.0,0.0,0.0,0.0,0.0,0.0,0.0,0.0,0.0,0.0,0.0,0.0,0.0,0.0,0.0,0.0,0.0,0.0,0.0,0.0,-1.4279,-1.4482,-1.5138,-1.5432,-1.5301,-1.4872,-1.5049,0.0,0.0,0.0,0.0,0.0,0.0,0.0,0.0,0.0,0.0,0.0,0.0,0.0,0.0,0.0,0.0,0.0,0.0,0.0,0.0,0.0,0.0,0.0,0.0,0.0,0.0,0.0,0.0,0.0,0.0,0.0,0.0,0.0,0.0,0.0,0.0,0.0,0.0,0.0,0.0,0.0,0.0,0.0,0.0,0.0,0.0,0.0,0.0,-1.6481,0.0,0.0,0.0,0.0,0.0,0.0,0.0,0.0,0.0,0.0,0.0,0.0,0.0,0.0,0.0,0.0,0.0,0.0,0.0,0.0,0.0,0.0,0.0,0.0,0.0,0.0,0.0,0.0,0.0,0.0,0.0,0.0,0.0,0.0,0.0,0.0,0.0,0.0,0.0,0.0,0.0,0.0,0.0,0.0,0.0,0.0,0.0,0.0,0.0,0.0,0.0,0.0,0.0,0.0,0.0,0.0,0.0,0.0,0.0,-1.4712,-1.5054,-1.5355,-1.5691,-1.6111,-1.5624,-1.5576,0.0,0.0,0.0,0.0,0.0,0.0,0.0,0.0,0.0,0.0,0.0,0.0,0.0,0.0,0.0,0.0,0.0,0.0,0.0,0.0,0.0,0.0,0.0,0.0,0.0,0.0,0.0,0.0,0.0,0.0,0.0,0.0,0.0,0.0,0.0,0.0,0.0,0.0,0.0,0.0,0.0,0.0,0.0,0.0,0.0,0.0,0.0,0.0,0.0,0.0,0.0,0.0,0.0,0.0,0.0,0.0,0.0,0.0,0.0,0.0,0.0,0.0,0.0,0.0,0.0,0.0,0.0,0.0,0.0,0.0,0.0,0.0,0.0,0.0,0.0,0.0,0.0,0.0,0.0,0.0,0.0,0.0,0.0,0.0,0.0,0.0,0.0,0.0,0.0,0.0,0.0,0.0,0.0,0.0,0.0,0.0,0.0,0.0,0.0,0.0,0.0,0.0,0.0,0.0,0.0,0.0,0.0,-1.4448,-1.5189,-1.5796,-1.557,-1.5944,-1.7014,-1.6573,-1.6312,-1.6279,0.0,0.0,0.0,0.0,0.0,0.0,0.0,0.0,0.0,0.0,0.0,0.0,0.0,0.0,0.0,0.0,0.0,0.0,0.0,0.0,0.0,0.0,0.0,0.0,0.0,0.0,0.0,0.0,0.0,0.0,0.0,0.0,0.0,0.0,0.0,0.0,0.0,0.0,-1.1418,-1.2435,0.0,0.0,0.0,0.0,0.0,0.0,0.0,0.0,-1.6229,0.0,0.0,0.0,0.0,0.0,0.0,0.0,0.0,0.0,0.0,0.0,0.0,0.0,0.0,0.0,0.0,0.0,0.0,0.0,0.0,0.0,0.0,0.0,0.0,0.0,0.0,0.0,0.0,0.0,0.0,0.0,0.0,0.0,0.0,0.0,0.0,0.0,0.0,0.0,0.0,0.0,0.0,0.0,0.0,0.0,0.0,0.0,0.0,0.0,0.0,0.0,0.0,0.0,0.0,0.0,0.0,-1.4637,-1.4604,-1.4853,-1.5447,-1.5418,-1.5685,-1.6285,-1.688,-1.72,-1.7152,0.0,0.0,0.0,0.0,0.0,0.0,0.0,0.0,0.0,0.0,0.0,0.0,0.0,0.0,0.0,0.0,0.0,0.0,0.0,0.0,0.0,0.0,0.0,0.0,0.0,0.0,0.0,0.0,0.0,0.0,0.0,0.0,0.0,0.0,0.0,0.0,0.0,0.0,0.0,-1.3158,-1.3834,0.0,0.0,0.0,0.0,0.0,0.0,0.0,0.0,-1.6092,0.0,0.0,0.0,0.0,0.0,0.0,0.0,0.0,0.0,0.0,0.0,0.0,0.0,0.0,0.0,0.0,0.0,0.0,0.0,0.0,0.0,0.0,0.0,0.0,0.0,0.0,0.0,0.0,0.0,0.0,0.0,0.0,0.0,0.0,0.0,0.0,0.0,0.0,0.0,0.0,0.0,0.0,0.0,0.0,0.0,0.0,0.0,0.0,0.0,0.0,0.0,0.0,0.0,0.0,0.0,-1.4392,-1.4618,-1.4827,-1.5126,-1.5133,-1.5572,-1.6472,-1.6472,-1.6968,0.0,0.0,0.0,0.0,0.0,0.0,0.0,0.0,0.0,0.0,0.0,0.0,0.0,0.0,0.0,0.0,0.0,0.0,0.0,0.0,0.0,0.0,0.0,0.0,0.0,0.0,0.0,0.0,0.0,0.0,0.0,0.0,0.0,0.0,0.0,0.0,0.0,0.0,0.0,0.0,-1.3572,-1.4071,-1.4448,0.0,0.0,0.0,0.0,0.0,0.0,-1.5643,-1.605,0.0,0.0,0.0,0.0,0.0,0.0,0.0,0.0,0.0,0.0,0.0,0.0,0.0,0.0,0.0,0.0,0.0,0.0,0.0,0.0,0.0,0.0,0.0,0.0,0.0,0.0,0.0,0.0,0.0,0.0,0.0,0.0,0.0,0.0,0.0,0.0,0.0,0.0,0.0,0.0,0.0,0.0,0.0,0.0,0.0,0.0,0.0,0.0,0.0,0.0,0.0,0.0,0.0,0.0,0.0,-1.391,-1.4457,-1.4739,-1.4805,-1.4805,-1.5419,-1.6698,-1.6073,-1.6546,0.0,0.0,0.0,0.0,0.0,0.0,0.0,0.0,0.0,0.0,0.0,0.0,0.0,0.0,0.0,0.0,0.0,0.0,0.0,0.0,0.0,0.0,0.0,0.0,0.0,0.0,0.0,0.0,0.0,0.0,0.0,0.0,0.0,0.0,0.0,0.0,0.0,0.0,0.0,0.0,0.0,-1.4538,-1.5074,-1.5131,0.0,0.0,0.0,0.0,-1.5913,-1.6124,0.0,0.0,0.0,0.0,0.0,0.0,0.0,0.0,0.0,0.0,0.0,0.0,0.0,0.0,0.0,0.0,0.0,0.0,0.0,0.0,0.0,0.0,0.0,0.0,0.0,0.0,0.0,0.0,0.0,0.0,0.0,0.0,0.0,0.0,0.0,0.0,0.0,0.0,0.0,0.0,0.0,0.0,0.0,0.0,0.0,0.0,0.0,0.0,0.0,0.0,0.0,0.0,0.0,0.0,0.0,0.0,-1.3536,-1.3909,-1.4231,-1.4548,-1.4531,-1.5119,-1.6249,-1.6184,-1.6563,0.0,0.0,0.0,0.0,0.0,0.0,0.0,0.0,0.0,0.0,0.0,0.0,0.0,0.0,0.0,0.0,0.0,0.0,0.0,0.0,0.0,0.0,0.0,0.0,0.0,0.0,0.0,0.0,0.0,0.0,0.0,0.0,0.0,0.0,0.0,0.0,0.0,0.0,0.0,0.0,0.0,-1.5634,-1.5413,-1.56,-1.5709,0.0,0.0,-1.5861,-1.5734,-1.6741,0.0,0.0,0.0,0.0,0.0,0.0,0.0,0.0,0.0,0.0,0.0,0.0,0.0,0.0,0.0,0.0,0.0,0.0,0.0,0.0,0.0,0.0,0.0,0.0,0.0,0.0,0.0,0.0,0.0,0.0,0.0,0.0,0.0,0.0,0.0,0.0,0.0,0.0,0.0,0.0,0.0,0.0,0.0,0.0,0.0,0.0,0.0,0.0,0.0,0.0,0.0,0.0,0.0,0.0,0.0,-1.2658,-1.347,-1.3814,-1.4086,-1.4225,-1.4232,-1.4772,-1.5886,-1.5682,-1.6154,0.0,0.0,0.0,0.0,0.0,0.0,0.0,0.0,0.0,0.0,0.0,0.0,0.0,0.0,0.0,0.0,0.0,0.0,0.0,0.0,0.0,0.0,0.0,0.0,0.0,0.0,0.0,0.0,0.0,0.0,0.0,0.0,0.0,0.0,0.0,0.0,0.0,0.0,0.0,0.0,0.0,0.0,-1.5878,-1.5935,0.0,0.0,0.0,-1.6036,-1.6474,0.0,0.0,0.0,0.0,0.0,0.0,0.0,0.0,0.0,0.0,0.0,0.0,0.0,0.0,0.0,0.0,0.0,0.0,0.0,0.0,0.0,0.0,0.0,0.0,0.0,0.0,0.0,0.0,0.0,0.0,0.0,0.0,0.0,0.0,0.0,0.0,0.0,0.0,0.0,0.0,0.0,0.0,0.0,0.0,0.0,0.0,0.0,0.0,0.0,0.0,0.0,0.0,0.0,0.0,0.0,0.0,0.0,-1.3236,-1.3653,-1.3857,-1.3902,-1.3857,-1.4456,-1.5648,-1.5402,0.0,0.0,0.0,0.0,0.0,0.0,0.0,0.0,0.0,0.0,0.0,0.0,0.0,0.0,0.0,0.0,0.0,0.0,0.0,0.0,0.0,0.0,0.0,0.0,0.0,0.0,0.0,-1.3755,0.0,0.0,0.0,0.0,0.0,0.0,0.0,0.0,0.0,0.0,0.0,0.0,0.0,0.0,-1.5478,-1.6448,-1.6351,-1.6578,0.0,0.0,-1.6447,-1.7327,-1.7732,-1.7975,0.0,0.0,0.0,0.0,0.0,0.0,0.0,0.0,0.0,0.0,0.0,0.0,0.0,0.0,0.0,0.0,0.0,0.0,0.0,0.0,0.0,0.0,0.0,0.0,0.0,0.0,0.0,0.0,0.0,0.0,0.0,0.0,0.0,0.0,0.0,0.0,0.0,0.0,0.0,0.0,0.0,0.0,0.0,0.0,0.0,0.0,0.0,0.0,0.0,0.0,0.0,0.0,0.0,0.0,0.0,-1.2558,-1.3206,-1.3528,-1.3528,-1.3528,-1.4225,-1.564,-1.5693,-1.6002,0.0,0.0,0.0,0.0,0.0,0.0,0.0,0.0,0.0,0.0,0.0,0.0,0.0,0.0,0.0,0.0,0.0,0.0,0.0,0.0,0.0,0.0,0.0,0.0,0.0,0.0,0.0,0.0,0.0,0.0,0.0,0.0,0.0,0.0,0.0,0.0,0.0,0.0,0.0,0.0,0.0,-1.647,-1.6976,-1.6976,-1.723,0.0,0.0,-1.777,-1.7853,-1.9194,-1.9878,-1.8742,0.0,0.0,0.0,0.0,0.0,0.0,0.0,0.0,0.0,0.0,0.0,0.0,0.0,0.0,0.0,0.0,0.0,0.0,0.0,0.0,0.0,0.0,0.0,0.0,0.0,0.0,0.0,0.0,0.0,0.0,0.0,0.0,0.0,0.0,0.0,0.0,0.0,0.0,0.0,0.0,0.0,0.0,0.0,0.0,0.0,0.0,0.0,0.0,0.0,0.0,0.0,0.0,0.0,-1.2164,-1.2485,-1.3162,-1.3492,-1.3492,-1.3492,-1.4158,-1.5534,-1.5675,-1.5943,0.0,0.0,0.0,0.0,0.0,0.0,0.0,0.0,0.0,0.0,0.0,0.0,0.0,0.0,0.0,0.0,0.0,0.0,0.0,0.0,0.0,0.0,0.0,0.0,0.0,0.0,0.0,0.0,-1.5088,-1.4504,-1.3704,0.0,0.0,0.0,0.0,0.0,0.0,0.0,0.0,0.0,0.0,-1.6896,-1.6991,-1.7298,0.0,0.0,-1.8413,-1.8391,-1.9157,-1.961,-1.9712,-1.9226,-1.9829,0.0,0.0,0.0,0.0,0.0,0.0,0.0,0.0,0.0,0.0,0.0,0.0,0.0,0.0,0.0,0.0,0.0,0.0,0.0,0.0,0.0,0.0,0.0,0.0,0.0,0.0,0.0,0.0,0.0,0.0,0.0,0.0,0.0,0.0,0.0,0.0,0.0,0.0,0.0,0.0,0.0,0.0,0.0,0.0,0.0,0.0,0.0,0.0,0.0,0.0,0.0,0.0,-1.2102,-1.2526,-1.3162,-1.3593,-1.3804,-1.3811,-1.4474,-1.5745,-1.5921,-1.6079,0.0,0.0,0.0,0.0,0.0,0.0,0.0,0.0,0.0,0.0,0.0,0.0,0.0,0.0,0.0,0.0,0.0,0.0,0.0,0.0,0.0,0.0,0.0,0.0,0.0,0.0,0.0,0.0,-1.5828,-1.5108,-1.4371,0.0,0.0,0.0,0.0,0.0,0.0,0.0,0.0,0.0,0.0,-1.7167,-1.7386,-1.7648,-1.8137,-1.8943,-1.8565,-1.8531,-1.9519,-1.965,-1.959,-1.9426,0.0,0.0,0.0,0.0,0.0,0.0,0.0,0.0,0.0,0.0,0.0,0.0,0.0,0.0,0.0,0.0,0.0,0.0,0.0,0.0,0.0,0.0,0.0,0.0,0.0,0.0,0.0,0.0,0.0,0.0,0.0,0.0,0.0,0.0,0.0,0.0,0.0,0.0,0.0,0.0,0.0,0.0,0.0,0.0,0.0,0.0,0.0,0.0,0.0,0.0,0.0,0.0,0.0,-1.1929,-1.2485,-1.3162,-1.384,-1.4537,-1.4565,-1.5207,-1.6499,-1.6568,-1.6471,-1.6211,0.0,0.0,0.0,0.0,0.0,0.0,0.0,0.0,0.0,0.0,0.0,0.0,0.0,0.0,0.0,0.0,0.0,0.0,0.0,0.0,0.0,0.0,0.0,0.0,0.0,0.0,-1.507,-1.4128,-1.3586,0.0,0.0,0.0,0.0,0.0,0.0,0.0,0.0,0.0,0.0,-1.6617,-1.7342,-1.8232,-1.8083,-1.8262,-1.9085,-1.8578,-1.8209,-1.8678,-1.9401,-1.9743,0.0,0.0,0.0,0.0,0.0,0.0,0.0,0.0,0.0,0.0,0.0,0.0,0.0,0.0,0.0,0.0,0.0,0.0,0.0,0.0,0.0,0.0,0.0,0.0,0.0,0.0,0.0,-1.1176,-1.0975,0.0,0.0,0.0,0.0,0.0,0.0,0.0,0.0,0.0,0.0,0.0,-1.2528,-1.2777,0.0,0.0,0.0,0.0,0.0,0.0,0.0,0.0,0.0,0.0,0.0,0.0,-1.2306,-1.2541,-1.3162,-1.384,-1.4565,-1.4601,-1.5251,-1.6568,-1.6603,-1.648,-1.6207,0.0,0.0,0.0,0.0,0.0,0.0,0.0,0.0,0.0,0.0,0.0,0.0,0.0,0.0,0.0,0.0,0.0,0.0,0.0,0.0,0.0,0.0,0.0,0.0,0.0,-1.5558,0.0,0.0,0.0,0.0,0.0,0.0,0.0,0.0,0.0,0.0,0.0,-1.6362,-1.7231,-1.79,-1.8269,-1.8099,-1.8581,-1.9088,0.0,0.0,0.0,0.0,0.0,0.0,0.0,0.0,0.0,0.0,0.0,0.0,0.0,0.0,-2.3312,-2.2674,-2.2468,-2.2478,-2.265,0.0,0.0,0.0,0.0,0.0,0.0,0.0,0.0,0.0,0.0,0.0,0.0,0.0,0.0,-1.1476,0.0,-1.0982,0.0,0.0,0.0,0.0,0.0,0.0,0.0,0.0,-1.2175,-1.2491,-1.2785,-1.3063,-1.3201,0.0,-1.2965,-1.2745,0.0,0.0,0.0,0.0,0.0,0.0,0.0,0.0,-1.2509,-1.2946,-1.3537,-1.4338,-1.5242,-1.5278,-1.5781,-1.6777,-1.6624,-1.6416,-1.623,-1.5287,-1.4809,0.0,0.0,0.0,0.0,0.0,0.0,0.0,0.0,0.0,0.0,0.0,0.0,0.0,0.0,0.0,0.0,0.0,0.0,0.0,0.0,0.0,0.0,0.0,-1.564,0.0,0.0,0.0,0.0,0.0,0.0,0.0,0.0,0.0,-1.6062,-1.6759,-1.7507,-1.8118,-1.8731,-1.8987,-1.8515,0.0,0.0,0.0,0.0,0.0,0.0,0.0,-2.1676,-2.1813,-2.2557,-2.3183,-2.3327,-2.3815,-2.4189,-2.4189,0.0,0.0,-2.3328,-2.3064,-2.2995,-2.3213,-2.3075,-2.2903,-2.2708,-2.2638,-2.2506,0.0,0.0,0.0,0.0,0.0,0.0,0.0,0.0,-1.204,-1.1906,0.0,-1.153,0.0,0.0,0.0,0.0,0.0,0.0,0.0,0.0,-1.2383,-1.2673,-1.2893,-1.3083,-1.3302,-1.3492,-1.3477,-1.3477,-1.3397,-1.1911,0.0,0.0,0.0,0.0,0.0,0.0,-1.2581,-1.3665,-1.4268,-1.5242,-1.6533,-1.6568,-1.6786,-1.7157,-1.6634,-1.634,-1.6321,-1.5918,-1.5524,-1.5157,-1.4744,0.0,0.0,0.0,0.0,0.0,0.0,0.0,0.0,0.0,0.0,0.0,0.0,0.0,0.0,0.0,0.0,0.0,0.0,0.0,0.0,-1.6066,0.0,0.0,0.0,0.0,0.0,0.0,0.0,0.0,0.0,0.0,-1.6686,-1.7732,-1.8646,-1.8611,0.0,0.0,0.0,0.0,-1.9952,-1.9952,-1.9933,-2.0129,-2.0508,-2.1135,-2.1718,-2.2048,0.0,0.0,-2.4116,-2.4189,-2.4189,-2.4189,-2.4189,-2.4189,-2.4166,-2.374,-2.3579,-2.4039,-2.374,-2.3625,-2.4016,-2.3696,-2.3283,-1.1395,0.0,0.0,0.0,0.0,-1.1516,-1.1778,-1.2298,-1.2218,-1.2094,-1.1886,-1.1557,0.0,0.0,0.0,0.0,0.0,0.0,-1.1991,-1.1926,-1.2244,-1.2556,-1.29,-1.2973,-1.3163,-1.3499,-1.3492,-1.3419,-1.328,-1.2582,-1.2087,-1.178,0.0,0.0,0.0,0.0,-1.3146,-1.3958,-1.4379,-1.5242,-1.6568,-1.6603,-1.6811,-1.7166,-1.703,-1.6871,-1.6734,-1.6349,-1.6083,-1.5964,-1.5304,0.0,0.0,0.0,0.0,0.0,0.0,0.0,0.0,0.0,0.0,0.0,0.0,0.0,0.0,0.0,0.0,0.0,0.0,0.0,-1.413,-1.5047,-1.5715,0.0,0.0,0.0,0.0,0.0,0.0,0.0,0.0,0.0,-1.9827,-2.017,-2.0485,0.0,0.0,-2.0398,-1.9615,-2.0139,-2.0624,-2.0624,0.0,0.0,0.0,-2.208,-2.2617,-2.2729,-2.3482,-2.408,-2.42,-2.4189,-2.4189,-2.4189,-2.4189,-2.4189,-2.4189,-2.4085,-2.4028,-2.4154,-2.4074,-2.4028,-2.412,-2.4001,-2.3793,-1.1694,-1.1413,-1.1222,-1.1366,-1.1687,-1.1601,-1.1846,-1.2305,-1.2305,-1.2204,-1.2067,-1.1857,-1.161,-1.1377,-1.1336,0.0,0.0,0.0,-1.2211,-1.2044,-1.2298,-1.2526,-1.2783,-1.2856,-1.3017,-1.3236,-1.3346,-1.3273,-1.3083,-1.3035,-1.2719,-1.2203,0.0,0.0,-1.175,-1.2404,-1.3127,-1.3901,-1.4505,-1.533,-1.6324,-1.6612,-1.683,-1.7063,-1.7063,-1.7003,-1.6908,-1.6688,-1.6404,-1.6074,-1.5597,-1.5157,0.0,0.0,0.0,0.0,0.0,0.0,0.0,0.0,0.0,0.0,0.0,-1.4601,-1.3798,0.0,0.0,0.0,-1.5524,-1.5641,-1.5111,-1.6199,0.0,0.0,0.0,0.0,0.0,0.0,0.0,-2.0285,-2.1472,-2.2247,-2.2272,-2.2413,-2.2337,-2.1904,-2.1669,-2.1285,-2.0617,0.0,-2.1524,-2.1524,-2.2144,-2.2583,-2.2558,-2.3123,-2.353,-2.3479,-2.3861,-2.42,-2.4189,-2.4189,-2.4189,-2.4189,-2.4189,-2.4189,-2.4189,-2.4189,-2.4189,-2.4189,-2.4189,-2.4179,-2.4031,-2.377,-2.3546,-1.1886,-1.1902,-1.1793,-1.1708,-1.1676,-1.1855,-1.2077,-1.2268,-1.2268,-1.2305,-1.2305,-1.2305,-1.2151,-1.194,-1.194,0.0,0.0,-1.2178,-1.2305,-1.2298,-1.2489,-1.2599,-1.2599,-1.2783,-1.29,-1.29,-1.3083,-1.3083,-1.29,-1.3229,-1.3086,-1.2402,-1.2082,-1.1922,-1.195,-1.2312,-1.2855,-1.3627,-1.4608,-1.5409,-1.6009,-1.6577,-1.6908,-1.6908,-1.6881,-1.6862,-1.6862,-1.6826,-1.6459,-1.5744,-1.5693,-1.5478,-1.5102,0.0,0.0,0.0,0.0,0.0,0.0,0.0,0.0,0.0,0.0,0.0,0.0,0.0,0.0,0.0,-1.7383,0.0,-1.8147,-1.8561,0.0,0.0,0.0,-1.9479,-2.1159,-2.1499,-2.1879,-2.2532,0.0,0.0,0.0,0.0,-2.3996,-2.2707,-2.2321,-2.2165,-2.2043,-2.226,-2.2488,-2.2416,-2.3184,-2.3695,-2.3492,-2.3966,-2.4281,-2.4171,-2.4223,-2.4258,-2.42,-2.412,-2.4131,-2.4189,-2.4143,-2.4074,-2.412,-2.4062,-2.4074,-2.4028,-2.4085,-2.4007,-2.3699,-2.3235,-2.2893,-1.1886,-1.1856,-1.1636,-1.1517,-1.149,-1.1521,-1.1744,-1.2077,-1.2077,-1.215,-1.2305,-1.2305,-1.2265,-1.2198,-1.2198,-1.2198,-1.2204,-1.2271,-1.2305,-1.2298,-1.2342,-1.2452,-1.2599,-1.2636,-1.2753,-1.29,-1.2936,-1.2863,-1.2673,-1.2753,-1.2638,-1.2344,-1.224,-1.2228,-1.2305,-1.2777,-1.3288,-1.3892,-1.4148,-1.4867,-1.5974,-1.6586,-1.6908,-1.6908,-1.6581,-1.6459,-1.645,-1.6147,-1.589,-1.5689,-1.5404,-1.5194,-1.5093,-1.4047,0.0,0.0,0.0,0.0,0.0,0.0,0.0,0.0,0.0,-1.5837,-1.4313,0.0,-1.7328,0.0,-1.8525,-1.8879,-1.7598,-1.8522,0.0,0.0,-1.9439,-1.982,-2.2326,-2.2161,-2.2249,-2.3393,-2.4021,-2.4413,-2.4352,-2.4188,-2.3907,-2.3591,-2.3196,-2.2605,-2.1769,-2.2048,-2.2421,-2.2491,-2.2912,-2.3183,-2.3301,-2.3871,-2.4352,-2.4244,-2.4487,-2.4625,-2.4258,-2.382,-2.3705,-2.4051,-2.357,-2.3259,-2.351,-2.3316,-2.3075,-2.3098,-2.3351,-2.3512,-2.3155,-2.2779,-2.2559,-1.1988,-1.1862,-1.1603,-1.1403,-1.126,-1.1372,-1.1589,-1.1855,-1.1966,-1.2077,-1.215,-1.2268,-1.2305,-1.2305,-1.2305,-1.2305,-1.2305,-1.2305,-1.2305,-1.2305,-1.2305,-1.2342,-1.2452,-1.2452,-1.2526,-1.2636,-1.2709,-1.2673,-1.2489,-1.2636,-1.2599,-1.2298,-1.2489,-1.2517,-1.236,-1.2663,-1.2959,-1.3251,-1.3926,-1.4966,-1.6333,-1.6726,-1.6826,-1.6652,-1.6606,-1.6404,-1.6056,-1.5991,-1.5808,-1.5441,-1.5212,-1.5175,-1.534,-1.4561,-1.4243,0.0,0.0,0.0,0.0,0.0,0.0,0.0,0.0,0.0,0.0,0.0,-1.7959,0.0,-1.9356,0.0,-1.8852,-1.9997,-2.0977,-2.1501,-2.1076,-2.1347,-2.2935,-2.291,-2.2955,-2.3463,-2.3943,-2.4167,-2.3971,-2.3732,-2.3484,-2.3287,-2.3039,-2.2661,-2.2098,-2.2358,-2.2722,-2.2722,-2.3378,-2.3889,-2.3839,-2.4112,-2.43,-2.4256,-2.4407,-2.4499,-2.4235,-2.3982,-2.382,-2.3802,-2.3394,-2.3018,-2.3064,-2.2903,-2.265,-2.2432,-2.2536,-2.2673,-2.2587,-2.2453,-2.2339,-1.2131,-1.1862,-1.1603,-1.1371,-1.1105,-1.1298,-1.1484,-1.1669,-1.1892,-1.2003,-1.204,-1.2224,-1.2305,-1.2305,-1.2305,-1.2305,-1.2305,-1.2305,-1.2305,-1.2305,-1.2305,-1.2305,-1.2305,-1.2305,-1.2305,-1.2305,-1.2482,-1.2489,-1.2298,-1.2629,-1.2643,-1.2335,-1.268,-1.268,-1.2298,-1.2305,-1.2305,-1.2298,-1.3702,-1.5136,-1.6577,-1.6691,-1.664,-1.6389,-1.659,-1.6422,-1.5735,-1.5991,-1.5835,-1.5157,-1.5157,-1.5331,-1.5652,-1.5313,-1.5195,0.0,-1.4988,0.0,0.0,0.0,0.0,0.0,0.0,0.0,0.0,-1.8217,-1.8841,-1.9012,-2.0043,-2.0729,-2.0847,-2.1857,-2.2637,-2.2886,-2.2984,-2.2994,-2.2988,-2.3368,-2.3486,-2.3188,-2.3535,-2.367,-2.3287,-2.3143,-2.2936,-2.2615,-2.247,-2.2387,-2.2436,-2.2745,-2.3033,-2.3107,-2.4128,-2.4653,-2.4648,-2.4473,-2.4303,-2.4235,-2.4303,-2.4258,-2.4212,-2.4039,-2.3851,-2.3494,-2.3173,-2.2937,-2.2654,-2.2544,-2.2339,-2.1904,-2.1814,-2.1935,-2.2108,-2.2106,-2.2075,-1.1968,-1.1862,-1.1597,-1.1333,-1.1117,-1.1149,-1.1298,-1.1477,-1.1669,-1.1929,-1.2224,-1.2305,-1.2305,-1.2305,-1.2305,-1.2305,-1.2305,-1.2305,-1.2305,-1.2305,-1.2305,-1.2305,-1.2305,-1.2305,-1.2305,-1.2305,-1.2335,-1.2342,-1.2305,-1.2378,-1.2378,-1.2305,-1.2378,-1.2378,0.0,0.0,0.0,0.0,-1.3244,-1.4142,-1.5037,-1.5683,-1.6263,-1.6745,-1.623,0.0,-1.5698,-1.5469,-1.5258,-1.512,-1.5404,0.0,0.0,0.0,0.0,0.0,0.0,0.0,0.0,0.0,0.0,0.0,-1.8125,-1.7939,-1.7513,-1.8789,-1.9808,-2.0246,-2.0771,-2.1238,-2.1661,-2.2172,-2.2402,-2.2168,-2.2432,-2.2542,-2.2419,-2.2619,-2.2775,-2.2859,-2.3145,-2.3287,-2.3153,-2.2863,-2.2594,-2.247,-2.217,-2.1952,-2.1952,-2.2573,-2.3004,-2.3068,-2.381,-2.4317,-2.4349,-2.4568,-2.4556,-2.4361,-2.4545,-2.459,-2.4235,-2.35,-2.3165,-2.3255,-2.2412,-2.1789,-2.1986,-2.1734,-2.1512,-2.1362,-2.1351,-2.1435,-2.1713,-2.1776,-2.1847,-1.2121,0.0,-1.1742,-1.1492,0.0,-1.1117,-1.1149,-1.126,-1.1558,-1.1935,-1.2305,-1.2305,-1.2305,-1.2305,-1.2305,-1.2305,-1.2305,-1.2305,-1.2305,-1.2305,-1.2305,-1.2305,-1.2305,-1.2305,-1.2305,-1.2305,-1.2305,-1.2305,-1.2305,-1.2305,-1.2305,-1.2305,-1.2305,-1.2305,-1.2305,-1.2305,-1.2482,-1.2879,-1.3673,-1.4422,-1.518,-1.5939,-1.6427,-1.6581,0.0,0.0,0.0,0.0,0.0,0.0,0.0,0.0,0.0,0.0,0.0,-1.6127,-1.6122,-1.6349,-1.6901,-1.7114,-1.7624,-1.8529,-1.8987,-1.9082,-1.8662,-1.9619,-2.042,-2.0859,-2.1064,-2.1366,-2.1846,-2.209,-2.2119,-2.1924,-2.2154,-2.2308,-2.2254,-2.2482,-2.2595,-2.2493,-2.2672,-2.277,-2.2532,-2.2325,-2.217,-2.2149,-2.1963,-2.1807,-2.1845,-2.2327,-2.2815,-2.3224,-2.3604,-2.397,-2.4164,-2.4372,-2.4499,-2.4292,-2.4407,-2.4441,-2.4235,-2.3569,-2.3075,-2.3029,-2.2192,-2.1573,-2.1483,-2.1353,-2.1201,-2.1201,-2.1201,-2.1296,-2.1486,-2.1498,-2.1529,-1.2427,-1.1952,-1.1938,-1.1603,-1.1184,-1.1098,-1.1149,-1.1223,0.0,0.0,0.0,-1.2305,-1.2305,-1.2305,-1.2305,-1.2305,-1.2305,-1.2305,-1.2305,-1.2305,-1.2305,-1.2305,-1.2305,-1.2305,-1.2305,-1.2305,-1.2305,-1.2305,-1.2305,-1.2305,-1.2305,-1.2305,-1.2305,-1.2305,-1.2305,-1.2305,-1.2703,-1.3499,-1.3962,-1.4573,-1.5401,-1.6123,-1.639,-1.622,-1.6592,-1.6486,-1.5835,-1.6129,-1.6156,-1.5826,-1.5863,-1.6056,-1.6395,-1.6389,-1.6628,-1.7104,-1.7358,-1.7529,-1.7647,-1.7905,-1.8305,-1.8792,-1.9475,-1.9951,-2.0019,-2.04,-2.0752,-2.1161,-2.1122,-2.1299,-2.1728,-2.1768,-2.1738,-2.167,-2.1924,-2.2066,-2.2068,-2.2332,-2.2381,-2.2114,-2.2249,-2.2242,-2.1911,-2.1838,-2.1807,-2.1807,-2.1818,-2.1807,-2.1845,-2.2138,-2.2703,-2.3409,-2.3629,-2.374,-2.408,-2.4212,-2.4189,-2.42,-2.42,-2.4166,-2.4028,-2.3614,-2.311,-2.2601,-2.213,-2.1661,-2.1305,-2.1213,-2.1201,-2.1201,-2.1201,-2.1221,-2.1336,-2.1273,-2.1328,-1.253,-1.2199,-1.2017,-1.1712,-1.1411,-1.1176,-1.1292,-1.1595,-1.1669,-1.1935,-1.2305,-1.2305,-1.2305,-1.2305,-1.2305,-1.2305,-1.2305,-1.2305,-1.2305,0.0,-1.2305,-1.2305,-1.2305,-1.2305,-1.2305,-1.2305,-1.2305,-1.2305,-1.2305,-1.2305,-1.2305,-1.2305,-1.2305,-1.2305,-1.2305,-1.2305,-1.2703,-1.3462,-1.2922,-1.3018,-1.3825,-1.4537,-1.5226,-1.5852,-1.6226,-1.6325,-1.6239,-1.6285,-1.626,-1.6239,-1.6551,-1.6762,-1.6817,-1.6817,-1.6853,-1.6934,-1.7141,-1.7314,-1.7505,-1.8056,-1.8737,-1.9611,-1.9806,-2.0068,-2.0478,-2.0566,-2.0752,-2.1132,-2.0898,-2.084,-2.126,-2.1278,-2.1182,-2.0909,-2.1293,-2.1541,-2.1419,-2.1592,-2.1755,-2.1876,-2.1862,-2.1911,-2.1838,-2.1807,-2.1807,-2.1807,-2.1807,-2.1807,-2.1845,-2.2149,-2.2703,-2.3372,-2.3593,-2.3787,-2.408,-2.4189,-2.4189,-2.4189,-2.419,-2.4018,-2.3625,-2.3155,-2.265,-2.2136,-2.1653,-2.1351,-2.1201,-2.1201,-2.1201,-2.1201,-2.1201,-2.1201,-2.1253,-2.1221,-2.1285,-1.1787,-1.1585,-1.1786,-1.1736,-1.1471,-1.1188,-1.126,-1.1521,-1.1558,-1.1818,-1.2268,-1.2305,-1.2305,-1.2305,-1.2305,-1.2305,-1.2305,-1.2305,-1.2305,-1.2305,-1.2305,-1.2305,-1.2305,-1.2305,-1.2305,-1.2305,-1.2305,-1.2305,-1.2305,-1.2305,-1.2305,-1.2305,-1.2305,-1.2305,-1.2305,-1.2305,-1.2482,-1.2842,-1.331,-1.3926,-1.4752,-1.5471,-1.6044,-1.6368,-1.6544,-1.6599,-1.6633,-1.6608,-1.6642,-1.6608,-1.6807,-1.6908,-1.6908,-1.6908,-1.6908,-1.6908,-1.7072,-1.7279,-1.7495,-1.8139,-1.8712,-1.9163,-1.9658,-1.999,-2.0195,-2.0468,-2.0683,-2.085,-2.0713,-2.0683,-2.085,-2.0869,-2.0791,-2.0625,-2.0957,-2.1192,-2.1217,-2.1397,-2.1578,-2.1769,-2.1807,-2.1807,-2.1807,-2.1807,-2.1807,-2.1807,-2.1807,-2.1807,-2.1807,-2.1959,-2.2365,-2.3065,-2.3261,-2.3567,-2.408,-2.4189,-2.4189,-2.4189,-2.3941,-2.3675,-2.3386,-2.28,-2.2238,-2.1941,-2.1504,-2.1259,-2.1201,-2.1201,-2.1201,-2.1201,-2.1201,-2.1201,-2.1201,-2.1201,-2.1265,-1.1177,-1.1078,-1.1647,-1.1694,-1.1387,-1.1202,-1.1223,-1.1409,-1.1409,-1.1706,-1.2114,-1.2231,-1.2224,-1.2305,-1.2305,-1.2305,-1.2305,-1.2305,-1.2305,-1.2305,-1.2305,-1.2305,-1.2305,-1.2305,-1.2305,-1.2305,-1.2305,-1.2305,-1.2305,-1.2305,-1.2305,-1.2305,-1.2305,-1.2305,-1.2305,-1.2305,-1.2378,-1.2629,-1.3738,-1.4645,-1.5294,-1.6184,-1.6656,-1.6656,-1.6795,-1.6908,-1.6908,-1.6908,-1.6908,-1.6908,-1.6908,-1.6908,-1.6908,-1.6908,-1.6908,-1.6943,-1.7107,-1.7314,-1.7548,-1.8103,-1.85,-1.8607,-1.9212,-1.9668,-1.9785,-2.0078,-2.0419,-2.0566,-2.0615,-2.0615,-2.0635,-2.0625,-2.0615,-2.0605,-2.0819,-2.1071,-2.1205,-2.1387,-2.1617,-2.1769,-2.1807,-2.1807,-2.1807,-2.1807,-2.1807,-2.1807,-2.1807,-2.1807,-2.1807,-2.1807,-2.2111,-2.2628,-2.2927,-2.3335,-2.4043,-2.4189,-2.4143,-2.4062,-2.3688,-2.3317,-2.3018,-2.2353,-2.1883,-2.1711,-2.1477,-2.1236,-2.1201,-2.1201,-2.1201,-2.1201,-2.1201,-2.1201,-2.1201,-2.1201,-2.1201,-1.1268,-1.1353,-1.1682,-1.1618,-1.1184,-1.1129,-1.1223,-1.1372,-1.1409,-1.1521,-1.1781,-1.1935,-1.2114,-1.2305,-1.2305,-1.2305,-1.2305,-1.2305,-1.2305,-1.2305,-1.2305,-1.2305,-1.2305,-1.2305,-1.2305,-1.2305,-1.2305,-1.2305,-1.2305,-1.2305,-1.2305,-1.2305,-1.2305,-1.2305,-1.2305,-1.2305,-1.2666,-1.3353,-1.3535,-1.3644,-1.3781,-1.5144,-1.5903,-1.5903,-1.6551,-1.6908,-1.6908,-1.6908,-1.6908,-1.6908,-1.6908,-1.6908,-1.6908,-1.6908,-1.6908,-1.6908,-1.7107,-1.7339,-1.7638,-1.7901,-1.8198,-1.8559,-1.8685,-1.8955,-1.9307,-1.9394,-1.9783,-2.0361,-2.0586,-2.0576,-2.0615,-2.0615,-2.0615,-2.0605,-2.0886,-2.1215,-2.1205,-2.155,-2.1769,-2.1769,-2.1807,-2.1807,-2.1807,-2.1807,-2.1807,-2.1807,-2.1807,-2.1807,-2.1807,-2.1807,-2.1959,-2.2402,-2.274,-2.3287,-2.3959,-2.4189,-2.4028,-2.3626,-2.3421,-2.3048,-2.2418,-2.2043,-2.1768,-2.1433,-2.1293,-2.1213,-2.1201,-2.1201,-2.1201,-2.1201,-2.1201,-2.1201,-2.1201,-2.1201,-2.1201,-0.9975,-1.0509,-1.1091,-1.1324,-1.1339,-1.119,-1.1149,-1.1223,-1.1223,-1.1335,-1.1521,-1.1595,-1.1818,-1.2114,-1.2114,-1.2187,-1.2305,-1.2305,-1.2305,-1.2305,-1.2305,-1.2305,-1.2305,-1.2305,-1.2305,-1.2305,-1.2305,-1.2305,-1.2305,-1.2305,-1.2305,-1.2305,-1.2305,-1.2305,-1.2305,-1.2305,-1.2489,-1.2813,-1.3244,-1.3491,-1.3673,-1.501,-1.6009,-1.6438,-1.676,-1.6908,-1.6908,-1.6908,-1.6908,-1.6908,-1.6908,-1.6908,-1.6908,-1.6908,-1.6934,-1.7072,-1.7339,-1.7545,-1.7672,-1.7896,-1.8086,-1.8217,-1.8471,-1.8685,-1.8861,-1.9131,-1.9463,-1.9793,-2.0077,-2.0273,-2.0546,-2.0605,-2.0615,-2.0605,-2.076,-2.0925,-2.1167,-2.1359,-2.1502,-2.1731,-2.1807,-2.1807,-2.1807,-2.1807,-2.1807,-2.1807,-2.1807,-2.1807,-2.1807,-2.1807,-2.1987,-2.2285,-2.2328,-2.2691,-2.3576,-2.408,-2.3876,-2.3501,-2.3138,-2.2666,-2.2116,-2.1617,-2.1376,-2.1213,-2.1213,-2.1201,-2.1201,-2.1201,-2.1201,-2.1201,-2.1201,-2.1201,-2.1201,-2.1201,-2.1201,-0.8886,-0.9634,-1.052,-1.1115,-1.1483,-1.1279,-1.1184,-1.1117,-1.1117,-1.1186,-1.1298,-1.1335,-1.1521,-1.1818,-1.1892,-1.204,-1.2187,-1.2224,-1.2261,-1.2305,-1.2305,-1.2305,-1.2305,-1.2305,-1.2305,-1.2305,-1.2305,-1.2305,-1.2305,-1.2305,-1.2305,-1.2305,-1.2305,-1.2305,-1.2305,-1.2305,-1.2305,-1.2342,-1.2886,-1.328,-1.3608,-1.4617,-1.5613,-1.6517,-1.6804,-1.6908,-1.6908,-1.6908,-1.6908,-1.6908,-1.6908,-1.6908,-1.6908,-1.6943,-1.7072,-1.7339,-1.7579,-1.7706,-1.7784,-1.793,-1.8008,-1.8027,-1.8276,-1.8442,-1.8481,-1.875,-1.8975,-1.9141,-1.9394,-1.9756,-2.0341,-2.0429,-2.0468,-2.0566,-2.0644,-2.0819,-2.1177,-2.1244,-2.1436,-2.1731,-2.1807,-2.1807,-2.1807,-2.1807,-2.1807,-2.1807,-2.1807,-2.1807,-2.1807,-2.1797,-2.188,-2.2008,-2.1829,-2.2153,-2.3058,-2.3368,-2.3401,-2.3052,-2.2533,-2.2312,-2.1851,-2.1406,-2.1201,-2.1213,-2.1201,-2.1201,-2.1201,-2.1201,-2.1201,-2.1201,-2.1201,-2.1201,-2.1201,-2.1201,-2.1201,-0.8544,-0.8777,-1.0224,-1.1074,-1.1495,-1.1432,-1.1309,-1.1117,-1.1117,-1.1111,-1.1149,-1.1149,-1.1223,-1.1446,-1.1595,-1.1818,-1.2009,-1.2003,-1.2114,-1.2268,-1.2268,-1.2305,-1.2305,-1.2305,-1.2305,-1.2305,-1.2305,-1.2305,-1.2305,-1.2305,-1.2305,-1.2305,-1.2305,-1.2305,-1.2305,-1.2305,-1.2305,-1.2305,-1.2378,-1.2739,-1.339,-1.3571,-1.4394,-1.5683,-1.6508,-1.6795,-1.6874,-1.6874,-1.6908,-1.6908,-1.6908,-1.6908,-1.6908,-1.7072,-1.7339,-1.7604,-1.7672,-1.7784,-1.7974,-1.7974,-1.8008,-1.8008,-1.8057,-1.8057,-1.8096,-1.8154,-1.833,-1.8598,-1.8676,-1.9026,-1.9766,-1.9971,-2.0146,-2.0507,-2.0731,-2.0935,-2.1177,-2.1359,-2.154,-2.1731,-2.1807,-2.1807,-2.1807,-2.1807,-2.1807,-2.1807,-2.1807,-2.1807,-2.1797,-2.1797,-2.159,-2.1401,-2.1481,-2.1825,-2.2258,-2.2579,-2.2273,-2.1981,-2.2014,-2.1846,-2.1496,-2.1201,-2.1201,-2.1201,-2.1201,-2.1201,-2.1201,-2.1201,-2.1201,-2.1201,-2.1201,-2.1201,-2.1201,-2.1201,-2.1201,-0.7929,-0.8567,-0.9578,-1.0321,-1.08,-1.0684,-1.0785,-1.1086,-1.1117,-1.1117,-1.1117,-1.1117,-1.1149,-1.1217,-1.1298,-1.1484,-1.1781,-1.1818,-1.1929,-1.2077,-1.2114,-1.2194,-1.2305,-1.2305,-1.2305,-1.2305,-1.2305,-1.2305,-1.2305,-1.2305,-1.2305,-1.2305,-1.2305,-1.2305,-1.2305,-1.2305,-1.2305,-1.2305,-1.2305,-1.2439,-1.2769,-1.3208,-1.3781,-1.4322,-1.5037,-1.5683,-1.6193,-1.6184,-1.6403,-1.6874,-1.6908,-1.6908,-1.6943,-1.722,-1.7461,-1.7554,-1.7759,-1.793,-1.7974,-1.8008,-1.8008,-1.8008,-1.8008,-1.8008,-1.8008,-1.8008,-1.8076,-1.8203,-1.8198,-1.8516,-1.8997,-1.9533,-1.9971,-2.0137,-2.0477,-2.0828,-2.1128,-2.1282,-2.1425,-2.1693,-2.1807,-2.1807,-2.1769,-2.1769,-2.1807,-2.1807,-2.1807,-2.1776,-2.1735,-2.1569,-2.128,-2.1062,-2.0761,-2.0516,-2.0632,-2.168,-2.2071,-2.1765,-2.1587,-2.1559,-2.1354,-2.1138,-2.1094,-2.1094,-2.1138,-2.1169,-2.1169,-2.1201,-2.1201,-2.1201,-2.1201,-2.1201,-2.1201,-2.1169,-2.1169,-0.7837,-0.8956,-0.9434,-1.0225,-1.0987,-1.0789,-1.0867,-1.1206,-1.1154,-1.1117,-1.1117,-1.1117,-1.1117,-1.1117,-1.1117,-1.1223,-1.1484,-1.1558,-1.17,-1.1892,-1.1898,-1.2003,-1.2187,-1.2187,-1.2224,-1.2268,-1.2305,-1.2305,-1.2305,-1.2305,-1.2305,-1.2305,-1.2305,-1.2305,-1.2305,-1.2305,-1.2305,-1.2305,-1.2305,-1.2305,-1.2378,-1.2813,-1.3105,-1.3171,-1.36,-1.4494,-1.5719,-1.6017,-1.6368,-1.6839,-1.6908,-1.6943,-1.7003,-1.7254,-1.7461,-1.7554,-1.7769,-1.794,-1.8008,-1.8008,-1.8008,-1.8008,-1.8008,-1.8008,-1.8008,-1.8008,-1.8008,-1.8008,-1.8018,-1.812,-1.8442,-1.9072,-1.9551,-1.9727,-2.0098,-2.0543,-2.0928,-2.1125,-2.1318,-2.1527,-2.1711,-2.1711,-2.1621,-2.1556,-2.1542,-2.158,-2.1476,-2.1362,-2.13,-2.1124,-2.0814,-2.0669,-2.0228,-1.9869,-1.9881,-2.0559,-2.1185,-2.0974,-2.1026,-2.1083,-2.1152,-2.101,-2.0955,-2.0987,-2.1031,-2.1094,-2.1126,-2.1169,-2.1201,-2.1169,-2.1201,-2.1201,-2.1138,-2.1063,-2.0999,-0.8141,-0.9575,-0.9831,-1.0554,-1.171,-1.1543,-1.1593,-1.1447,-1.1182,-1.1117,-1.1117,-1.1117,-1.1117,-1.1117,-1.1117,-1.1111,-1.1186,-1.1335,-1.1521,-1.1669,-1.1706,-1.1824,-1.2003,-1.204,-1.2157,-1.2305,-1.2305,-1.2305,-1.2305,-1.2305,-1.2305,-1.2305,-1.2305,-1.2305,-1.2305,-1.2305,-1.2305,-1.2305,-1.2305,-1.2305,-1.2305,-1.2378,-1.2415,-1.2372,-1.2519,-1.3564,-1.5648,-1.6333,-1.6656,-1.6795,-1.6874,-1.7003,-1.7132,-1.7245,-1.7339,-1.7613,-1.7716,-1.7818,-1.7974,-1.8008,-1.8008,-1.8008,-1.8008,-1.8008,-1.8008,-1.8008,-1.8008,-1.8008,-1.8008,-1.8037,-1.8071,-1.8451,-1.889,-1.9258,-1.9707,-2.011,-2.0549,-2.0971,-2.1183,-2.1204,-2.1442,-2.1562,-2.1257,-2.1104,-2.1087,-2.1015,-2.0788,-2.0571,-2.0581,-2.0524,-2.0245,-2.0,-1.9772,-1.9554,-1.945,-1.9428,-1.9758,-2.0074,-2.0238,-2.0377,-2.0582,-2.0528,-2.0528,-2.0571,-2.0764,-2.0828,-2.0828,-2.0903,-2.0967,-2.0999,-2.1063,-2.1031,-2.0903,-2.0732,-2.0667,-0.7445,-0.7965,-0.7969,-0.8905,-1.0272,-1.0095,-1.0487,-1.1432,-1.1232,-1.1117,-1.1117,-1.1117,-1.1117,-1.1117,-1.1117,-1.1117,-1.1117,-1.118,-1.1292,-1.1484,-1.1632,-1.1818,-1.2003,-1.215,-1.2224,-1.2268,-1.2305,-1.2305,-1.2305,-1.2305,-1.2305,-1.2305,-1.2305,-1.2305,-1.2305,-1.2305,-1.2305,-1.2305,-1.2305,-1.2305,-1.2305,-1.2305,-1.2305,-1.2342,-1.2842,-1.3781,-1.4895,-1.518,-1.5578,-1.6158,-1.6621,-1.6943,-1.7047,-1.7254,-1.7461,-1.7564,-1.7803,-1.793,-1.7974,-1.8008,-1.8008,-1.8008,-1.8008,-1.8008,-1.8008,-1.8008,-1.8008,-1.8008,-1.8008,-1.8008,-1.8076,-1.8354,-1.8754,-1.9248,-1.9404,-1.9777,-2.0356,-2.0585,-2.078,-2.1038,-2.0958,-2.0782,-2.0658,-2.0633,-2.0612,-2.0602,-2.0436,-2.0323,-2.0323,-2.01,-1.9965,-1.9813,-1.9575,-1.9347,-1.9268,-1.9241,-1.9429,-1.9682,-1.9813,-1.9977,-2.0096,-2.0096,-2.0107,-2.0237,-2.041,-2.0539,-2.056,-2.0592,-2.07,-2.0592,-2.0495,-2.0463,-2.0431,-2.0366,-2.028,-0.7316,-0.7625,-0.7625,-0.8388,-0.9582,-0.935,-0.9958,-1.1015,-1.0835,-1.0857,-1.1055,-1.1117,-1.1117,-1.1117,-1.1117,-1.1117,-1.1117,-1.1117,-1.1149,-1.1298,-1.1409,-1.1632,-1.1892,-1.2194,-1.2305,-1.2305,-1.2305,-1.2305,-1.2305,-1.2305,-1.2305,-1.2305,-1.2305,-1.2305,-1.2305,-1.2305,-1.2305,-1.2305,-1.2305,-1.2305,-1.2305,-1.2305,-1.2305,-1.2378,-1.2769,-1.3419,-1.4135,-1.4422,-1.5108,-1.6044,-1.6656,-1.6908,-1.7003,-1.7245,-1.7461,-1.7588,-1.7759,-1.794,-1.7974,-1.8008,-1.8008,-1.8008,-1.8008,-1.8008,-1.8008,-1.8008,-1.8008,-1.8008,-1.8008,-1.8008,-1.8047,-1.8188,-1.8594,-1.9004,-1.9209,-1.9577,-2.0136,-2.0302,-2.0375,-2.0509,-2.0498,-2.0343,-2.024,-2.0193,-2.0182,-2.0172,-2.0027,-1.9924,-1.9872,-1.9699,-1.9616,-1.9523,-1.9347,-1.9191,-1.9129,-1.9131,-1.9198,-1.9363,-1.9528,-1.9682,-1.9813,-1.9682,-1.9616,-1.9922,-2.0118,-2.0269,-2.0334,-2.0366,-2.0399,-2.0193,-2.0031,-2.0161,-2.0226,-2.002,-1.9922,-0.7621,-0.8368,-0.8412,-0.8838,-0.962,-0.9432,-0.9722,-1.0332,-1.014,-1.0302,-1.0773,-1.0887,-1.0962,-1.0999,-1.1037,-1.1117,-1.1117,-1.1117,-1.1117,-1.1111,-1.1186,-1.1329,-1.1744,-1.2077,-1.2194,-1.2194,-1.2231,-1.2268,-1.2224,-1.2305,-1.2305,-1.2305,-1.2305,-1.2305,-1.2305,-1.2305,-1.2305,-1.2305,-1.2305,-1.2305,-1.2305,-1.2305,-1.2305,-1.2305,-1.2378,-1.2769,-1.3564,-1.4358,-1.5428,-1.6647,-1.6908,-1.7012,-1.7166,-1.7235,-1.7407,-1.7672,-1.7716,-1.7862,-1.7974,-1.8008,-1.8008,-1.8008,-1.8008,-1.8008,-1.8008,-1.8008,-1.8008,-1.8008,-1.8008,-1.8008,-1.8018,-1.8091,-1.832,-1.8588,-1.9056,-1.9462,-1.9811,-2.0002,-2.0016,-1.9953,-2.0102,-2.0189,-1.9778,-1.9734,-1.9761,-1.9699,-1.9461,-1.9336,-1.9274,-1.9264,-1.915,-1.9119,-1.9139,-1.9129,-1.9098,-1.9098,-1.9164,-1.9198,-1.933,-1.9429,-1.9528,-1.9386,-1.9287,-1.9561,-1.9824,-1.9977,-2.0031,-2.0009,-1.9977,-1.9846,-1.9835,-1.9998,-1.9857,-1.9532,-1.9328,-0.7228,-0.7448,-0.7492,-0.8013,-0.8773,-0.8563,-0.8923,-0.9533,-0.9325,-0.9364,-0.9527,-0.9992,-1.0293,-1.0293,-1.0887,-1.1117,-1.1117,-1.1117,-1.1117,-1.1117,-1.1117,-1.1329,-1.1632,-1.1818,-1.1855,-1.1892,-1.204,-1.2077,-1.2077,-1.2231,-1.2268,-1.2305,-1.2305,-1.2305,-1.2305,-1.2305,-1.2305,-1.2305,-1.2305,-1.2305,-1.2305,-1.2305,-1.2305,-1.2305,-1.2305,-1.2732,-1.3571,-1.4796,-1.5903,-1.676,-1.7038,-1.7132,-1.7201,-1.7407,-1.7569,-1.7706,-1.7852,-1.793,-1.8008,-1.8008,-1.8008,-1.8008,-1.8008,-1.8008,-1.8008,-1.8008,-1.8008,-1.8008,-1.8008,-1.8008,-1.8057,-1.8227,-1.8461,-1.8613,-1.8927,-1.9218,-1.9344,-1.9369,-1.9476,-1.9737,-1.9613,-1.9424,-1.9352,-1.9323,-1.9326,-1.9295,-1.9212,-1.9098,-1.9098,-1.9098,-1.9098,-1.9098,-1.9108,-1.9108,-1.9098,-1.9098,-1.9098,-1.9098,-1.9164,-1.9198,-1.9264,-1.9198,-1.9164,-1.9274,-1.9528,-1.9715,-1.9594,-1.9528,-1.9495,-1.9518,-1.9485,-1.9486,-1.905,-1.871,-1.8532,-0.7095,-0.7095,-0.7095,-0.7401,-0.7878,-0.774,-0.807,-0.8669,-0.894,-0.9081,-0.9362,-1.0062,-1.0406,-1.0481,-1.0887,-1.1117,-1.1117,-1.1117,-1.1117,-1.1117,-1.1117,-1.1298,-1.1521,-1.1632,-1.1706,-1.1706,-1.1811,-1.1892,-1.1885,-1.2077,-1.2157,-1.2187,-1.2268,-1.2305,-1.2305,-1.2305,-1.2305,-1.2305,-1.2305,-1.2305,-1.2305,-1.2305,-1.2305,-1.2378,-1.2592,-1.328,-1.4438,-1.5648,-1.6368,-1.6508,-1.6786,-1.7141,-1.7314,-1.7476,-1.7691,-1.7794,-1.794,-1.8008,-1.8008,-1.8008,-1.8008,-1.8008,-1.8008,-1.8008,-1.8008,-1.8008,-1.8008,-1.8008,-1.8008,-1.8008,-1.8037,-1.8198,-1.8325,-1.8359,-1.8621,-1.8804,-1.8838,-1.8788,-1.8917,-1.9097,-1.9093,-1.8965,-1.8998,-1.9042,-1.9098,-1.9108,-1.9139,-1.9098,-1.9098,-1.9098,-1.9098,-1.9098,-1.9098,-1.9098,-1.9098,-1.9098,-1.9098,-1.9098,-1.9098,-1.9098,-1.9098,-1.9098,-1.9098,-1.9175,-1.9308,-1.9374,-1.9308,-1.9241,-1.9274,-1.9231,-1.9131,-1.8901,-1.8548,-1.8206,-1.7988,-0.7095,-0.7095,-0.7095,-0.7095,-0.7139,-0.7132,-0.7386,-0.7842,-0.8401,-0.8909,-0.9339,-1.0244,-1.0319,-1.0844,-1.0663,-1.0962,-1.1111,-1.1117,-1.1117,-1.1117,-1.1117,-1.1223,-1.1372,-1.1484,-1.1552,-1.1595,-1.1632,-1.1669,-1.1706,-1.1855,-1.1966,-1.2003,-1.2157,-1.2261,-1.2268,-1.2268,-1.2305,-1.2305,-1.2305,-1.2305,-1.2305,-1.2305,-1.2305,-1.2378,-1.2813,-1.3644,-1.4824,-1.5939,-1.6254,-1.5683,-1.6473,-1.7081,-1.7426,-1.7505,-1.7676,-1.7915,-1.7974,-1.8008,-1.8008,-1.8008,-1.8008,-1.8008,-1.8008,-1.8008,-1.8008,-1.8008,-1.8008,-1.8008,-1.8008,-1.8008,-1.8008,-1.8037,-1.8057,-1.8086,-1.8227,-1.8255,-1.8269,-1.8303,-1.8371,-1.8482,-1.8684,-1.8741,-1.8808,-1.8942,-1.9075,-1.9008,-1.9031,-1.9098,-1.9098,-1.9098,-1.9098,-1.9098,-1.9098,-1.9098,-1.9098,-1.9098,-1.9098,-1.9098,-1.9098,-1.9098,-1.9098,-1.9098,-1.9098,-1.9164,-1.9231,-1.9231,-1.9164,-1.9131,-1.91,-1.8953,-1.8849,-1.8611,-1.8299,-1.7968,-1.7729,-0.7095,-0.7095,-0.7095,-0.7095,-0.7095,-0.7092,-0.7056,-0.7033,-0.7191,-0.7412,-0.7347,-0.7974,-0.8732,-0.9301,-0.9916,-1.0475,-1.0999,-1.108,-1.1117,-1.1117,-1.1117,-1.1117,-1.1186,-1.126,-1.126,-1.126,-1.1409,-1.1446,-1.1521,-1.1669,-1.1781,-1.1781,-1.1966,-1.2077,-1.2083,-1.2231,-1.2305,-1.2305,-1.2305,-1.2305,-1.2305,-1.2305,-1.2335,-1.2445,-1.2629,-1.2776,-1.3237,-1.4394,-1.4966,-1.5251,-1.6245,-1.722,-1.7426,-1.7554,-1.7725,-1.7906,-1.7974,-1.7974,-1.8008,-1.7974,-1.8008,-1.8008,-1.8008,-1.8008,-1.8008,-1.8008,-1.8008,-1.8008,-1.8008,-1.8008,-1.8008,-1.8008,-1.8008,-1.8008,-1.8042,-1.8076,-1.811,-1.8269,-1.8414,-1.8482,-1.8516,-1.8549,-1.8583,-1.8741,-1.8841,-1.8875,-1.8975,-1.9065,-1.9098,-1.9098,-1.9098,-1.9098,-1.9098,-1.9098,-1.9098,-1.9098,-1.9098,-1.9098,-1.9098,-1.9098,-1.9098,-1.9015,-1.8984,-1.9025,-1.9131,-1.9067,-1.8953,-1.8932,-1.8859,-1.8725,-1.8485,-1.8154,-1.7843,-1.7585,-1.7388,-0.7095,-0.7095,-0.7095,-0.7095,-0.7095,-0.7092,-0.693,-0.6819,-0.7109,-0.7093,-0.7076,-0.7714,-0.8284,-0.8703,-0.916,-0.9765,-1.0519,-1.0968,-1.1117,-1.1117,-1.1117,-1.1117,-1.1117,-1.1117,-1.1117,-1.1105,-1.118,-1.126,-1.1298,-1.1446,-1.1558,-1.1558,-1.1781,-1.1929,-1.1966,-1.2114,-1.2194,-1.2268,-1.2305,-1.2305,-1.2305,-1.2305,-1.2806,-1.3237,-1.3419,-1.3629,-1.4637,-1.5251,-1.5648,-1.5895,-1.6542,-1.7141,-1.7314,-1.7407,-1.7579,-1.7735,-1.7828,-1.7862,-1.7852,-1.793,-1.8008,-1.8008,-1.8008,-1.8008,-1.8008,-1.8008,-1.8008,-1.8008,-1.8008,-1.8008,-1.8008,-1.8008,-1.8008,-1.8008,-1.8008,-1.8008,-1.8042,-1.8178,-1.8279,-1.8279,-1.8347,-1.8371,-1.8472,-1.8573,-1.8707,-1.8774,-1.8841,-1.8931,-1.9098,-1.9098,-1.9098,-1.9098,-1.9098,-1.9098,-1.9098,-1.9098,-1.9098,-1.9098,-1.9098,-1.9098,-1.9098,-1.8973,-1.8828,-1.8891,-1.8932,-1.8766,-1.8673,-1.8652,-1.8485,-1.8237,-1.7957,-1.7606,-1.7368,-1.7244,-1.7015,-0.7095,-0.7095,-0.7095,-0.7095,-0.7095,-0.7092,-0.6927,-0.6805,-0.7394,-0.7335,-0.749,-0.8169,-0.8394,-0.8742,-0.8932,-0.9387,-1.0137,-1.0738,-1.1117,-1.1117,-1.1117,-1.1117,-1.1117,-1.1117,-1.1117,-1.1117,-1.1111,-1.1111,-1.1149,-1.126,-1.1335,-1.1372,-1.1589,-1.1781,-1.1929,-1.204,-1.2157,-1.2268,-1.2305,-1.2305,-1.2305,-1.2305,-1.2915,-1.3557,-1.3846,-1.4243,-1.51,-1.5824,-1.6324,-1.6542,-1.676,-1.6968,-1.7097,-1.7201,-1.7314,-1.7529,-1.7691,-1.775,-1.7818,-1.7896,-1.8008,-1.8008,-1.8008,-1.8008,-1.8008,-1.8008,-1.8008,-1.8008,-1.8008,-1.8008,-1.8008,-1.8008,-1.8008,-1.8008,-1.8008,-1.8008,-1.8008,-1.8008,-1.8042,-1.8042,-1.8144,-1.8202,-1.8269,-1.8371,-1.8539,-1.8674,-1.8741,-1.8798,-1.8931,-1.9065,-1.9031,-1.9065,-1.9065,-1.9098,-1.9098,-1.9098,-1.9098,-1.9015,-1.9025,-1.8942,-1.8901,-1.8589,-1.8423,-1.8662,-1.8673,-1.8465,-1.8247,-1.8164,-1.7957,-1.7699,-1.7502,-1.7275,-1.7099,-1.6934,-1.6694,-0.7095,-0.7095,-0.7095,-0.7095,-0.7095,-0.7095,-0.6973,-0.6729,-0.6905,-0.6731,-0.6669,-0.733,-0.805,-0.8623,-0.943,-1.0105,-1.055,-1.0962,-1.1117,-1.1117,-1.1111,-1.1111,-1.1069,-1.1105,-1.1105,-1.1117,-1.1117,-1.1117,-1.1117,-1.1155,-1.1186,-1.1223,-1.1484,-1.1706,-1.1855,-1.2046,-1.2187,-1.2268,-1.2305,-1.2305,-1.2305,-1.2342,-1.2475,-1.3018,-1.3164,-1.3382,-1.3629,-1.4458,-1.5002,-1.5108,-1.6228,-1.6795,-1.7003,-1.7107,-1.7304,-1.7545,-1.7647,-1.7716,-1.7862,-1.7974,-1.8008,-1.8008,-1.8008,-1.8008,-1.8008,-1.8008,-1.8008,-1.8008,-1.8008,-1.8008,-1.8008,-1.8008,-1.8008,-1.8008,-1.8008,-1.8008,-1.8008,-1.8008,-1.8008,-1.8008,-1.8042,-1.8076,-1.8144,-1.8236,-1.8337,-1.8472,-1.8539,-1.8573,-1.8674,-1.8774,-1.8841,-1.8908,-1.9008,-1.9031,-1.9098,-1.9098,-1.9077,-1.8901,-1.8808,-1.8579,-1.8413,-1.8081,-1.8019,-1.8143,-1.8123,-1.7884,-1.775,-1.7657,-1.7461,-1.7203,-1.7079,-1.6986,-1.68,-1.6663,-1.6591,-0.665,-0.7095,-0.7095,-0.7095,-0.7095,-0.7095,-0.693,-0.6725,-0.6695,-0.6536,-0.6482,-0.6718,-0.7061,-0.7595,-0.828,-0.9306,-1.0325,-1.0962,-1.108,-1.1117,-1.1111,-1.1021,-1.0979,-1.1039,-1.1003,-1.0948,-1.099,-1.1117,-1.1117,-1.1117,-1.1117,-1.1149,-1.1298,-1.1484,-1.1669,-1.1855,-1.2114,-1.2231,-1.2305,-1.2305,-1.2305,-1.2305,-1.2445,-1.2879,-1.331,-1.3665,-1.4279,-1.51,-1.5789,-1.6009,-1.6499,-1.683,-1.6943,-1.7012,-1.7166,-1.7407,-1.7554,-1.7657,-1.7828,-1.793,-1.8008,-1.8008,-1.8008,-1.8008,-1.8008,-1.8008,-1.8008,-1.8008,-1.8008,-1.8008,-1.8008,-1.8008,-1.8008,-1.8008,-1.8008,-1.8008,-1.8008,-1.8008,-1.8008,-1.8008,-1.8008,-1.8042,-1.8008,-1.811,-1.8178,-1.8279,-1.8347,-1.8414,-1.8448,-1.8549,-1.864,-1.8741,-1.8841,-1.8908,-1.8934,-1.8916,-1.8843,-1.8721,-1.8432,-1.8194,-1.7936,-1.7585,-1.7451,-1.7502,-1.742,-1.7286,-1.7223,-1.712,-1.6913,-1.6758,-1.6696,-1.6624,-1.6498,-1.6402,-1.6402,-0.6166,-0.683,-0.7007,-0.7095,-0.7092,-0.7061,-0.6946,-0.6732,-0.6661,-0.6542,-0.6359,-0.649,-0.6644,-0.6795,-0.7561,-0.8585,-0.9879,-1.0588,-1.085,-1.1117,-1.1111,-1.0991,-1.0924,-1.0954,-1.1027,-1.0942,-1.0978,-1.1117,-1.1117,-1.1117,-1.1117,-1.1149,-1.1149,-1.1298,-1.1595,-1.1774,-1.1966,-1.215,-1.2305,-1.2305,-1.2305,-1.2342,-1.2556,-1.3244,-1.3954,-1.4565,-1.4895,-1.586,-1.6333,-1.6482,-1.6735,-1.6908,-1.6908,-1.6908,-1.7012,-1.7176,-1.7348,-1.7486,-1.7657,-1.7818,-1.7896,-1.7896,-1.7974,-1.8008,-1.8008,-1.8008,-1.8008,-1.8008,-1.8008,-1.8008,-1.8008,-1.8008,-1.8008,-1.8008,-1.8008,-1.8008,-1.8008,-1.8008,-1.8008,-1.8008,-1.8008,-1.8008,-1.8008,-1.8008,-1.811,-1.811,-1.8212,-1.8212,-1.8279,-1.8371,-1.8472,-1.8539,-1.864,-1.8707,-1.8703,-1.8637,-1.8537,-1.8342,-1.7933,-1.7564,-1.7339,-1.7061,-1.7009,-1.6907,-1.6786,-1.6684,-1.6639,-1.6616,-1.6525,-1.6432,-1.6358,-1.6374,-1.6374,-1.6402,-1.6402,-0.5764,-0.5938,-0.6782,-0.7095,-0.7065,-0.696,-0.6815,-0.6688,-0.6603,-0.6453,-0.6338,-0.6992,-0.7215,-0.7446,-0.8055,-0.9003,-0.9652,-0.9954,-1.0325,-1.0738,-1.0887,-1.0908,-1.0953,-1.1087,-1.1039,-1.0954,-1.1045,-1.1111,-1.1117,-1.1117,-1.1117,-1.1111,-1.126,-1.1409,-1.1477,-1.17,-1.1966,-1.2077,-1.2231,-1.2305,-1.2305,-1.2305,-1.2378,-1.2666,-1.331,-1.3926,-1.4394,-1.5436,-1.6123,-1.6149,-1.6621,-1.6874,-1.6908,-1.6908,-1.7012,-1.7141,-1.7235,-1.7314,-1.7529,-1.7657,-1.7784,-1.7784,-1.7896,-1.7974,-1.8008,-1.8008,-1.8008,-1.8008,-1.8008,-1.8008,-1.8008,-1.8008,-1.8008,-1.8008,-1.8008,-1.8008,-1.8008,-1.8008,-1.8008,-1.8008,-1.8008,-1.8008,-1.8008,-1.8008,-1.8008,-1.8008,-1.8052,-1.8076,-1.81,-1.8236,-1.8303,-1.8381,-1.8442,-1.8499,-1.8388,-1.8324,-1.8098,-1.7916,-1.7499,-1.7012,-1.6768,-1.6544,-1.6351,-1.626,-1.6181,-1.612,-1.6085,-1.6073,-1.6112,-1.6181,-1.622,-1.6316,-1.6384,-1.6374,-1.6306,-0.4696,-0.6297,-0.6767,-0.697,-0.6888,-0.682,-0.6712,-0.6576,-0.6502,-0.6433,-0.6359,-0.6644,-0.7065,-0.7484,-0.7902,-0.847,-0.9079,-0.9273,-0.9382,-0.9949,-1.0228,-1.0296,-1.0193,-1.0667,-1.1021,-1.084,-1.0954,-1.1111,-1.1117,-1.1117,-1.1117,-1.1117,-1.1192,-1.1298,-1.1347,-1.1552,-1.1774,-1.1966,-1.2187,-1.2305,-1.2305,-1.2305,-1.2305,-1.2342,-1.3455,-1.3962,-1.4386,-1.5578,-1.6377,-1.6473,-1.6804,-1.6908,-1.6908,-1.6908,-1.6943,-1.7003,-1.7038,-1.7185,-1.7461,-1.7564,-1.7613,-1.7672,-1.7784,-1.7852,-1.7964,-1.8008,-1.8008,-1.8008,-1.8008,-1.8008,-1.8008,-1.8008,-1.8008,-1.8008,-1.7974,-1.8008,-1.8008,-1.8008,-1.8008,-1.8008,-1.8008,-1.8008,-1.8008,-1.8008,-1.8008,-1.8008,-1.8008,-1.8042,-1.8042,-1.8076,-1.8144,-1.8178,-1.823,-1.8271,-1.8088,-1.7929,-1.754,-1.7321,-1.708,-1.6648,-1.6306,-1.6054,-1.5953,-1.5923,-1.5993,-1.5881,-1.5667,-1.5776,-1.6026,-1.6085,-1.6124,-1.6105,-1.6077,-1.6029,-1.6019,-0.3559,-0.5817,-0.6279,-0.6548,-0.6698,-0.6664,-0.6583,-0.6518,-0.647,-0.6399,-0.6323,-0.6338,-0.6683,-0.7176,-0.7484,-0.8016,-0.8737,-0.8889,-0.9008,-0.9273,-0.9648,-0.9876,-0.9988,-1.0501,-1.0888,-1.0485,-1.0912,-1.1099,-1.1117,-1.1117,-1.1117,-1.1117,-1.1117,-1.1131,-1.1218,-1.1409,-1.1595,-1.2009,-1.2194,-1.2268,-1.2305,-1.2305,-1.2305,-1.2696,-1.3484,-1.4314,-1.453,-1.5754,-1.6517,-1.6551,-1.6795,-1.6908,-1.6908,-1.6908,-1.6908,-1.6934,-1.6943,-1.7047,-1.7254,-1.7392,-1.7486,-1.7613,-1.7706,-1.7784,-1.7862,-1.794,-1.794,-1.7896,-1.7896,-1.793,-1.794,-1.7906,-1.7906,-1.794,-1.794,-1.7964,-1.7964,-1.8008,-1.8008,-1.8008,-1.8008,-1.8008,-1.8008,-1.8008,-1.8008,-1.8008,-1.8008,-1.8008,-1.7969,-1.793,-1.7856,-1.7831,-1.7648,-1.7668,-1.7537,-1.733,-1.6991,-1.6765,-1.6496,-1.6257,-1.5929,-1.5809,-1.5759,-1.5778,-1.5729,-1.5766,-1.5664,-1.584,-1.5968,-1.58,-1.5682,-1.5728,-1.572,-1.5662,-1.5546,-0.2603,-0.3465,-0.469,-0.5732,-0.6589,-0.659,-0.6481,-0.6441,-0.6371,-0.632,-0.63,-0.63,-0.6338,-0.657,-0.7142,-0.7791,-0.8627,-0.9463,-0.9425,-0.9765,-1.0501,-1.0295,-1.0239,-1.0473,-1.1032,-1.0942,-1.1044,-1.1105,-1.1117,-1.1117,-1.1117,-1.1117,-1.1117,-1.0954,-1.1004,-1.1255,-1.1589,-1.1935,-1.2157,-1.2268,-1.2305,-1.2305,-1.2305,-1.2482,-1.3062,-1.36,-1.3673,-1.518,-1.6123,-1.6158,-1.6621,-1.6908,-1.6908,-1.6908,-1.6908,-1.6908,-1.6826,-1.6886,-1.6945,-1.7148,-1.7314,-1.7486,-1.7623,-1.7672,-1.7725,-1.775,-1.7716,-1.7716,-1.775,-1.775,-1.7716,-1.7657,-1.7769,-1.7837,-1.7896,-1.7896,-1.793,-1.8008,-1.8008,-1.8008,-1.8008,-1.8008,-1.8008,-1.8008,-1.8008,-1.8008,-1.7988,-1.7988,-1.7803,-1.7715,-1.7519,-1.7353,-1.7051,-1.6904,-1.6797,-1.6623,-1.6445,-1.6244,-1.5979,-1.5782,-1.5576,-1.5536,-1.5594,-1.5322,-1.5264,-1.5467,-1.5524,-1.5206,-1.5032,-1.5181,-1.5286,-1.5515,-1.5449,-1.5294,-1.4991,-0.1343,-0.2234,-0.2754,-0.3854,-0.5334,-0.5768,-0.6025,-0.6133,-0.6083,-0.6138,-0.6257,-0.63,-0.63,-0.6416,-0.6532,-0.6872,-0.733,-0.8055,-0.8399,-0.8889,-0.949,-0.9937,-1.0053,-1.0484,-1.1033,-1.096,-1.1021,-1.1117,-1.1117,-1.1117,-1.1117,-1.1117,-1.1117,-1.1069,-1.1076,-1.1206,-1.1527,-1.1781,-1.2003,-1.215,-1.2305,-1.2305,-1.2305,-1.2378,-1.3062,-1.3709,-1.4286,-1.5223,-1.5939,-1.6403,-1.6735,-1.6839,-1.6908,-1.6908,-1.6908,-1.6862,-1.6734,-1.6597,-1.6633,-1.6821,-1.7107,-1.7279,-1.7451,-1.7588,-1.7588,-1.7588,-1.7598,-1.7588,-1.7638,-1.7638,-1.7554,-1.7623,-1.7725,-1.7759,-1.7794,-1.7828,-1.7876,-1.7935,-1.792,-1.7881,-1.7949,-1.8008,-1.8008,-1.8008,-1.8008,-1.8008,-1.7988,-1.792,-1.7705,-1.7445,-1.7178,-1.6953,-1.6638,-1.6445,-1.6338,-1.6146,-1.5965,-1.5778,-1.5547,-1.5488,-1.542,-1.542,-1.542,-1.5071,-1.4696,-1.4686,-1.4513,-1.4119,-1.4208,-1.4725,-1.5176,-1.5555,-1.5332,-1.4805,-1.4481,-0.0432,-0.1137,-0.1412,-0.2464,-0.4021,-0.4611,-0.5082,-0.5428,-0.5431,-0.5709,-0.6103,-0.6222,-0.6219,-0.6257,-0.6606,-0.6721,-0.7103,-0.7595,-0.7672,-0.828,-0.9097,-0.9505,-0.9803,-1.0339,-1.1039,-1.0906,-1.0985,-1.1117,-1.1117,-1.1117,-1.1117,-1.1117,-1.1105,-1.1069,-1.1003,-1.1255,-1.1476,-1.1687,-1.1966,-1.2114,-1.2305,-1.2305,-1.2562,-1.2666,-1.328,-1.3818,-1.4537,-1.533,-1.5947,-1.6368,-1.6691,-1.6874,-1.6908,-1.6908,-1.6908,-1.678,-1.6578,-1.6297,-1.6386,-1.6591,-1.6828,-1.6884,-1.7232,-1.7364,-1.7382,-1.7417,-1.7392,-1.7426,-1.7476,-1.751,-1.7426,-1.7451,-1.7613,-1.7681,-1.7716,-1.7774,-1.7809,-1.7871,-1.7793,-1.7734,-1.7715,-1.7529,-1.751,-1.748,-1.7734,-1.7666,-1.749,-1.749,-1.748,-1.7181,-1.677,-1.6523,-1.6299,-1.6103,-1.5958,-1.5829,-1.572,-1.5653,-1.5478,-1.5459,-1.542,-1.5352,-1.5225,-1.4925,-1.4497,-1.3972,-1.4017,-1.4314,-1.4428,-1.4542,-1.476,-1.4756,-1.4124,-1.3606,-1.3734,0.0,-0.0157,-0.0941,-0.1956,-0.2968,-0.3163,-0.3671,-0.4411,-0.4567,-0.5004,-0.5715,-0.6064,-0.6138,-0.6173,-0.6714,-0.6984,-0.7296,-0.7978,-0.8131,-0.7978,-0.8889,-0.9216,-0.9583,-1.0147,-1.0895,-1.1068,-1.1117,-1.1117,-1.1117,-1.1117,-1.1117,-1.1117,-1.1099,-1.1027,-1.0809,-1.1103,-1.1416,-1.1705,-1.2077,-1.2194,-1.2305,-1.2305,-1.2629,-1.2996,-1.3208,-1.3637,-1.4358,-1.4931,-1.5436,-1.5789,-1.6263,-1.6438,-1.6517,-1.6656,-1.6691,-1.6594,-1.6351,-1.6175,-1.6191,-1.6418,-1.6376,-1.6398,-1.6741,-1.6958,-1.7108,-1.7154,-1.7136,-1.707,-1.7232,-1.7226,-1.721,-1.7242,-1.7375,-1.743,-1.7436,-1.7422,-1.7417,-1.7449,-1.73,-1.7284,-1.7028,-1.6755,-1.6755,-1.6853,-1.7285,-1.7272,-1.7019,-1.7002,-1.708,-1.6887,-1.6437,-1.6123,-1.5928,-1.582,-1.5654,-1.5537,-1.5439,-1.542,-1.5303,-1.5196,-1.5128,-1.5001,-1.4859,-1.4674,-1.4166,-1.3459,-1.4113,-1.4868,-1.4232,-1.3536,-1.3558,-1.3446,-1.2818,-1.2826,-1.3433,0.0,0.0,-0.0314,-0.0667,-0.1175,-0.2268,-0.2971,-0.3439,-0.41,-0.4846,-0.5521,-0.5792,-0.5867,-0.6057,-0.6251,-0.6637,-0.6872,-0.7522,-0.7595,-0.7672,-0.8627,-0.9236,-0.9576,-0.9868,-1.0545,-1.0962,-1.1074,-1.0999,-1.1117,-1.0925,-1.1037,-1.1117,-1.0925,-1.1069,-1.1009,-1.1163,-1.1347,-1.1657,-1.1855,-1.2009,-1.2268,-1.2305,-1.2445,-1.2776,-1.2849,-1.3237,-1.3926,-1.4466,-1.4716,-1.5037,-1.5542,-1.5542,-1.5648,-1.5824,-1.5939,-1.5617,-1.524,-1.4735,-1.4382,-1.4374,-1.5262,-1.5696,-1.6121,-1.6307,-1.621,-1.6496,-1.6569,-1.6705,-1.6927,-1.6968,-1.7047,-1.6844,-1.6891,-1.6797,-1.6769,-1.6618,-1.6592,-1.6596,-1.6603,-1.6709,-1.659,-1.6546,-1.6517,-1.6294,-1.6556,-1.6801,-1.6556,-1.6482,-1.6564,-1.6427,-1.6074,-1.5771,-1.5566,-1.5498,-1.5381,-1.5099,-1.4903,-1.4795,-1.4754,-1.4753,-1.4645,-1.4529,-1.4157,-1.3807,-1.338,-1.3046,-1.3456,-1.3602,-1.2825,-1.2327,-1.2923,-1.3152,-1.2856,-1.3373,-1.4293,0.0471,0.0392,0.0118,0.0,0.0,-0.1175,-0.1841,-0.2426,-0.34,-0.4261,-0.4888,-0.5162,-0.5476,-0.5747,-0.5983,-0.6099,-0.6335,-0.6795,-0.7061,-0.7176,-0.7897,-0.8399,-0.8856,-0.941,-0.9679,-1.0207,-1.0319,-1.0207,-1.0094,-1.0207,-1.0169,-1.0175,-1.055,-1.0545,-1.072,-1.0944,-1.1323,-1.1558,-1.1706,-1.1892,-1.2114,-1.2224,-1.2372,-1.2696,-1.2915,-1.3164,-1.3665,-1.3954,-1.407,-1.4422,-1.453,-1.4565,-1.478,-1.4931,-1.5108,-1.4779,-1.4537,-1.4155,-1.3901,-1.3895,-1.4808,-1.5159,-1.5487,-1.568,-1.5716,-1.6006,-1.6098,-1.625,-1.6529,-1.6569,-1.6545,-1.6373,-1.6365,-1.6272,-1.6267,-1.6115,-1.6122,-1.6167,-1.6046,-1.615,-1.6098,-1.6141,-1.6152,-1.593,-1.5794,-1.5969,-1.6096,-1.6082,-1.6015,-1.5867,-1.571,-1.5419,-1.501,-1.4795,-1.4658,-1.4512,-1.4314,-1.4201,-1.4228,-1.4315,-1.4109,-1.3944,-1.3463,-1.3101,-1.3101,-1.2977,-1.2516,-1.2251,-1.2312,-1.2649,-1.3274,-1.3282,-1.2995,-1.3433,-1.4183,0.1332,0.1215,0.0392,0.0,0.0039,-0.0118,-0.0628,-0.141,-0.2349,-0.3166,-0.383,-0.4455,-0.5004,-0.5556,-0.6025,-0.6244,-0.6265,-0.6342,-0.636,-0.6506,-0.7064,-0.7471,-0.798,-0.8486,-0.9115,-0.9015,-0.9205,-0.9841,-0.8988,-0.9566,-0.9533,-0.9344,-1.0099,-1.0293,-1.0594,-1.0925,-1.1335,-1.1446,-1.1552,-1.1781,-1.1966,-1.2009,-1.2372,-1.2696,-1.3018,-1.3346,-1.3745,-1.4034,-1.4142,-1.4286,-1.435,-1.4422,-1.453,-1.4601,-1.4609,-1.4617,-1.4622,-1.4207,-1.4035,-1.4038,-1.4279,-1.4586,-1.5172,-1.5474,-1.5597,-1.5588,-1.5716,-1.578,-1.596,-1.5914,-1.585,-1.5891,-1.5923,-1.5931,-1.5939,-1.5908,-1.5861,-1.577,-1.5602,-1.5482,-1.5352,-1.5316,-1.5374,-1.5231,-1.5337,-1.5405,-1.5589,-1.5668,-1.5592,-1.5337,-1.5192,-1.5065,-1.4617,-1.4022,-1.3974,-1.4305,-1.4046,-1.4013,-1.3967,-1.3985,-1.3709,-1.3394,-1.3099,-1.2967,-1.3168,-1.2967,-1.232,-1.2366,-1.2696,-1.307,-1.3039,-1.2834,-1.2328,-1.2505,-1.2948,0.2152,0.2074,0.1254,0.0941,0.0824,0.0275,-0.051,-0.1293,-0.1684,-0.2232,-0.3129,-0.391,-0.4416,-0.5004,-0.5667,-0.5956,-0.6056,-0.6078,-0.6006,-0.6134,-0.6349,-0.7041,-0.766,-0.8217,-0.8952,-0.9552,-0.99,-0.9814,-1.0072,-1.0127,-1.0244,-1.0582,-1.0363,-1.0556,-1.0726,-1.1031,-1.1168,-1.136,-1.1422,-1.1595,-1.1744,-1.1787,-1.215,-1.2402,-1.2549,-1.2842,-1.3025,-1.3135,-1.3135,-1.3062,-1.3025,-1.3135,-1.3818,-1.4291,-1.4596,-1.4555,-1.4007,-1.3329,-1.3239,-1.3541,-1.3791,-1.3911,-1.4437,-1.4751,-1.4909,-1.5098,-1.5345,-1.545,-1.5524,-1.5524,-1.5524,-1.5541,-1.5485,-1.5414,-1.5393,-1.5281,-1.5265,-1.5209,-1.5023,-1.5067,-1.489,-1.492,-1.4921,-1.4969,-1.5065,-1.5028,-1.5058,-1.5193,-1.5182,-1.4949,-1.4636,-1.4519,-1.4243,-1.3683,-1.4282,-1.4708,-1.4213,-1.3863,-1.3657,-1.3393,-1.3025,-1.2749,-1.273,-1.267,-1.261,-1.2389,-1.2019,-1.2174,-1.2374,-1.2135,-1.2042,-1.1895,-1.1809,-1.2081,-1.2197,0.3012,0.2893,0.2113,0.1606,0.1175,0.0353,-0.0353,-0.0745,-0.0784,-0.1332,-0.2231,-0.2895,-0.3521,-0.4135,-0.495,-0.5462,-0.5507,-0.5811,-0.5895,-0.5857,-0.5786,-0.632,-0.7037,-0.7457,-0.7646,-0.8622,-0.9171,-0.8973,-0.9657,-1.029,-1.0475,-0.9981,-1.0363,-1.0556,-1.045,-1.0367,-1.0673,-1.0979,-1.1218,-1.1391,-1.1521,-1.1595,-1.1706,-1.1855,-1.1929,-1.2083,-1.2194,-1.2231,-1.2305,-1.2305,-1.2305,-1.2489,-1.2983,-1.3374,-1.361,-1.348,-1.312,-1.2727,-1.2692,-1.2917,-1.307,-1.3221,-1.3571,-1.3787,-1.4228,-1.4559,-1.4854,-1.5074,-1.5166,-1.5221,-1.523,-1.5212,-1.5038,-1.4864,-1.4717,-1.4561,-1.4543,-1.4543,-1.4584,-1.4634,-1.4684,-1.4743,-1.4773,-1.4803,-1.4803,-1.4764,-1.4784,-1.4891,-1.484,-1.4634,-1.4201,-1.3885,-1.3666,-1.3403,-1.4085,-1.4264,-1.3515,-1.2887,-1.272,-1.2451,-1.2182,-1.2151,-1.2158,-1.205,-1.1919,-1.1778,-1.1747,-1.1685,-1.1771,-1.1591,-1.1591,-1.1654,-1.1716,-1.1895,-1.1895,0.3871,0.3793,0.2973,0.2152,0.1332,0.0549,0.0118,0.0079,-0.0039,-0.0471,-0.1254,-0.1724,-0.2425,-0.3177,-0.4123,-0.4697,-0.4953,-0.5315,-0.561,-0.5727,-0.5701,-0.6011,-0.6128,-0.6015,-0.6827,-0.6591,-0.6985,-0.8294,-0.8065,-0.8768,-0.9373,-0.8742,-0.9406,-0.9691,-0.9552,-0.9531,-0.9734,-1.0047,-1.0402,-1.0691,-1.1218,-1.1397,-1.1459,-1.1706,-1.1855,-1.2003,-1.2083,-1.2194,-1.2305,-1.2305,-1.2305,-1.2342,-1.2547,-1.2543,-1.2616,-1.2684,-1.275,-1.2814,-1.2915,-1.3139,-1.3009,-1.294,-1.2726,-1.3351,-1.4015,-1.4132,-1.4375,-1.4802,-1.4983,-1.5001,-1.501,-1.49,-1.4705,-1.4641,-1.4558,-1.4485,-1.4485,-1.4485,-1.4515,-1.4565,-1.4565,-1.4634,-1.4634,-1.4634,-1.4654,-1.4595,-1.4586,-1.4686,-1.4567,-1.4369,-1.3962,-1.3455,-1.3304,-1.31,-1.2818,-1.2848,-1.2235,-1.1818,-1.1919,-1.1802,-1.1763,-1.1677,-1.1599,-1.1591,-1.1646,-1.1654,-1.1622,-1.1591,-1.1591,-1.1591,-1.1591,-1.1591,-1.1685,-1.1771,-1.174,0.4701,0.4623,0.3832,0.3012,0.2152,0.1332,0.098,0.0902,0.0235,-0.0196,-0.0628,-0.1292,-0.1823,-0.2251,-0.3247,-0.3852,-0.4293,-0.4607,-0.5051,-0.5282,-0.5396,-0.5593,-0.6146,-0.6142,-0.6531,-0.715,-0.7589,-0.7789,-0.805,-0.8425,-0.8684,-0.8591,-0.8916,-0.8908,-0.8798,-0.8757,-0.8949,-0.909,-0.9131,-0.9924,-1.088,-1.0998,-1.1095,-1.1507,-1.1781,-1.1966,-1.2083,-1.2268,-1.2305,-1.2305,-1.2305,-1.2629,-1.3157,-1.313,-1.3434,-1.3811,-1.3076,-1.299,-1.3175,-1.326,-1.326,-1.3601,-1.3731,-1.401,-1.4139,-1.3881,-1.3973,-1.4457,-1.4751,-1.479,-1.4763,-1.4586,-1.4485,-1.4485,-1.4485,-1.4485,-1.4485,-1.4485,-1.4485,-1.4485,-1.4485,-1.4485,-1.4485,-1.4485,-1.4485,-1.4515,-1.4506,-1.4497,-1.4378,-1.4169,-1.3782,-1.3373,-1.3191,-1.2887,-1.2336,-1.1942,-1.16,-1.1756,-1.2035,-1.1763,-1.1373,-1.1373,-1.1404,-1.1435,-1.1459,-1.1466,-1.1529,-1.1591,-1.1591,-1.156,-1.1591,-1.1591,-1.1591,-1.1685,-1.1654,0.5327,0.5128,0.4203,0.3498,0.2897,0.2143,0.1645,0.1254,0.0784,0.0275,-0.0196,-0.0744,-0.1083,-0.1358,-0.2275,-0.2875,-0.3319,-0.3721,-0.3992,-0.4342,-0.4855,-0.5066,-0.5529,-0.6011,-0.61,-0.6639,-0.73,-0.7643,-0.7979,-0.8221,-0.8348,-0.8317,-0.836,-0.836,-0.8255,-0.8236,-0.8212,-0.8072,-0.7926,-0.8819,-1.0237,-1.0334,-1.0761,-1.1249,-1.17,-1.1879,-1.2083,-1.2231,-1.2231,-1.2194,-1.2157,-1.1949,-1.2238,-1.222,-1.2453,-1.2387,-1.2108,-1.2151,-1.2551,-1.2834,-1.2895,-1.3025,-1.2781,-1.2282,-1.3094,-1.2942,-1.3437,-1.3952,-1.4505,-1.4604,-1.4643,-1.4543,-1.4494,-1.4485,-1.4485,-1.4485,-1.4485,-1.4485,-1.4485,-1.4485,-1.4485,-1.4485,-1.4485,-1.4485,-1.4396,-1.3989,-1.404,-1.3881,-1.3799,-1.3769,-1.345,-1.3161,-1.2887,-1.252,-1.1965,-1.1663,-1.1445,-1.1694,-1.1973,-1.1639,-1.1185,-1.1216,-1.1247,-1.1247,-1.1279,-1.131,-1.1373,-1.1466,-1.1466,-1.1428,-1.1498,-1.1591,-1.1591,-1.1591,-1.1591,0.5786,0.5529,0.4561,0.4067,0.3829,0.3084,0.2418,0.1839,0.141,0.0863,0.0196,-0.0117,-0.0231,-0.0602,-0.1172,-0.157,-0.2087,-0.2759,-0.3023,-0.3485,-0.4084,-0.4483,-0.4818,-0.513,-0.5495,-0.5829,-0.635,-0.6979,-0.745,-0.7498,-0.7516,-0.7866,-0.7988,-0.8016,-0.785,-0.7891,-0.7968,-0.7773,-0.7803,-0.8164,-0.8869,-0.9504,-1.0257,-1.0949,-1.1458,-1.1678,-1.1855,-1.1965,-1.1959,-1.1896,-1.1758,-1.1556,-1.1357,-1.1362,-1.1317,-1.1233,-1.1095,-1.0979,-1.1007,-1.1219,-1.1132,-1.0926,-1.0523,-1.0989,-1.2019,-1.2613,-1.3111,-1.3636,-1.4207,-1.4366,-1.4375,-1.4533,-1.4494,-1.4485,-1.4485,-1.4485,-1.4485,-1.4485,-1.4485,-1.4485,-1.4485,-1.4485,-1.4485,-1.4485,-1.4237,-1.3769,-1.339,-1.3108,-1.2926,-1.2917,-1.2795,-1.2581,-1.2366,-1.1973,-1.1507,-1.1327,-1.1139,-1.1115,-1.1264,-1.1146,-1.1059,-1.1028,-1.1028,-1.1059,-1.109,-1.1153,-1.1185,-1.1247,-1.1279,-1.1272,-1.1397,-1.149,-1.1529,-1.1529,-1.1591,0.5976,0.6057,0.5831,0.5818,0.5749,0.4613,0.4025,0.3703,0.2071,0.1175,0.0894,0.0268,-0.0075,-0.0037,-0.0393,-0.0836,-0.1433,-0.1981,-0.2515,-0.3013,-0.3616,-0.4051,-0.442,-0.4722,-0.5259,-0.5549,-0.5673,-0.5788,-0.6471,-0.6274,-0.6056,-0.6287,-0.6814,-0.6961,-0.6996,-0.7181,-0.7482,-0.7285,-0.7371,-0.7688,-0.8456,-0.9109,-0.9731,-1.0287,-1.0787,-1.0934,-1.108,-1.1144,-1.1144,-1.1109,-1.1134,-1.1023,-1.087,-1.0731,-1.0743,-1.0791,-1.0629,-1.0891,-1.1,-1.1094,-1.1163,-1.1288,-1.1313,-1.1624,-1.2405,-1.2842,-1.3307,-1.3748,-1.4079,-1.392,-1.395,-1.4366,-1.4485,-1.4485,-1.4485,-1.4485,-1.4485,-1.4485,-1.4485,-1.4485,-1.4485,-1.4485,-1.4485,-1.4455,-1.4357,-1.392,-1.348,-1.3169,-1.2681,-1.2428,-1.2112,-1.1965,-1.1818,-1.1389,-1.0895,-1.0926,-1.0776,-1.0713,-1.0681,-1.0776,-1.0839,-1.0832,-1.0839,-1.0877,-1.0972,-1.1066,-1.1097,-1.109,-1.116,-1.1185,-1.1272,-1.1334,-1.1397,-1.1435,-1.1466]}]]